GFSCGP_850_spd_000.txt.gz
Wind_Speed
4 4 9 20 13 5 3 6 12 8 8 4 20 23 18 24 27 37 38 36 46 47 50 47 42 39 37 33 31 32 35 37 40 41 44 47 47 47 47 47 46 44 43 41
4 7 17 2 2 6 6 11 18 14 15 5 14 21 18 19 24 33 38 41 34 43 46 46 43 34 30 28 25 24 27 34 38 42 44 46 44 46 47 47 47 47 46 44
12 10 5 6 3 8 4 7 17 14 6 5 10 13 7 9 13 27 37 43 35 39 39 34 37 34 27 23 22 22 23 27 35 40 43 45 44 46 48 50 49 49 47 45
6 4 6 3 7 9 15 11 13 10 6 7 5 15 6 8 10 9 25 25 27 23 26 32 35 31 31 22 16 19 25 31 33 36 39 44 47 48 48 48 47 48 48 48
7 2 2 4 10 7 10 5 7 3 4 5 1 3 1 4 6 11 9 10 17 21 22 27 29 32 24 21 19 19 21 27 32 35 36 39 43 45 45 44 45 47 48 48
7 2 6 8 7 9 2 2 4 4 2 5 9 8 20 4 4 2 9 31 21 19 28 29 31 32 23 15 17 20 20 22 27 31 33 35 39 42 42 42 41 45 47 47
2 5 4 5 3 1 3 4 3 3 1 9 3 3 16 10 16 8 10 17 7 18 29 38 37 35 27 18 15 16 17 18 20 24 28 31 34 36 38 38 40 41 44 48
4 15 6 5 9 9 8 9 6 7 5 12 3 7 18 7 10 27 17 14 7 20 28 36 37 33 27 20 16 14 13 14 16 18 23 26 30 36 37 38 39 40 39 41
4 10 3 6 4 4 4 6 3 3 5 3 12 14 15 18 7 4 3 8 18 25 23 30 29 31 21 21 15 13 12 13 15 18 22 22 25 32 37 36 37 38 37 38
4 11 6 2 3 5 7 2 2 1 4 8 7 14 12 22 26 7 9 17 36 38 32 27 25 20 19 23 25 23 20 21 22 21 21 25 28 30 33 36 38 37 37 39
2 3 6 1 6 11 2 4 4 2 5 12 18 13 10 22 21 9 11 28 28 29 30 29 26 21 21 20 22 22 22 24 29 32 31 31 32 35 36 39 39 40 41 41
9 5 11 19 6 6 5 12 7 10 10 10 11 11 12 13 16 25 26 28 31 30 33 31 28 28 28 27 27 30 28 23 20 23 26 29 33 36 40 44 44 44 45 44
4 3 4 6 6 4 2 2 4 10 5 12 11 7 8 15 17 27 26 30 31 32 33 32 34 34 34 35 35 34 33 36 34 29 25 25 26 30 35 41 46 49 50 48
3 5 12 15 15 8 11 11 11 13 9 13 13 20 12 14 14 19 19 25 31 33 33 34 37 36 36 40 39 40 39 37 40 39 38 33 29 30 31 31 40 47 50 52
2 14 16 18 12 6 7 12 17 16 16 11 19 19 5 10 13 18 14 21 22 29 32 32 36 36 39 40 44 44 42 41 41 42 40 43 35 30 30 34 35 41 47 49
3 3 5 11 18 13 19 17 18 21 20 15 18 9 2 4 9 12 12 14 22 25 23 25 32 32 40 40 41 45 46 43 41 42 43 40 39 35 30 29 31 35 42 45
1 3 5 18 12 8 12 21 20 17 17 2 8 3 2 4 8 15 17 11 19 18 22 22 31 31 35 36 38 39 42 45 41 39 42 43 41 38 39 31 28 32 37 41
9 10 5 12 7 18 7 6 9 10 8 6 5 4 7 8 11 17 4 16 20 22 20 27 29 32 33 35 36 39 39 42 44 42 42 44 43 40 40 40 31 29 34 38
16 10 3 4 7 10 7 3 3 2 5 5 4 7 9 13 12 2 15 22 29 30 26 31 31 31 33 36 36 39 42 43 44 46 45 45 46 44 39 37 36 29 30 37
1 13 8 2 4 6 1 2 2 5 4 7 9 8 8 8 5 9 26 29 30 28 31 34 33 33 34 35 38 41 43 44 47 48 47 48 44 42 41 36 34 31 27 31
3 2 7 6 4 7 4 6 3 5 5 12 6 16 17 5 9 26 34 32 30 31 35 35 37 39 41 40 42 44 47 50 51 53 54 48 48 43 40 36 34 31 27 24
5 4 4 2 2 7 5 4 4 6 20 20 20 24 23 22 25 30 31 34 34 35 37 36 39 41 42 45 47 49 51 51 53 56 56 56 50 49 43 37 35 33 28 26
2 6 4 7 6 5 10 15 30 21 20 26 20 22 24 24 31 31 33 37 37 40 41 41 44 48 50 51 52 55 58 58 57 56 61 58 56 51 49 40 37 35 32 28
5 7 10 15 15 17 29 34 27 35 33 34 26 22 21 26 29 31 34 38 43 46 47 46 49 54 58 58 60 62 62 61 61 62 59 62 57 54 47 48 40 36 37 36
9 6 6 13 18 21 28 34 33 27 27 25 22 23 24 23 31 29 38 44 46 48 52 51 50 54 63 63 65 64 64 61 62 62 63 58 59 52 49 47 44 38 38 41
15 17 9 13 26 22 25 34 24 18 18 18 23 27 27 27 33 34 42 44 45 50 54 53 56 55 60 60 64 59 55 56 58 59 59 56 52 51 46 42 46 39 39 40

GFSCGP_850_spd_003.txt.gz
Wind_Speed
3 4 8 15 15 2 4 5 6 8 9 4 23 19 15 23 27 37 39 39 29 36 35 33 31 25 18 16 18 20 24 27 34 40 42 47 48 49 51 50 50 49 48 46
4 8 18 3 5 8 6 8 15 7 10 3 12 21 22 18 25 32 34 32 28 32 29 27 23 21 18 17 15 17 21 26 28 35 40 45 48 51 51 51 52 51 50 49
8 6 3 5 3 7 3 6 10 9 7 6 8 7 4 6 12 23 25 21 24 23 19 25 27 26 22 17 13 15 17 22 28 32 37 42 46 46 50 54 54 53 52 50
6 3 6 4 6 7 7 10 10 5 5 3 6 11 5 7 9 5 13 7 11 14 28 36 37 35 30 23 13 11 16 18 25 32 36 39 42 45 47 50 49 51 51 51
7 7 4 4 8 7 10 2 2 2 2 4 2 2 5 3 7 6 6 7 13 21 31 40 39 38 32 27 20 17 14 15 20 25 31 35 39 39 40 42 44 49 51 53
6 2 5 7 4 5 5 4 6 4 2 4 8 7 2 4 4 3 7 29 29 27 30 30 27 30 32 30 28 22 17 16 15 20 27 31 33 37 38 38 40 41 48 51
1 5 3 3 2 1 3 4 3 3 1 7 1 1 6 7 13 6 9 17 24 28 29 31 30 29 30 32 31 29 27 21 16 17 20 27 31 33 35 36 36 38 40 47
3 14 8 5 7 8 7 8 6 7 5 8 3 7 13 7 7 16 25 22 29 30 28 28 31 30 30 30 31 28 26 24 22 20 19 20 26 32 35 33 33 34 34 36
5 7 1 5 4 5 4 6 3 2 2 1 9 11 15 14 8 20 24 30 31 33 34 33 32 34 34 31 30 30 27 24 22 19 17 18 20 25 30 31 30 32 33 34
3 7 4 3 1 3 5 0 1 2 3 11 8 14 13 15 11 13 17 22 22 28 33 33 32 31 33 32 32 29 29 30 29 26 23 18 18 21 26 27 23 27 29 33
3 7 7 3 5 6 0 3 3 3 4 11 13 8 3 7 8 9 10 13 17 24 28 29 29 27 28 31 34 33 30 30 28 28 29 29 23 19 21 24 21 24 30 34
5 4 5 10 8 5 5 7 4 4 6 5 11 8 10 9 10 7 4 9 17 22 24 27 29 30 31 35 35 34 35 36 32 31 30 29 27 27 23 22 22 23 27 33
2 2 3 5 4 3 3 2 5 2 2 13 11 7 9 9 7 9 7 11 14 17 22 26 29 33 34 34 37 37 36 35 35 33 32 30 29 30 29 27 24 23 26 29
3 4 12 14 11 5 9 11 4 5 9 14 14 7 4 7 10 10 10 13 15 21 27 22 25 27 29 30 31 35 34 34 35 32 32 33 32 31 32 32 28 27 28 28
3 8 8 13 16 7 3 8 13 13 16 10 17 17 20 2 3 7 14 13 15 20 23 24 21 29 25 27 29 30 33 36 35 35 34 33 34 34 34 32 33 32 32 32
2 7 2 6 6 7 13 16 19 20 19 16 19 23 4 5 6 9 13 7 13 23 27 28 25 27 28 29 28 31 33 35 37 38 37 37 35 36 36 37 36 34 36 34
3 2 3 16 2 6 9 15 14 15 18 9 15 4 2 3 6 9 10 4 12 23 25 27 24 27 29 28 28 29 30 32 34 37 40 42 41 38 38 38 37 37 35 37
4 4 4 9 4 19 5 2 2 7 2 4 4 3 6 9 8 11 10 9 19 24 27 29 28 30 31 29 29 32 31 31 34 38 40 42 46 45 42 42 41 38 35 34
16 9 4 6 8 10 10 5 5 5 5 7 6 4 7 8 7 18 13 15 21 25 28 29 29 33 36 34 33 34 34 35 37 39 41 43 46 48 49 46 45 45 40 36
7 12 8 2 4 7 3 2 4 4 4 8 10 6 8 6 2 9 17 15 23 28 30 32 33 35 39 41 40 41 41 42 43 45 48 50 49 50 51 52 50 48 44 40
3 2 12 11 8 6 6 5 7 5 5 11 12 16 17 7 19 26 22 25 30 32 33 33 34 39 43 43 44 46 47 49 50 50 51 52 55 57 56 55 55 54 50 45
5 4 3 3 1 8 7 3 5 5 15 20 18 19 21 24 26 29 31 31 34 36 37 37 41 45 46 46 48 52 55 55 55 57 61 62 60 59 60 60 58 55 52 47
3 5 4 9 6 3 7 11 31 32 28 32 25 30 24 22 26 28 29 33 35 37 39 43 45 47 49 51 51 54 60 60 62 66 68 68 67 64 61 61 60 56 53 50
5 9 9 13 13 16 29 35 34 32 32 32 29 24 22 21 24 26 31 35 37 41 42 42 46 52 57 59 56 54 59 59 62 66 67 65 64 63 61 59 58 54 53 51
11 4 8 13 15 23 31 34 38 33 29 24 25 20 18 19 25 25 31 36 39 42 45 46 47 48 57 60 61 57 55 55 56 56 56 55 55 54 55 54 52 49 49 44
20 17 11 14 23 20 28 34 25 17 17 19 20 21 20 20 24 28 33 36 40 45 49 53 53 50 53 54 56 51 49 47 48 50 48 45 44 45 45 45 51 47 42 38

GFSCGP_850_spd_006.txt.gz
Wind_Speed
5 6 11 17 18 19 10 14 18 23 20 16 20 19 18 31 30 33 32 22 20 18 17 19 20 17 14 13 13 16 19 21 29 33 38 43 49 51 53 54 53 52 52 51
5 11 19 4 6 11 13 14 21 16 15 3 14 19 23 18 17 19 18 17 13 13 19 25 28 25 21 19 17 15 14 16 22 27 31 34 39 45 48 53 57 56 55 54
16 11 6 8 12 14 13 14 17 16 13 13 11 13 5 9 13 7 6 5 11 18 23 27 29 28 26 24 20 15 15 15 15 19 25 28 35 38 40 45 48 54 55 55
7 2 5 7 11 12 13 10 15 11 6 10 8 11 8 7 9 3 10 19 16 20 21 22 25 30 32 29 25 20 14 12 12 14 18 24 26 32 35 39 41 46 49 53
2 6 5 5 7 9 5 2 2 1 6 7 3 7 1 2 2 7 14 17 18 19 21 24 26 29 31 32 31 24 22 19 15 12 12 16 19 21 24 29 31 33 37 49
11 2 4 4 2 3 4 1 1 0 3 8 4 7 3 3 3 6 13 15 16 18 20 23 25 30 35 32 29 29 28 24 19 15 13 11 14 18 22 25 28 30 30 33
3 5 3 4 6 2 5 3 7 6 6 12 4 6 8 7 8 7 10 13 19 19 22 27 32 31 31 32 31 30 28 28 25 20 15 11 11 13 19 19 22 24 28 30
9 16 8 7 9 6 9 7 6 8 15 17 6 10 8 11 15 16 17 17 18 20 22 26 26 27 28 29 31 31 29 28 27 27 23 18 16 14 14 16 20 21 24 26
11 15 3 4 1 2 6 7 3 7 6 8 16 23 17 9 11 12 14 14 17 19 18 19 21 23 25 26 28 28 29 29 28 27 27 26 21 17 17 18 19 20 21 23
2 9 3 2 2 5 8 3 8 5 8 20 17 20 13 7 5 7 9 11 12 13 15 16 17 18 20 21 22 24 26 27 28 28 28 28 27 25 20 19 19 20 19 20
6 7 16 3 9 19 10 8 6 5 6 7 10 13 7 3 4 5 5 8 12 15 16 16 16 15 18 21 24 24 23 26 28 28 28 26 27 28 25 24 21 21 23 22
10 4 9 22 13 5 4 12 14 10 11 13 14 18 2 3 6 6 4 2 3 7 12 13 14 17 18 20 23 23 25 25 25 25 24 25 26 26 27 28 27 25 20 24
2 4 5 6 6 3 6 8 16 16 4 13 9 3 7 6 6 4 2 4 2 3 8 10 11 15 16 18 20 21 22 25 26 25 26 26 25 25 25 27 27 27 29 27
3 5 13 17 18 12 9 9 12 14 8 14 17 24 20 11 6 3 4 3 3 2 6 10 10 12 15 17 20 23 24 27 31 30 28 29 30 29 28 27 27 27 28 28
4 7 14 13 15 17 17 15 18 20 17 10 21 20 20 16 6 4 3 4 4 5 9 10 11 11 13 14 18 19 21 25 28 31 32 33 32 31 33 32 31 30 28 30
3 7 15 23 22 20 19 18 21 19 20 23 26 27 19 3 3 5 4 6 7 8 12 14 14 13 14 16 19 22 23 24 24 26 29 34 38 40 36 36 36 37 36 34
9 6 9 20 13 14 11 17 19 21 24 24 23 14 5 1 4 7 7 9 10 10 15 18 19 20 18 20 26 26 29 30 29 28 29 33 37 41 43 43 42 41 42 40
11 12 7 13 9 20 14 5 11 18 18 5 2 4 3 5 8 9 12 14 16 12 14 19 20 23 24 29 31 31 34 34 35 36 36 37 37 39 43 46 47 48 49 48
19 14 8 9 15 21 23 16 12 12 18 7 7 4 4 5 7 16 17 18 20 17 17 23 28 30 33 34 35 39 42 42 42 43 44 44 44 44 44 46 49 52 54 55
8 14 11 3 8 13 10 2 4 3 6 8 4 3 8 4 9 11 19 14 17 21 23 26 31 35 34 37 40 45 47 47 48 48 50 51 52 53 54 54 54 54 54 59
1 2 11 12 12 10 4 6 6 5 4 10 9 15 16 10 17 23 20 21 22 26 29 30 33 34 36 37 41 46 49 52 48 47 54 58 60 62 65 65 64 62 61 60
5 4 5 1 4 10 7 7 6 1 12 16 20 20 19 20 20 20 20 24 21 24 28 31 33 36 40 40 44 51 56 55 56 58 62 62 62 63 63 61 64 63 61 60
6 10 5 8 5 1 12 8 16 25 24 29 24 24 18 19 19 20 18 19 23 25 29 33 36 40 43 47 49 54 60 57 59 60 63 63 61 59 56 53 53 49 52 50
12 17 11 10 19 22 29 32 33 33 30 30 25 24 21 20 17 18 19 21 26 29 33 35 39 44 51 52 51 49 51 53 55 58 59 55 50 50 47 44 42 41 40 41
13 4 8 14 19 27 31 33 36 36 31 24 24 22 20 16 16 19 21 24 27 29 31 34 40 46 50 48 48 48 50 49 51 50 50 47 44 42 42 41 40 39 40 39
21 20 12 15 26 22 30 31 30 25 22 18 20 19 18 18 18 21 23 24 27 30 34 39 42 43 45 46 49 50 47 43 43 43 43 42 43 43 43 43 45 40 39 40

GFSCGP_850_spd_009.txt.gz
Wind_Speed
10 9 11 17 17 20 20 19 20 21 19 17 17 16 17 26 27 21 14 9 9 14 15 19 20 17 15 15 13 9 7 10 13 17 21 24 28 28 32 36 37 39 40 42
5 12 17 17 8 12 15 17 19 17 9 1 13 18 21 16 22 9 9 10 14 13 17 20 23 25 24 21 19 13 8 4 8 10 11 14 14 20 21 26 33 37 39 43
17 14 6 11 14 15 16 16 18 17 14 11 11 15 13 10 18 10 16 16 16 16 17 21 24 26 26 27 27 24 15 8 3 3 7 11 14 18 21 23 24 29 32 35
12 8 7 10 16 13 16 11 11 11 6 10 4 11 12 8 8 14 14 15 16 16 16 17 21 27 31 30 27 27 24 17 11 6 3 4 10 10 11 14 20 25 28 31
2 5 4 8 8 7 6 1 4 5 10 12 11 7 8 5 8 13 11 12 14 14 16 18 19 21 24 27 30 29 29 26 23 17 10 5 7 7 8 14 15 16 19 21
17 3 4 10 2 7 2 6 10 7 5 9 14 12 7 1 6 11 10 11 10 11 14 16 16 19 21 23 25 26 26 29 30 27 21 15 11 8 8 10 14 13 15 18
5 9 5 4 7 5 7 8 8 8 9 13 6 6 13 4 8 8 10 9 8 10 11 13 15 16 16 19 22 26 29 30 29 26 25 24 20 15 12 11 10 12 13 16
10 17 5 7 5 7 8 8 8 11 13 14 3 8 8 13 14 13 12 10 7 8 10 14 14 14 16 20 24 25 28 27 26 24 24 24 24 24 20 17 15 13 14 15
10 10 3 3 1 2 3 6 6 6 9 9 13 20 19 14 11 9 10 9 7 8 11 12 12 13 16 19 22 24 22 22 23 24 23 23 23 22 23 23 20 17 15 16
3 9 4 3 1 9 7 1 5 3 4 7 13 20 15 13 8 7 5 6 8 10 10 11 12 14 15 17 18 17 18 20 21 20 21 21 21 21 21 22 22 23 21 16
5 4 15 10 9 14 7 6 11 12 10 13 17 14 11 6 2 6 5 3 4 5 7 8 8 9 10 12 15 15 16 18 20 21 21 21 22 22 21 21 21 22 23 24
9 2 8 23 20 17 10 15 16 13 8 11 12 13 13 2 5 5 6 5 2 2 5 6 6 7 8 10 12 13 16 18 21 22 23 23 22 22 23 24 24 24 25 24
2 3 5 8 10 2 7 11 14 18 18 24 17 14 3 4 5 7 7 7 6 3 1 4 5 6 8 9 11 13 15 16 22 25 27 27 28 28 26 27 27 27 27 26
1 8 14 14 18 19 17 18 16 14 11 14 16 21 17 12 5 7 7 8 7 6 4 3 4 5 7 9 10 13 16 18 23 25 27 29 30 32 34 33 30 31 32 33
5 11 15 18 21 21 21 19 22 23 24 23 25 23 21 19 20 18 12 8 7 7 5 5 6 7 9 10 11 12 16 17 20 23 25 28 32 34 37 39 40 40 36 35
8 9 11 16 18 20 23 24 27 24 24 25 24 25 22 16 8 2 5 6 8 9 7 7 8 10 11 12 13 14 16 16 22 26 29 30 32 34 37 42 44 43 44 44
11 8 8 19 15 18 15 22 22 24 23 23 22 13 8 6 5 6 7 10 10 11 11 10 11 12 14 15 15 17 18 22 31 35 37 38 37 39 40 41 42 44 47 50
12 11 9 13 11 19 13 10 8 13 15 12 10 1 1 2 7 9 10 13 15 14 16 15 14 15 16 20 24 21 27 33 38 40 40 41 44 47 49 49 49 49 48 49
19 15 8 8 15 18 24 18 19 14 18 11 4 5 2 7 12 17 13 9 15 17 17 19 15 17 23 25 25 29 36 39 39 39 43 47 49 52 56 58 61 61 61 60
5 13 11 10 13 16 15 3 4 4 12 6 8 4 7 12 9 11 16 16 17 15 18 18 22 26 27 27 31 37 42 44 44 43 44 48 52 53 56 55 56 58 58 63
2 4 13 13 15 12 4 5 3 7 8 13 6 10 15 11 16 22 21 20 17 19 21 24 26 27 27 27 36 42 45 50 52 54 54 54 51 50 55 59 56 53 55 57
8 7 6 5 7 11 5 6 6 3 5 6 14 21 21 21 20 21 20 19 17 16 18 20 25 30 34 36 39 44 50 53 55 57 58 60 60 59 56 54 58 52 48 49
7 10 7 6 6 3 9 13 15 17 19 26 29 25 21 20 18 18 19 16 17 17 19 25 31 35 35 37 42 47 50 51 53 55 58 59 60 58 52 47 46 44 41 40
14 22 11 13 15 24 29 30 30 28 29 30 28 25 20 20 18 15 13 15 18 21 24 28 31 34 38 41 44 45 45 47 50 53 55 56 54 52 47 42 39 39 39 39
14 4 12 13 20 27 30 31 31 30 28 27 24 21 20 17 16 14 16 20 20 24 26 29 31 36 40 42 43 42 43 44 48 50 52 51 46 42 42 40 39 39 40 40
24 21 12 15 25 22 26 28 24 23 27 26 24 24 22 21 20 19 19 20 22 26 27 30 33 38 40 41 41 41 40 42 44 47 46 44 44 45 43 42 43 37 36 37

GFSCGP_850_spd_012.txt.gz
Wind_Speed
7 4 7 12 12 11 8 9 9 7 10 5 9 6 9 22 30 15 7 25 24 18 11 15 18 18 18 18 15 10 3 3 3 5 9 15 21 16 18 21 21 22 27 31
3 6 13 10 8 5 7 8 9 8 4 1 9 9 11 17 20 3 22 20 19 12 11 15 20 22 23 25 24 19 14 6 3 5 4 6 10 13 14 14 20 26 25 26
9 6 4 7 8 11 8 8 9 9 7 3 8 9 10 13 4 24 25 20 15 12 13 17 22 25 27 30 31 29 24 17 10 3 1 5 10 12 14 16 15 14 20 25
9 11 9 5 9 5 9 5 5 4 2 4 5 6 7 11 8 14 21 19 14 12 13 16 19 23 27 28 28 30 29 26 21 14 10 5 4 4 4 8 10 14 19 23
2 4 3 5 5 3 3 4 2 3 5 6 6 4 6 6 8 9 14 17 14 13 13 15 16 19 22 25 26 26 26 27 27 24 20 14 8 4 4 6 11 10 12 14
10 1 2 4 1 2 3 3 6 6 3 3 10 10 3 2 7 7 12 16 14 13 13 12 12 15 19 20 21 22 23 23 23 22 23 22 18 12 8 7 8 7 9 13
5 8 3 1 3 2 2 3 4 2 2 6 4 5 6 5 8 12 15 17 14 12 10 10 11 13 15 16 17 18 19 19 18 17 17 18 18 18 19 17 14 11 10 10
3 3 6 5 3 2 5 2 3 4 3 5 7 6 4 6 16 22 20 17 12 9 8 7 7 8 9 13 15 16 17 17 17 16 16 16 17 17 17 17 18 17 14 13
4 6 2 3 2 2 2 2 3 1 1 1 5 9 6 10 8 14 15 13 10 7 5 5 5 5 8 10 12 13 13 14 14 15 16 18 18 18 18 17 16 17 18 18
3 5 3 3 3 4 4 2 1 1 3 5 5 5 7 3 8 8 10 14 11 8 5 3 2 5 8 12 11 11 12 14 14 15 16 17 18 17 18 19 20 20 20 20
3 2 5 5 5 5 1 3 3 3 5 3 7 7 2 6 7 9 11 10 8 5 1 1 3 3 5 7 9 11 13 13 15 16 17 16 17 17 18 20 22 23 23 24
3 1 4 7 11 12 5 8 5 4 8 6 8 11 12 7 9 10 9 4 5 2 1 1 2 4 5 7 10 13 15 17 17 18 19 21 22 22 21 21 23 25 27 28
3 2 2 8 3 4 3 2 3 6 2 11 8 9 5 11 8 6 7 12 12 12 9 4 3 1 4 5 8 10 13 15 20 21 22 23 25 26 28 30 29 28 29 29
4 3 6 7 8 9 8 12 10 5 5 10 14 18 15 10 9 13 18 16 14 11 8 6 7 6 5 9 10 10 12 14 17 18 21 24 28 31 33 35 36 37 36 36
3 6 5 11 14 14 12 12 15 14 15 14 22 21 23 20 8 7 5 3 5 7 9 7 6 7 9 8 10 15 17 18 18 19 23 27 30 32 33 34 36 38 39 40
5 5 2 7 6 8 14 18 18 19 22 23 23 23 9 8 4 5 3 2 3 4 8 8 6 7 8 9 10 13 20 20 21 22 28 32 32 32 34 36 38 41 43 44
2 2 3 9 4 6 7 21 19 20 20 19 18 12 2 5 5 5 5 5 7 6 8 10 10 10 9 9 14 18 20 22 23 28 33 34 36 39 42 44 46 49 52 54
4 4 3 4 4 4 12 3 3 5 7 3 2 3 5 3 4 6 8 12 12 12 12 14 16 17 16 19 20 22 23 26 28 35 36 39 40 44 48 50 52 54 54 57
14 6 4 3 6 10 15 8 5 1 8 1 3 6 7 4 6 10 8 4 5 9 14 16 15 20 23 23 25 27 28 30 35 36 40 41 43 47 50 54 55 57 57 60
6 11 7 2 4 7 1 5 6 3 7 4 9 5 2 4 1 5 10 15 19 20 18 18 18 21 24 26 29 31 35 38 40 42 44 48 49 50 51 53 55 57 57 61
3 1 9 11 8 6 1 6 5 4 9 10 16 8 6 4 12 22 21 21 19 18 15 18 21 25 25 27 30 34 37 39 44 48 52 53 53 52 52 53 54 54 55 55
5 5 4 1 1 7 2 4 6 4 1 12 11 13 15 23 22 20 21 21 18 17 19 22 23 24 24 29 32 35 38 43 48 52 53 53 53 53 53 53 53 50 48 47
2 8 4 7 5 4 8 9 13 13 16 20 23 26 26 23 22 22 20 18 18 22 24 24 25 26 28 30 31 36 41 46 49 51 52 52 52 51 50 48 46 44 42 42
5 13 3 2 7 16 33 30 26 29 26 23 25 28 23 21 21 22 21 21 22 24 24 25 26 27 29 29 33 38 42 43 45 48 50 50 50 50 45 40 39 39 40 41
12 4 8 8 13 27 31 32 34 35 31 28 24 22 25 23 24 22 22 23 23 24 24 24 25 27 28 31 36 38 38 40 42 45 47 48 48 45 43 40 39 36 38 37
22 19 12 11 23 23 24 30 25 21 21 25 27 28 30 30 24 22 22 23 22 23 23 24 25 26 29 33 36 34 35 36 39 43 45 45 44 42 41 42 44 36 34 35

GFSCGP_850_spd_015.txt.gz
Wind_Speed
5 4 6 11 11 4 2 3 4 5 9 2 8 6 9 19 27 9 18 19 17 19 17 17 18 19 19 17 15 12 5 2 4 6 8 11 13 12 9 13 15 18 20 22
4 5 13 7 5 6 6 5 6 5 5 1 7 9 9 16 10 10 26 20 18 16 16 18 20 21 23 24 24 20 16 10 7 4 3 1 4 8 9 9 14 15 17 20
8 8 7 6 6 7 4 5 4 8 5 3 3 7 8 3 19 23 18 19 17 17 17 17 18 21 23 27 28 27 25 22 19 15 8 5 2 6 9 8 11 12 14 17
6 14 7 6 6 6 4 5 5 5 2 4 3 6 6 4 7 6 15 18 17 16 16 16 18 20 22 24 22 23 23 23 23 21 19 17 14 8 5 4 7 10 14 16
6 4 4 5 6 8 8 3 2 2 2 3 3 1 7 9 4 6 10 16 16 15 14 15 15 16 17 17 18 18 18 19 19 18 17 16 15 11 7 7 9 8 8 9
5 1 3 5 1 2 5 2 3 4 3 2 7 7 5 5 8 6 12 19 17 14 12 12 12 13 14 14 15 16 16 17 17 16 15 14 13 12 9 9 8 7 7 8
2 4 3 4 2 4 3 5 2 1 0 6 5 2 8 4 5 10 15 21 17 11 11 9 9 10 12 13 14 14 14 14 14 12 12 12 13 12 13 14 15 14 11 9
5 4 8 5 6 6 5 6 4 5 3 4 5 5 4 4 19 25 22 19 15 11 8 6 6 7 8 9 10 10 11 13 12 12 13 14 13 13 13 14 15 15 16 16
5 5 2 2 2 6 4 4 2 3 1 2 4 5 2 5 7 16 19 15 11 9 6 3 3 5 6 5 6 9 12 12 12 13 13 13 12 13 15 15 15 16 17 18
2 2 3 1 3 2 2 5 2 2 2 4 5 5 5 5 7 6 11 14 10 8 7 4 1 2 3 5 7 10 10 11 12 11 11 12 12 12 13 15 17 18 19 20
3 4 3 5 5 7 2 2 3 3 4 4 2 5 3 6 8 9 11 14 13 11 8 6 5 3 2 4 5 6 8 9 11 11 12 12 12 14 14 16 17 20 22 24
1 4 4 8 4 5 5 5 4 3 5 3 4 8 4 8 10 19 17 16 15 15 14 12 7 6 3 4 3 4 6 8 11 12 13 15 17 19 21 21 22 23 25 25
6 1 2 9 3 3 2 3 4 3 3 9 8 9 3 10 12 17 17 18 20 20 17 13 12 10 8 6 4 3 5 10 14 16 18 19 20 23 26 28 29 30 31 31
7 4 6 8 4 3 3 6 3 4 4 4 10 11 17 9 5 11 18 21 22 22 19 15 15 14 11 9 8 7 7 10 13 15 17 19 23 26 28 29 30 32 34 36
5 5 4 4 4 2 3 7 11 5 11 8 20 15 18 12 2 2 1 3 13 17 19 17 17 15 13 12 12 11 12 14 16 17 18 21 25 28 30 32 33 35 38 41
1 2 2 4 3 4 7 14 11 14 16 14 18 21 18 4 3 3 4 6 8 10 17 17 17 15 14 14 13 13 15 15 18 19 22 24 30 32 32 35 39 43 47 49
4 5 3 6 2 2 7 17 17 12 13 7 11 11 3 4 5 6 6 4 3 6 8 10 15 16 16 16 17 16 17 19 20 21 24 28 31 33 36 40 44 48 51 53
6 6 3 4 3 2 8 4 6 7 7 6 1 4 8 7 7 5 6 8 10 7 8 12 14 14 18 18 18 20 21 22 24 27 29 31 33 37 41 44 47 49 51 54
7 5 1 3 5 6 12 6 5 5 6 6 5 4 10 7 2 5 2 2 3 8 12 14 15 16 15 18 20 21 22 22 26 30 32 34 38 42 44 46 48 49 51 53
8 8 7 3 6 9 6 3 7 7 9 11 10 9 10 5 1 4 7 14 19 20 21 18 15 15 17 18 20 21 23 27 29 31 34 38 42 44 46 47 48 50 51 54
3 2 15 14 8 6 5 7 7 4 8 5 10 17 12 5 11 13 18 15 18 22 19 18 18 21 23 21 22 25 27 28 30 34 39 42 41 43 44 46 47 49 51 51
7 6 4 2 2 7 11 4 7 8 8 6 12 16 16 17 21 22 21 21 20 20 20 21 21 21 22 22 25 26 27 29 33 38 41 41 41 41 43 44 47 47 45 44
2 7 5 9 6 6 18 8 14 12 11 12 15 21 25 25 23 22 22 22 21 21 22 23 21 24 23 25 26 27 27 31 36 38 40 40 41 41 41 42 44 42 38 39
5 4 4 4 5 10 21 25 26 26 26 26 23 22 23 25 18 23 24 24 24 25 24 24 25 25 25 25 25 25 29 34 36 39 39 39 40 41 41 41 38 36 36 38
9 6 4 5 12 20 27 33 35 34 31 31 29 27 26 20 23 24 26 26 27 27 26 27 26 25 24 24 24 26 30 33 35 37 37 37 39 40 41 40 36 35 34 32
16 15 9 12 23 17 21 32 30 26 26 25 22 22 25 26 26 28 28 26 26 26 27 26 25 25 24 23 25 26 29 31 34 35 34 35 37 38 39 40 39 33 32 30

GFSCGP_850_spd_018.txt.gz
Wind_Speed
3 4 7 12 12 4 3 4 6 5 7 4 9 7 10 19 3 11 15 14 13 14 14 14 15 15 15 14 12 12 8 7 1 4 7 8 9 9 6 7 10 12 12 12
4 6 14 3 4 7 5 5 8 5 7 4 6 7 11 7 6 12 21 17 15 14 14 17 18 19 21 21 21 19 18 16 13 9 6 3 4 8 9 6 8 10 11 13
8 7 7 6 4 6 4 6 4 8 4 4 3 6 8 4 13 18 15 15 14 15 16 17 19 20 21 23 23 22 22 20 19 16 12 8 5 4 6 7 8 9 11 12
6 9 5 5 5 5 5 8 8 6 3 4 1 5 5 4 5 7 14 14 15 15 15 16 18 18 20 22 19 20 20 20 19 16 14 11 12 10 9 4 2 3 7 12
6 2 3 6 8 7 8 3 3 1 3 1 4 2 6 5 3 5 9 14 13 13 13 14 16 16 17 17 16 17 16 17 17 15 15 14 13 13 10 7 6 5 5 5
6 1 4 6 1 2 3 4 7 5 2 2 8 7 2 3 3 6 11 16 16 14 12 12 13 12 14 15 14 15 16 16 15 14 13 13 12 11 9 10 11 12 11 9
2 5 4 5 5 2 3 5 2 4 2 6 3 2 6 4 2 11 19 20 15 12 11 10 9 9 11 12 12 13 13 13 12 10 10 11 11 12 13 13 12 11 12 13
6 4 8 6 8 9 7 8 6 7 4 5 1 6 3 3 9 22 25 21 15 12 10 8 6 5 7 7 8 9 7 6 6 8 9 9 9 11 12 14 14 14 14 14
5 6 2 0 0 4 4 4 2 5 2 2 5 3 3 5 6 14 20 19 16 13 10 8 5 2 1 2 2 2 3 5 6 6 6 7 9 9 11 11 13 15 15 15
4 3 2 1 2 5 2 4 3 2 2 4 4 5 5 8 8 7 11 16 14 12 10 7 6 5 4 2 0 2 5 6 6 5 6 8 9 10 12 13 14 15 18 20
5 5 2 4 5 9 2 3 2 2 5 5 2 6 3 7 11 13 16 19 18 15 12 13 12 11 9 5 1 1 2 3 4 6 8 9 10 12 13 14 16 17 19 21
4 4 4 7 1 2 1 5 6 5 6 4 3 9 1 5 9 17 21 21 18 14 14 17 16 14 10 7 6 4 3 3 4 7 9 11 13 15 17 19 21 22 23 24
7 2 1 5 4 2 4 4 2 2 3 5 4 7 2 2 8 16 20 21 19 19 21 20 19 17 13 10 8 7 5 5 7 9 12 14 17 20 23 25 27 28 29 31
13 5 7 12 5 3 3 4 3 3 2 3 7 5 6 7 6 9 13 16 20 25 26 23 20 18 16 13 12 10 9 7 8 10 13 16 19 21 23 26 28 30 32 35
4 6 5 3 4 4 4 9 6 8 8 8 17 11 15 5 7 12 13 11 10 14 20 25 22 20 18 16 14 13 11 11 13 15 17 19 21 23 26 28 29 31 34 38
2 1 2 3 4 6 6 11 5 11 13 10 15 19 14 19 8 5 8 8 8 13 19 23 20 21 20 17 16 16 17 17 18 18 19 22 24 28 30 31 33 37 42 46
6 6 3 5 3 4 8 8 16 14 10 8 11 12 2 5 10 10 11 7 8 9 11 17 22 22 22 20 19 21 21 21 21 21 22 23 26 30 30 33 37 41 45 47
4 5 3 3 2 2 7 1 3 7 8 5 3 4 7 8 7 9 11 9 11 11 12 12 13 17 21 23 25 26 24 23 22 22 23 26 29 30 32 36 40 42 44 47
5 5 3 4 5 6 9 6 7 7 7 6 6 3 9 10 6 8 10 8 6 5 8 12 17 19 20 23 27 25 24 23 23 24 27 29 29 32 36 38 41 43 45 47
4 1 6 3 5 9 7 2 10 6 6 9 11 9 11 12 3 6 15 11 11 15 16 19 20 20 21 22 23 24 23 22 23 25 26 28 31 35 37 39 41 42 44 47
3 1 14 10 4 7 7 7 6 5 7 8 9 12 16 6 18 15 11 14 15 17 17 19 21 21 21 22 23 23 23 23 24 26 27 30 32 34 37 39 39 42 43 45
7 8 5 3 3 9 14 6 8 6 8 10 14 17 21 22 21 18 21 20 17 18 20 20 21 22 24 23 22 24 24 25 26 26 28 31 32 33 34 37 38 40 41 43
2 7 5 9 7 3 25 12 24 17 14 16 20 18 18 23 25 26 25 22 20 19 20 20 23 25 24 24 23 24 26 26 26 27 30 30 31 32 33 35 36 38 38 39
4 6 3 4 5 7 21 23 21 20 24 26 25 27 25 26 26 25 27 23 22 22 22 21 25 26 25 25 24 25 26 26 26 29 31 31 32 33 33 33 33 36 36 37
7 8 6 3 6 10 21 27 31 32 33 32 30 29 30 29 26 25 25 23 23 23 24 26 27 27 26 26 25 25 26 25 26 29 30 31 31 32 33 32 32 32 31 32
12 10 4 6 23 18 19 28 29 28 28 27 25 26 29 26 26 25 27 25 23 24 25 27 27 26 25 25 25 25 25 26 27 29 30 30 30 31 31 32 33 26 27 29

GFSCGP_850_spd_021.txt.gz
Wind_Speed
3 4 7 13 11 3 4 4 5 4 4 1 7 6 12 13 2 9 11 11 11 12 12 12 12 12 11 11 11 11 9 9 5 5 5 5 5 6 3 0 3 6 9 11
4 7 13 4 5 6 2 1 7 5 4 6 7 8 10 4 1 6 15 13 14 15 13 15 17 17 18 19 19 19 18 15 13 11 9 9 7 7 6 3 4 5 6 8
8 6 4 6 5 6 4 7 3 6 4 3 4 6 7 3 10 14 14 15 14 14 15 15 16 18 19 21 21 20 21 20 19 16 12 9 7 7 4 1 3 4 5 6
6 5 4 3 5 7 5 8 8 7 3 5 3 5 5 5 4 6 14 15 15 14 14 15 15 15 16 19 18 18 18 18 19 16 14 13 13 10 10 8 8 7 6 5
7 4 4 5 8 6 6 2 5 2 2 2 3 2 6 5 3 5 10 14 14 13 13 14 14 14 15 15 15 16 16 17 17 14 14 14 14 15 13 12 9 9 9 8
6 1 4 7 3 6 4 4 6 4 2 1 9 8 3 4 2 5 11 16 17 16 14 13 12 12 13 13 13 14 15 18 17 15 15 13 12 11 8 9 9 10 10 10
2 5 3 3 3 2 3 6 2 3 2 6 1 2 7 1 2 6 18 24 19 15 13 13 12 11 11 10 11 11 11 11 9 7 6 6 6 6 7 9 10 9 10 12
5 4 9 5 8 7 7 8 6 7 3 4 1 6 5 1 2 8 28 26 21 18 15 13 11 9 7 7 8 6 4 4 3 1 1 2 2 4 6 7 9 11 13 14
5 5 1 4 4 5 5 4 4 5 3 2 4 4 0 2 4 11 19 22 22 20 17 14 10 7 6 5 4 2 1 2 3 2 2 2 2 2 3 5 6 9 10 11
4 3 2 2 3 3 3 5 3 2 2 4 4 6 5 7 7 7 11 23 21 19 17 15 13 11 9 8 7 4 3 3 3 3 2 2 3 4 6 8 10 12 14 15
6 5 2 1 5 8 2 2 3 3 4 5 2 7 4 7 9 13 19 25 23 22 18 16 15 14 13 11 8 6 5 4 3 1 1 3 5 7 9 12 14 16 18 19
6 5 4 8 2 2 2 6 7 6 7 3 2 12 3 3 12 19 21 24 22 19 17 17 18 18 17 14 10 8 7 6 4 3 3 5 8 11 13 16 18 20 22 22
7 2 1 4 2 2 3 3 3 4 3 6 5 8 3 5 7 14 15 19 20 19 19 20 22 23 21 17 13 11 10 8 6 4 5 9 13 16 19 21 23 25 27 28
13 5 7 13 6 4 4 5 5 5 3 7 15 8 3 4 6 7 13 13 15 19 22 24 25 26 23 19 16 13 12 12 9 7 9 13 17 20 22 24 26 27 28 29
3 6 4 4 5 5 6 6 8 7 5 8 4 7 7 9 11 20 15 16 20 20 21 23 28 28 24 21 17 14 15 15 14 13 15 17 19 21 24 26 28 30 30 32
0 3 3 2 4 5 8 9 9 12 10 9 14 19 12 8 13 11 15 14 13 14 15 17 21 24 23 20 17 16 17 17 19 20 19 21 23 25 27 29 31 32 33 37
5 5 3 10 2 4 9 10 14 10 9 8 13 16 2 5 9 12 14 12 13 11 9 11 15 20 20 20 19 20 21 23 24 24 24 26 27 27 28 31 32 33 37 39
6 5 2 2 2 8 3 3 4 8 7 7 1 4 6 7 6 7 9 11 11 10 11 11 11 14 16 20 25 27 29 29 29 28 28 28 28 30 32 33 33 36 37 39
2 5 3 3 5 8 8 6 7 8 9 8 9 4 7 6 5 9 11 12 12 13 12 12 11 13 19 22 26 31 33 33 33 31 30 29 29 30 32 31 35 35 38 40
2 3 4 3 4 9 5 3 7 8 6 10 13 9 9 9 2 6 13 18 15 14 13 15 18 20 23 25 25 25 28 31 32 31 30 28 29 29 29 32 34 35 38 40
3 1 10 8 6 8 6 5 8 6 7 14 16 12 12 6 15 17 11 16 20 17 19 19 19 22 23 25 26 27 29 31 30 29 28 28 29 29 31 33 32 34 37 39
8 8 5 2 2 9 12 7 8 5 15 14 14 12 14 18 18 17 19 19 19 21 23 22 22 23 23 26 28 30 31 30 28 27 27 27 27 28 30 32 32 33 35 38
3 7 6 12 7 1 26 11 28 13 11 13 10 16 18 21 22 20 24 25 25 27 25 25 24 25 26 28 32 32 30 29 27 27 27 27 27 27 28 29 30 32 32 36
5 6 3 4 4 7 17 21 16 20 23 20 20 22 21 24 27 26 27 29 29 28 29 26 26 29 30 30 32 31 29 28 28 27 27 27 27 27 27 28 29 31 32 34
6 10 5 2 4 5 15 21 23 25 25 27 27 28 27 26 30 30 30 31 29 28 27 25 28 29 31 31 31 30 28 28 28 28 27 27 27 27 27 27 28 29 29 31
11 7 4 5 12 11 13 20 19 25 26 26 27 26 26 24 28 28 31 29 25 25 26 27 27 29 31 31 29 28 28 29 29 27 26 26 27 27 27 29 29 24 26 27

GFSCGP_850_spd_024.txt.gz
Wind_Speed
3 4 8 13 10 3 5 5 6 3 3 2 6 6 12 16 6 11 10 9 7 7 9 8 8 8 8 8 8 9 8 10 11 10 11 13 10 9 5 4 2 2 4 6
4 7 10 4 5 5 3 4 6 5 3 4 7 8 11 2 1 6 14 13 11 12 10 11 13 13 14 15 17 16 16 14 12 11 12 11 11 9 6 4 2 2 4 6
7 5 7 6 5 6 5 8 4 7 3 3 2 6 8 3 4 7 11 13 14 14 15 13 14 16 18 19 19 20 20 20 19 17 15 13 11 10 6 5 5 5 5 5
6 4 5 4 6 7 6 8 7 5 3 4 1 5 5 4 4 5 14 18 17 16 14 15 15 16 17 18 18 18 20 21 22 20 17 15 15 12 13 11 11 9 8 7
7 5 4 6 6 7 7 5 6 4 3 1 3 2 7 6 6 7 12 14 13 11 11 13 14 15 16 17 17 17 17 19 18 16 15 14 14 14 12 10 9 10 10 11
5 1 6 7 2 4 6 5 6 4 3 2 9 8 4 5 4 4 13 19 19 17 14 11 13 14 15 16 16 15 13 14 13 11 10 9 9 9 7 8 7 9 9 9
2 5 3 4 4 2 4 5 1 3 2 6 1 2 5 2 2 1 15 24 21 18 15 13 12 12 13 13 12 11 9 10 9 8 7 7 7 5 5 6 8 8 9 10
7 4 10 6 7 6 7 7 5 6 3 4 3 6 4 2 5 6 13 24 22 21 18 15 12 11 9 8 7 5 4 4 4 3 2 2 2 3 4 5 7 8 10 12
5 4 1 3 4 7 5 5 4 4 2 2 4 4 3 1 3 6 17 25 24 22 20 17 14 11 9 8 7 5 2 2 3 3 2 2 1 1 3 3 5 7 8 9
6 2 0 2 4 4 4 6 3 2 2 5 4 4 5 6 7 6 11 24 25 22 20 17 16 14 12 11 10 9 7 7 7 6 5 4 3 2 2 3 5 6 8 10
5 3 1 3 5 9 3 2 3 3 4 5 3 5 5 6 7 11 17 25 26 23 20 19 18 16 15 16 16 13 11 11 10 8 7 5 3 3 5 7 10 12 14 15
7 4 4 8 2 2 3 7 7 6 7 3 2 12 1 3 12 18 20 24 22 20 18 19 20 21 22 21 18 15 14 13 10 9 7 4 4 5 8 10 13 15 18 20
9 3 2 5 1 2 5 5 3 3 3 7 5 8 1 1 8 17 19 21 22 21 21 22 23 25 24 23 20 17 16 14 11 10 8 7 7 8 11 15 18 21 23 26
13 6 8 9 6 5 5 6 5 6 6 8 14 17 4 5 7 12 16 16 19 21 20 22 25 25 26 25 22 20 18 15 14 13 12 11 10 12 15 18 22 24 26 29
4 5 3 2 3 4 6 7 9 10 11 12 14 15 7 11 9 18 17 14 16 16 19 22 23 24 25 26 25 22 18 17 17 17 17 16 16 16 18 21 24 26 29 31
2 3 3 2 2 4 6 11 11 15 6 6 4 13 7 12 16 15 18 18 19 22 18 16 17 18 23 26 26 23 20 19 20 21 22 22 20 19 21 24 26 29 31 33
7 6 4 8 4 6 10 13 15 7 5 10 14 14 3 5 12 18 18 17 17 16 15 15 16 16 17 19 21 22 19 21 23 24 26 26 25 24 26 27 28 30 33 34
7 6 3 3 3 8 2 2 3 14 10 9 1 4 8 7 10 11 13 14 15 16 16 14 11 10 11 13 17 20 23 25 28 29 29 29 28 28 28 29 31 33 34 34
1 5 3 4 6 7 6 5 7 8 10 10 11 7 8 7 5 8 10 11 12 13 12 12 11 11 10 10 13 19 26 30 32 32 31 31 30 30 30 32 34 34 34 35
3 3 6 4 4 7 3 2 6 6 6 10 17 11 11 11 2 5 6 12 14 14 14 13 11 12 14 19 22 23 25 26 28 30 31 31 30 30 31 34 34 33 34 36
4 0 8 6 7 7 5 6 12 5 7 7 17 14 19 5 9 12 12 12 14 15 17 15 14 20 20 20 20 22 24 27 26 28 29 30 29 30 31 34 34 34 34 35
7 8 4 2 3 10 12 5 8 5 7 15 17 17 15 11 12 15 17 15 13 17 21 17 19 23 22 22 22 24 26 26 28 30 30 29 28 29 33 33 33 33 33 34
2 6 6 10 6 2 28 5 15 16 19 17 19 19 14 12 12 14 18 19 16 19 24 22 24 25 26 25 24 27 28 29 30 31 30 29 29 31 32 32 33 32 31 31
4 4 3 3 3 6 21 21 10 19 18 17 18 16 12 13 19 20 19 23 21 22 25 28 28 29 29 27 28 31 31 31 32 32 30 29 31 31 31 31 31 31 29 29
5 9 6 1 1 4 13 22 21 19 19 21 21 20 21 22 23 23 22 20 24 23 25 28 29 29 28 27 29 32 34 33 32 31 30 30 31 31 30 29 29 28 26 27
9 7 4 4 13 13 14 26 22 24 25 23 21 23 24 22 22 21 22 22 21 23 25 24 25 25 27 28 30 32 33 32 32 32 31 31 31 29 29 29 28 24 24 23

GFSCGP_850_spd_030.txt.gz
Wind_Speed
3 7 12 17 15 6 1 4 11 2 1 4 10 12 10 15 12 13 10 9 8 5 2 2 2 3 5 7 9 11 14 15 14 15 15 15 15 14 9 5 4 1 2 3
5 13 13 2 8 8 5 9 14 6 3 4 9 14 16 12 14 15 13 12 10 8 6 5 7 8 10 11 13 14 15 16 14 13 13 13 11 11 10 9 7 6 5 4
12 2 7 8 7 10 11 14 12 9 1 5 5 15 18 7 6 6 10 13 13 13 13 13 13 14 14 16 16 17 17 15 14 13 12 11 12 15 14 14 13 12 10 8
8 3 6 8 8 12 14 12 10 8 4 8 2 7 6 7 8 10 13 16 16 17 17 17 16 17 18 19 20 20 21 21 20 18 16 16 14 15 14 12 11 9 8 7
6 9 10 11 9 11 6 5 9 6 9 5 9 6 7 4 10 12 16 19 19 17 18 19 19 20 20 22 22 22 22 21 20 18 16 13 11 10 10 9 8 8 7 7
5 0 5 4 3 7 12 6 5 3 1 8 15 13 7 7 7 7 16 18 20 21 23 22 21 22 22 24 24 23 23 21 18 16 13 9 8 8 8 7 6 5 5 6
4 10 4 5 5 2 6 10 4 4 5 7 1 9 9 7 2 3 16 20 20 21 23 24 24 23 23 24 24 22 19 17 15 13 11 9 8 8 8 7 4 4 5 6
9 7 15 12 14 9 16 12 5 7 6 2 2 7 5 2 4 5 8 21 21 22 25 26 25 25 25 25 23 21 17 14 13 11 10 9 8 8 7 5 2 0 2 4
9 6 2 4 3 10 7 10 1 3 1 2 6 5 6 4 6 6 11 20 24 26 29 28 27 26 26 25 23 19 16 14 12 10 9 8 8 9 7 5 3 3 4 5
6 5 2 3 3 0 5 11 4 4 5 6 5 6 8 8 13 9 13 21 23 26 29 31 30 29 28 25 22 20 17 14 12 11 11 10 10 10 8 6 6 4 5 6
6 4 4 5 12 17 6 7 4 3 4 4 4 5 5 12 13 14 16 20 25 28 32 33 31 30 28 27 25 21 19 17 16 14 14 13 12 11 10 9 7 6 6 6
10 3 6 11 1 3 11 12 12 7 6 4 2 6 2 2 7 12 13 17 22 27 30 32 32 32 30 29 27 25 23 20 18 17 17 16 15 14 12 11 10 8 7 6
12 5 6 4 4 2 8 9 15 11 2 11 7 3 1 1 4 10 12 17 23 26 29 31 33 34 33 32 31 27 24 22 20 20 19 19 18 16 16 15 12 9 7 8
24 9 16 18 8 10 12 15 16 18 10 12 19 8 8 10 10 13 16 18 22 29 33 32 32 34 34 34 31 28 24 23 24 23 23 22 20 19 19 18 15 12 10 10
13 16 18 22 12 9 10 19 21 25 27 15 17 20 15 15 15 20 23 19 23 30 32 34 34 34 33 33 31 28 26 27 27 26 25 24 23 22 22 21 18 15 14 14
5 14 16 16 13 12 9 18 25 26 24 23 15 18 8 21 17 13 17 22 27 32 32 33 32 33 30 28 27 27 29 29 30 29 27 26 26 26 25 24 22 20 19 19
12 11 7 15 9 5 9 23 21 18 17 19 19 17 6 8 14 19 20 27 30 26 28 28 27 25 22 23 23 23 23 27 29 30 28 27 27 27 27 27 26 26 24 23
16 19 8 7 6 11 7 0 19 21 17 16 4 4 11 9 15 14 18 23 23 23 22 21 22 20 19 17 17 17 20 22 24 27 28 27 28 30 31 31 30 30 29 27
1 13 5 5 10 4 2 4 8 13 14 10 18 6 6 7 5 7 17 19 18 18 18 18 17 16 16 17 17 18 18 18 20 23 25 27 28 31 33 34 34 32 30 28
3 5 9 4 7 11 2 4 6 5 5 9 16 7 11 14 7 8 17 16 17 18 17 16 17 18 17 17 17 18 16 15 18 19 21 23 26 29 31 33 33 32 29 27
5 2 12 6 5 5 4 6 10 7 2 7 19 16 21 8 7 5 15 20 19 16 15 16 18 17 15 18 18 17 16 20 19 17 17 19 22 25 27 29 30 29 28 28
9 9 4 3 5 9 8 6 9 4 7 16 17 18 22 18 14 19 20 20 17 14 14 18 20 17 16 21 20 18 17 16 17 18 18 18 21 23 25 26 27 27 27 29
4 3 4 6 2 2 19 3 8 14 17 17 20 22 21 22 24 23 21 17 13 10 12 18 21 17 18 25 25 22 20 18 20 23 24 23 23 26 26 26 27 28 29 31
3 3 2 3 2 2 17 3 12 12 14 20 20 22 22 23 25 24 19 15 13 12 14 20 22 21 23 29 32 29 23 23 25 26 28 26 25 27 28 27 28 29 31 31
2 8 6 2 1 3 11 19 16 17 15 18 16 15 18 22 24 22 20 17 15 15 17 22 27 25 25 26 31 35 32 30 30 29 29 27 27 28 29 29 29 30 31 32
8 6 4 3 14 8 10 24 24 20 23 20 20 19 19 21 24 22 22 21 19 19 21 24 28 30 29 29 30 31 33 32 30 29 29 29 28 28 29 30 30 31 32 32

GFSCGP_850_spd_033.txt.gz
Wind_Speed
10 9 13 17 16 17 8 9 13 9 3 4 13 15 14 16 17 19 20 16 13 11 10 8 8 9 9 9 10 13 14 18 17 17 15 16 14 14 12 9 7 3 3 2
5 15 17 10 9 12 12 13 16 14 3 4 12 17 16 19 21 25 23 20 17 13 10 10 10 11 12 13 14 16 18 19 19 18 16 15 15 13 10 10 9 8 8 7
17 3 5 9 8 11 14 15 15 14 2 11 13 20 24 25 27 25 16 17 17 16 13 11 12 13 15 17 17 18 18 18 17 15 15 15 15 16 15 14 13 12 10 9
13 10 6 9 14 13 15 13 13 12 7 10 4 9 9 7 13 14 16 17 18 17 14 13 14 14 16 18 20 20 19 19 18 18 17 18 18 20 19 16 13 11 8 6
5 9 12 13 16 10 8 2 6 9 11 13 16 8 11 16 17 16 17 20 20 18 17 15 15 16 19 20 22 21 20 21 20 19 19 19 19 18 16 13 9 7 6 4
8 2 6 6 4 6 9 5 3 3 6 9 17 16 9 10 8 12 18 20 22 21 19 17 19 21 22 22 23 24 24 23 21 20 18 16 14 12 12 11 10 7 4 3
13 14 6 5 6 3 12 8 4 5 6 8 2 12 15 6 7 6 18 24 24 24 22 22 24 24 23 24 25 25 24 23 22 19 16 14 12 10 10 10 8 6 4 2
12 9 22 16 20 9 20 16 6 6 6 4 2 8 6 3 9 6 14 22 23 22 21 22 25 25 27 27 27 26 25 22 20 17 15 13 11 12 12 10 8 6 2 1
13 9 7 9 5 14 7 12 10 4 2 4 7 10 8 7 8 10 15 22 25 25 25 25 26 27 28 28 27 26 24 22 19 17 15 13 12 12 12 10 7 5 3 2
5 5 6 5 4 5 9 9 5 6 5 8 10 14 10 9 15 15 16 23 25 25 25 26 29 30 31 30 29 28 24 21 19 18 16 15 14 14 13 10 8 6 5 4
9 6 6 7 13 18 8 9 9 5 8 5 6 9 9 15 16 19 20 25 28 29 30 30 31 31 32 33 33 30 27 25 23 20 18 17 15 14 13 12 10 8 7 7
12 3 9 13 2 10 16 14 20 7 6 5 6 14 3 5 12 20 24 26 28 31 31 32 31 33 35 35 35 33 29 27 24 21 19 17 16 16 16 14 12 11 10 8
13 6 3 6 3 1 9 16 13 18 1 16 8 7 4 4 7 15 19 23 26 29 29 30 31 36 37 37 36 34 32 30 26 23 21 20 20 20 18 16 16 14 13 11
21 7 14 19 10 9 10 15 21 19 12 18 27 17 8 11 13 16 18 22 24 29 31 31 33 36 38 37 37 35 32 31 27 25 23 23 22 22 20 20 19 18 16 14
11 13 17 24 22 17 11 18 23 28 35 16 27 25 16 16 16 23 24 20 20 23 28 34 36 36 34 35 35 33 32 32 28 27 25 25 23 24 25 23 22 21 20 18
2 11 17 25 23 22 25 20 25 30 31 30 30 29 10 24 23 17 20 22 23 27 32 35 35 34 34 31 35 34 33 31 30 28 26 26 26 27 27 25 24 24 23 22
11 7 8 17 15 18 6 39 23 27 30 26 28 29 5 10 13 21 22 22 28 31 32 32 34 38 37 34 32 30 29 31 30 28 27 28 28 28 27 26 27 27 26 26
14 16 9 11 3 13 22 17 24 33 29 25 23 3 12 14 21 21 20 27 27 25 27 30 29 30 30 27 26 25 27 27 26 24 27 28 29 27 27 28 29 29 29 29
16 13 7 7 14 11 15 5 10 14 27 23 20 8 8 14 12 9 19 22 22 24 23 22 23 23 23 23 23 23 22 21 19 22 23 24 26 28 29 30 30 30 31 31
3 15 13 4 8 11 6 5 5 7 14 7 14 11 11 16 9 9 23 22 21 19 18 19 20 21 21 22 20 19 17 17 19 19 18 19 22 25 28 28 30 31 32 33
6 9 18 18 9 4 2 5 8 9 3 2 16 19 18 6 4 10 16 19 18 19 20 20 19 20 19 18 17 18 19 20 17 15 16 19 21 23 24 25 28 30 32 32
11 10 6 8 6 11 8 5 7 1 4 11 14 17 20 12 11 10 15 19 21 21 21 20 19 19 18 18 18 20 21 18 17 17 19 21 21 21 21 23 26 28 30 30
4 2 3 5 1 3 8 6 8 7 8 6 10 15 17 18 14 15 19 22 23 21 19 17 16 17 21 18 17 22 22 22 20 19 21 23 24 25 25 24 25 27 29 30
2 0 1 2 2 1 6 11 16 10 11 10 14 16 19 21 20 21 22 23 22 19 15 12 14 18 23 22 20 21 25 26 24 23 24 26 27 29 29 27 28 30 31 32
2 8 5 4 2 5 10 12 19 17 14 12 15 17 19 19 19 21 23 22 19 15 13 14 15 20 24 25 23 24 28 32 31 29 28 29 32 32 32 30 30 31 32 32
5 5 4 2 15 8 17 23 23 24 22 17 18 18 18 18 17 19 23 21 19 18 17 16 18 20 24 27 27 27 30 32 35 36 35 34 34 34 33 32 31 32 32 32

GFSCGP_850_spd_036.txt.gz
Wind_Speed
9 4 7 12 11 10 9 6 8 6 4 4 9 9 11 22 21 20 24 25 22 18 17 12 12 11 11 10 9 11 14 16 16 17 16 16 15 14 12 14 10 8 6 6
3 9 12 9 6 6 9 7 9 7 8 2 7 12 10 10 23 32 31 28 27 23 18 14 13 13 13 11 12 14 17 19 20 19 17 16 16 16 15 13 11 11 10 10
11 3 4 11 3 4 6 7 7 7 4 4 5 8 13 13 28 30 31 29 29 29 22 17 15 15 15 16 17 18 19 19 19 17 17 16 17 17 16 16 16 15 12 11
9 15 3 6 7 8 7 4 11 5 3 4 7 6 8 8 12 17 26 27 25 25 20 19 18 18 19 20 21 22 23 20 18 16 16 17 17 19 20 19 18 16 13 9
5 7 8 7 6 8 4 6 3 2 5 4 4 6 7 15 16 12 19 25 23 25 25 23 21 20 21 21 23 24 23 22 21 21 20 18 19 20 20 18 15 13 11 8
2 0 3 4 5 3 9 5 2 1 1 5 13 12 6 12 15 7 18 27 28 27 26 24 23 24 24 26 26 24 24 23 23 21 19 18 19 19 18 16 14 11 7 5
7 8 4 5 5 4 4 6 2 2 1 7 2 9 15 5 2 3 17 27 30 31 29 28 29 27 26 27 28 28 27 27 25 23 22 22 20 17 14 13 11 9 6 4
11 6 16 9 12 7 10 8 5 6 4 4 4 7 6 3 9 6 23 29 30 31 31 31 29 29 30 31 30 30 30 29 27 26 24 23 20 17 15 12 11 8 6 5
8 7 5 5 3 9 5 7 9 3 2 1 6 7 6 5 4 3 21 29 31 33 34 33 32 33 32 33 33 32 32 30 29 27 24 22 19 16 14 13 11 9 8 6
4 3 2 4 4 3 4 6 3 1 2 6 6 11 8 6 11 9 14 26 31 34 34 34 35 35 34 33 32 33 32 31 29 26 24 21 18 16 15 14 12 11 10 7
3 0 1 6 8 13 4 4 5 4 4 4 4 7 3 15 16 19 18 28 33 37 38 37 36 35 34 34 35 35 34 33 30 27 25 22 19 17 15 15 14 13 11 9
9 3 5 9 2 1 3 8 10 5 6 7 2 19 2 4 12 21 25 28 32 36 37 38 39 39 38 39 39 38 37 34 31 28 26 22 19 18 17 17 16 14 13 11
12 5 1 2 1 3 6 7 16 14 1 20 5 12 3 7 6 19 23 29 34 36 36 38 38 40 41 42 41 40 38 36 33 30 27 23 22 20 20 19 18 17 15 14
22 6 14 18 7 7 7 10 19 18 11 6 25 19 2 5 5 10 24 32 34 37 39 40 40 42 42 42 42 41 40 37 35 32 29 26 23 22 22 20 20 19 18 17
12 8 9 20 18 7 7 11 21 25 27 15 27 24 20 12 13 23 26 30 33 36 38 42 42 42 41 40 41 40 40 39 37 34 31 27 24 23 23 23 22 21 21 20
2 8 13 23 18 9 14 18 19 23 24 27 32 34 5 19 29 21 29 32 31 37 42 42 40 40 39 39 40 40 40 40 37 35 31 27 25 24 26 26 24 23 23 23
8 5 5 21 8 8 10 38 22 24 24 25 26 37 12 15 14 23 31 35 36 38 40 40 39 37 36 37 37 38 38 35 36 34 30 27 25 26 28 25 25 26 26 24
10 15 6 12 4 12 20 5 27 29 30 25 29 24 9 16 30 36 35 41 39 37 34 32 31 31 33 34 33 31 30 32 31 29 27 26 27 26 26 26 27 27 27 26
14 12 7 8 13 16 20 3 11 14 30 27 28 21 12 13 14 7 24 33 33 28 23 17 21 30 30 32 32 29 27 28 26 25 24 23 24 25 26 27 27 27 27 28
14 20 12 5 8 13 6 3 4 5 20 14 18 21 11 19 11 6 24 21 17 11 16 24 24 24 24 26 30 29 27 25 23 20 18 17 19 22 24 25 25 26 27 28
8 11 21 18 15 6 4 5 4 8 7 3 4 15 22 10 6 17 15 10 15 25 25 21 22 22 22 22 24 23 21 20 15 14 14 15 15 16 18 20 23 25 26 28
12 10 10 10 11 15 8 1 10 1 3 3 9 12 16 13 14 11 14 22 26 26 24 22 22 22 21 19 19 19 17 13 14 15 16 15 17 19 20 22 23 23 24 26
4 1 3 4 2 2 1 3 7 5 8 7 7 10 16 17 17 20 23 24 24 22 21 20 20 20 18 17 15 15 14 15 17 19 19 17 17 19 21 23 24 25 26 27
2 2 1 3 4 2 4 1 6 9 9 5 4 3 14 16 17 19 20 22 22 22 21 19 17 15 15 16 18 15 13 16 20 22 22 21 21 22 25 27 29 31 31 30
1 4 4 2 1 1 8 7 10 9 10 5 3 5 6 8 12 14 19 20 20 20 19 17 14 13 14 17 19 19 16 18 23 25 26 26 26 27 28 30 31 32 32 31
5 4 3 3 9 4 10 20 20 20 15 9 7 7 7 8 11 14 14 15 18 19 18 15 12 12 13 15 18 22 22 22 25 29 30 29 29 30 31 31 32 34 34 33

GFSCGP_850_spd_039.txt.gz
Wind_Speed
5 4 7 12 9 6 3 3 3 4 4 4 9 9 10 20 22 22 27 31 30 29 25 22 18 17 15 14 13 13 14 17 20 22 22 21 19 16 14 12 13 12 12 10
3 8 10 7 7 8 7 7 7 5 4 5 6 11 9 9 16 32 36 38 38 33 31 27 22 20 17 15 14 15 17 21 22 21 22 21 20 18 17 17 15 12 11 11
8 7 8 8 5 6 6 6 5 7 1 3 5 7 8 10 29 28 36 41 42 44 40 32 26 23 21 20 19 19 22 25 24 22 22 22 22 21 20 18 16 16 15 14
9 13 3 5 7 8 7 4 6 5 1 5 4 8 6 7 10 10 34 40 43 45 38 32 28 26 25 24 23 24 26 26 25 24 23 23 22 24 22 20 20 20 18 15
9 8 7 8 7 8 7 3 2 3 3 1 3 5 6 8 11 20 22 32 40 44 43 37 32 27 26 28 28 29 29 27 26 25 26 25 25 24 24 24 23 21 18 14
5 2 6 8 2 3 8 5 6 5 3 3 9 10 4 7 10 9 7 27 38 42 41 34 29 28 29 30 30 31 31 30 28 28 27 26 25 27 28 27 24 20 16 12
2 4 3 6 5 5 4 7 2 3 1 8 4 6 13 10 8 6 12 28 37 40 39 35 33 33 33 34 34 32 32 31 30 28 28 27 26 26 27 25 22 19 15 11
10 6 12 7 9 9 8 9 6 7 5 5 2 7 6 9 15 12 15 25 35 38 38 37 34 33 34 34 34 34 33 33 32 30 28 27 28 28 25 22 20 17 14 12
7 6 3 2 5 12 5 7 3 2 2 1 6 8 8 6 8 3 12 27 38 40 39 36 32 33 34 35 36 35 34 33 33 31 31 32 31 28 25 22 20 18 15 14
5 3 1 1 4 3 7 7 2 1 3 6 5 7 11 6 13 8 11 20 28 36 37 35 33 35 35 35 34 34 34 35 34 34 33 33 30 27 24 21 20 19 17 15
6 5 2 5 8 13 5 5 5 3 5 5 3 7 7 12 14 14 16 29 35 38 38 37 36 36 36 35 36 36 37 37 37 36 35 33 30 27 24 21 20 19 18 16
14 3 4 9 4 5 6 8 7 5 6 4 3 18 3 3 9 16 21 29 34 36 37 37 37 38 38 38 39 39 40 40 39 37 35 32 29 27 24 22 22 20 18 16
10 5 2 4 3 2 6 8 15 5 3 9 5 14 3 2 4 16 22 30 34 36 37 39 39 41 41 41 42 42 43 42 40 38 36 34 31 28 25 23 22 21 20 18
23 6 14 17 5 7 7 12 17 20 8 8 24 24 3 3 6 9 21 27 32 36 39 40 41 43 44 45 45 45 44 43 42 40 38 36 33 28 25 23 22 22 21 20
15 12 9 19 4 7 8 15 20 23 29 13 24 24 21 14 13 21 24 22 27 34 39 43 46 47 47 48 47 46 46 44 43 41 40 37 32 29 26 24 23 23 23 22
5 13 12 17 9 8 8 13 24 26 27 27 29 34 7 18 24 20 29 30 33 37 43 46 47 48 49 49 49 49 49 47 45 43 41 37 33 31 27 25 26 25 25 25
6 9 6 22 10 6 9 37 21 20 21 21 25 36 10 19 17 22 29 35 42 44 45 48 51 50 48 47 48 48 47 48 44 43 40 36 34 31 28 27 27 26 27 26
9 12 5 12 6 12 24 8 27 30 28 23 26 32 16 23 32 37 38 40 43 46 45 46 47 46 44 43 42 40 41 45 41 42 39 36 34 31 30 28 27 28 28 27
18 15 7 9 14 12 20 7 12 13 29 29 29 32 31 27 21 30 35 43 44 45 47 46 43 40 39 35 31 33 36 33 35 38 37 34 33 32 30 29 29 28 28 28
15 18 12 5 9 13 17 4 8 6 21 15 25 28 24 13 11 21 33 29 33 35 36 34 31 27 26 27 29 30 30 30 32 31 29 28 28 28 27 26 26 26 26 25
16 15 18 17 13 7 6 6 15 9 8 3 2 14 12 11 21 16 17 22 24 23 24 21 20 22 21 24 26 32 26 29 25 22 23 23 23 22 21 22 23 23 24 25
14 10 15 13 15 20 7 4 15 4 3 4 1 5 10 16 11 14 21 21 21 18 19 16 14 16 19 22 26 26 25 21 19 19 20 21 21 20 19 19 20 22 24 25
4 2 3 6 3 2 2 2 5 6 8 7 5 4 11 14 15 19 19 16 15 12 11 16 22 23 21 19 19 20 18 19 20 20 20 20 19 18 17 19 20 22 24 25
3 2 1 1 2 2 3 4 5 10 11 11 11 5 6 10 12 13 12 12 18 19 18 18 17 17 18 18 17 15 15 16 17 18 19 20 20 19 18 20 21 23 25 27
2 4 4 1 2 2 9 10 9 3 3 6 8 4 1 4 8 9 14 14 14 15 15 16 16 16 14 14 15 16 16 15 17 18 21 22 22 22 22 22 23 25 27 29
6 6 5 3 8 4 6 19 19 17 9 2 3 4 2 4 7 9 12 13 15 16 16 16 14 11 11 12 14 16 17 17 17 19 23 25 25 25 25 26 27 29 30 31

GFSCGP_850_spd_042.txt.gz
Wind_Speed
3 4 7 12 10 5 4 4 4 3 4 5 8 9 11 18 21 25 27 32 35 35 30 29 29 27 25 23 21 19 20 22 24 26 27 26 24 22 19 17 13 16 15 13
4 8 11 6 5 6 4 4 7 6 4 6 7 11 10 9 15 31 36 37 40 38 35 35 34 31 27 24 22 21 21 22 25 25 27 26 25 24 21 18 17 18 17 15
8 6 6 8 5 6 6 7 5 8 1 3 3 7 10 11 23 31 35 41 41 46 43 42 40 36 30 28 26 24 23 24 26 29 30 29 27 25 24 23 21 20 18 17
6 7 5 5 6 8 7 7 6 4 2 5 3 8 5 6 11 10 33 36 44 43 45 44 42 38 34 31 26 25 25 28 29 31 30 29 30 30 27 25 23 21 21 21
9 7 9 7 7 9 7 4 4 2 3 2 3 4 6 4 8 15 28 31 39 41 47 48 47 40 35 31 30 28 29 30 31 31 29 30 30 27 27 26 25 26 26 23
4 1 6 7 3 6 5 5 6 4 3 4 9 8 5 7 12 8 15 21 29 36 43 46 47 42 36 33 32 31 32 32 32 31 31 30 30 29 30 30 30 30 28 24
2 4 2 4 5 3 4 7 2 3 1 8 2 5 14 9 10 11 15 23 16 27 38 43 48 45 40 38 36 36 36 36 34 33 32 32 31 29 29 31 33 32 28 23
9 7 12 7 10 8 8 8 6 7 5 5 1 7 6 13 22 16 28 30 22 21 31 40 45 46 42 39 38 39 38 38 36 35 34 33 31 31 31 33 33 29 24 21
7 6 1 1 4 11 6 8 4 1 1 1 6 8 7 10 10 16 25 18 18 23 29 36 43 43 40 38 39 40 39 39 38 36 34 34 33 32 34 34 30 26 23 21
6 2 1 2 4 3 6 8 2 2 2 6 6 6 8 5 12 14 13 18 19 23 30 35 40 40 38 37 38 39 39 39 37 37 36 35 34 33 35 34 31 28 24 21
4 4 1 4 7 11 3 5 4 5 5 5 2 7 7 13 12 12 14 29 27 25 32 37 39 38 36 36 37 39 41 41 40 39 38 37 35 36 37 34 31 27 24 22
9 3 5 9 3 2 1 4 7 5 6 6 3 18 5 5 6 11 18 21 23 27 29 34 36 36 36 37 39 41 42 42 42 40 39 37 37 40 38 34 31 28 25 23
9 4 2 5 4 2 6 8 16 2 3 15 5 13 3 6 5 11 17 17 20 24 27 32 35 38 38 39 40 42 43 44 42 41 40 40 41 41 38 35 32 29 27 26
21 6 11 16 6 7 7 10 12 18 10 10 20 21 6 5 7 8 14 16 18 22 26 31 36 39 40 41 43 43 45 44 43 42 42 42 43 41 37 34 32 30 29 27
14 13 18 25 7 5 5 15 22 24 33 11 34 20 24 13 10 19 22 19 19 23 27 31 37 41 42 42 45 46 46 44 45 44 44 44 42 39 36 34 32 31 29 28
3 15 18 23 19 9 11 11 25 29 30 26 32 31 4 9 17 14 28 31 27 30 33 34 37 40 44 46 49 49 48 47 47 47 46 45 42 39 38 35 33 32 31 30
8 13 11 19 14 4 6 39 12 15 21 19 23 39 6 13 14 25 31 32 35 37 40 42 42 43 45 48 51 53 49 49 48 48 47 45 43 40 40 35 34 34 33 31
7 16 10 11 6 12 24 14 25 26 24 20 24 30 13 19 31 37 29 31 38 42 42 42 43 44 45 47 50 47 50 51 49 48 46 44 43 40 39 37 36 35 32 31
16 13 7 8 15 10 17 7 9 11 27 30 27 30 35 34 27 44 40 51 50 45 40 39 42 44 42 45 45 46 48 46 44 46 45 44 41 40 41 39 36 34 32 29
19 17 12 4 8 12 27 8 24 7 17 12 23 31 28 11 9 21 31 28 32 32 36 37 36 34 36 36 39 41 36 36 39 40 39 38 39 41 41 36 34 31 30 32
15 16 21 18 12 6 5 5 20 10 10 3 9 21 11 10 18 14 6 11 15 19 24 24 22 23 26 27 29 30 28 25 23 25 25 31 38 40 35 31 29 31 32 29
10 9 10 10 11 15 5 2 13 5 3 4 2 4 6 14 19 22 14 13 15 12 12 14 16 17 18 18 19 18 17 18 20 20 23 29 30 30 27 30 30 27 27 27
6 7 4 7 5 2 4 3 5 5 7 6 5 3 1 1 3 6 8 10 12 14 14 14 13 14 15 11 11 13 19 21 21 23 23 24 26 28 27 26 26 26 26 26
4 4 3 2 5 3 2 5 6 11 13 12 10 8 7 6 6 9 11 12 12 12 9 7 10 11 15 18 17 14 15 18 19 21 23 24 24 25 25 25 24 24 23 24
3 7 5 3 3 2 10 12 11 10 8 9 10 6 3 2 5 6 5 5 8 9 10 10 11 13 14 16 16 16 16 17 18 19 20 22 23 23 23 22 21 21 22 24
5 5 4 4 8 3 5 28 20 11 8 6 4 4 5 5 5 4 7 9 11 12 13 14 15 15 15 14 14 15 16 16 16 17 19 20 21 22 23 23 23 24 25 26

GFSCGP_850_spd_045.txt.gz
Wind_Speed
2 3 7 12 9 4 5 4 5 4 3 4 7 10 13 15 17 22 27 30 35 37 33 32 33 33 33 32 29 26 25 24 26 28 28 29 28 25 24 21 18 20 20 19
4 7 10 4 3 3 2 3 6 5 4 5 8 12 11 7 14 31 35 36 40 40 40 37 38 38 37 35 32 29 27 26 27 29 29 29 28 27 24 22 18 17 20 19
8 5 5 8 4 5 5 6 5 8 3 3 5 8 9 11 22 30 32 41 42 45 46 44 43 43 39 38 36 32 29 27 28 31 30 30 30 28 28 25 21 22 21 19
6 4 6 5 5 8 6 8 6 5 2 4 2 6 6 6 11 9 33 38 46 48 47 44 45 47 44 41 37 33 30 29 31 31 32 31 33 34 30 26 22 24 22 20
8 7 7 6 7 8 7 4 6 2 3 3 4 4 4 1 8 13 24 41 41 40 41 44 44 47 46 43 39 35 32 32 31 32 31 31 32 30 29 27 25 26 24 23
4 1 6 7 2 6 7 5 5 4 2 4 9 9 6 7 9 6 21 36 31 26 29 33 35 39 48 43 39 36 35 34 33 34 34 33 32 32 33 31 30 29 28 28
2 5 3 4 5 2 4 6 2 4 1 8 4 5 18 9 10 13 15 30 27 19 18 22 29 36 44 46 42 40 38 37 36 36 35 35 34 33 32 31 32 32 33 34
9 7 11 7 9 8 8 8 6 7 4 5 3 7 6 10 20 25 29 34 31 27 21 23 25 31 38 45 44 42 40 39 39 38 37 36 35 34 34 31 32 33 34 33
7 6 2 2 3 10 5 6 4 1 2 2 6 9 8 11 13 15 28 25 28 22 20 22 25 27 34 44 46 43 41 41 40 39 38 38 37 36 35 34 33 34 35 33
5 3 1 1 3 2 6 7 3 2 2 5 6 7 8 6 9 15 11 24 27 20 17 19 22 25 30 39 43 42 41 41 40 40 41 40 39 37 36 36 35 37 37 34
4 4 1 3 7 11 4 5 2 4 5 5 3 9 8 14 10 10 12 26 22 17 16 17 19 22 26 35 42 41 41 41 41 43 42 41 39 38 37 37 38 40 38 35
9 4 5 9 1 2 2 1 9 4 6 5 2 18 3 8 10 12 20 16 12 11 12 14 18 22 26 34 40 41 40 42 43 44 42 41 38 38 39 40 42 42 39 35
9 4 1 5 3 4 5 7 10 2 3 17 4 16 4 2 4 13 14 12 10 9 13 15 19 24 29 34 38 40 41 43 44 44 43 42 41 41 42 42 44 43 40 36
15 5 9 15 4 5 5 7 12 14 7 14 18 31 7 4 7 8 15 12 13 13 15 17 19 24 30 34 38 40 41 43 45 46 46 44 44 44 43 44 46 44 40 37
9 8 7 19 15 5 7 8 17 23 32 13 35 18 24 14 12 19 26 31 26 21 20 23 25 27 30 35 38 40 42 44 46 48 48 47 45 44 44 46 46 44 41 38
3 8 12 24 25 17 17 9 20 27 29 24 34 31 4 5 9 15 30 34 32 29 28 31 32 32 33 35 38 41 43 46 47 48 49 47 46 45 45 47 46 43 40 39
11 7 7 14 17 12 7 31 25 16 20 23 24 38 5 18 16 24 31 30 34 37 38 36 36 38 38 38 38 40 44 46 48 48 49 48 46 45 45 45 44 41 40 38
8 14 7 9 4 12 21 20 21 22 26 20 23 34 20 23 35 37 30 32 40 39 38 38 37 40 39 39 38 37 42 46 47 48 49 47 45 44 43 42 41 40 38 37
18 15 9 8 16 13 11 11 9 10 24 25 29 28 31 38 26 43 36 42 45 45 44 40 37 38 39 39 37 36 38 43 45 48 50 48 44 42 41 41 40 38 34 36
16 15 11 5 9 13 23 10 19 7 13 21 20 28 28 14 9 22 18 19 21 20 19 21 23 26 30 32 32 33 35 37 44 48 47 41 40 41 41 39 37 32 36 34
20 17 22 17 11 5 7 3 13 9 9 5 4 17 20 10 15 13 6 10 14 19 20 17 15 16 19 21 23 25 28 32 33 33 35 37 37 36 36 35 34 30 32 34
8 5 11 12 12 16 3 4 11 4 4 4 3 4 6 11 16 20 16 13 20 17 9 6 5 7 8 10 12 16 18 19 21 22 23 26 29 32 37 36 31 30 30 34
6 7 5 8 5 4 6 1 2 2 2 1 0 2 2 3 4 5 3 2 3 4 6 8 7 9 11 10 7 7 9 10 13 15 15 17 20 23 25 23 25 30 36 35
4 3 5 2 5 5 13 12 8 9 9 7 7 9 8 6 7 10 9 11 15 16 14 13 13 12 11 10 8 7 6 6 9 11 13 15 16 18 20 23 28 30 31 33
3 7 4 4 2 2 13 16 16 14 12 11 8 4 6 8 12 10 9 9 9 7 7 6 5 6 8 11 11 11 11 11 12 13 14 16 18 20 22 24 25 25 25 25
6 6 6 5 7 4 3 25 21 15 11 7 5 3 4 4 6 10 7 6 7 8 10 11 10 9 11 11 11 10 10 9 9 10 11 12 14 17 19 20 22 23 23 24

GFSCGP_850_spd_051.txt.gz
Wind_Speed
2 4 7 11 5 3 5 3 4 4 3 3 7 10 12 27 20 26 28 30 32 33 28 29 32 32 34 35 35 34 34 32 31 29 29 29 30 31 28 26 25 27 27 27
5 7 6 6 6 4 3 2 6 5 2 4 6 15 12 15 25 29 35 38 39 38 37 35 32 34 37 37 37 36 36 35 33 31 29 30 31 31 27 27 27 28 27 27
7 4 6 7 4 6 4 5 4 6 3 3 6 8 7 6 20 30 38 42 42 43 43 40 37 35 36 39 40 39 37 36 36 35 32 32 31 32 32 33 32 31 29 30
5 3 5 4 5 7 4 7 4 2 3 4 2 5 8 7 8 8 27 30 35 39 41 41 41 38 38 40 40 41 40 39 39 37 36 35 36 38 38 34 31 31 30 32
8 8 6 4 7 7 6 5 7 3 3 3 2 3 8 3 8 11 21 35 36 36 32 29 29 30 30 34 37 41 43 43 42 40 38 37 36 36 33 32 33 34 31 31
4 1 6 7 3 2 10 6 6 4 2 4 9 7 5 5 7 6 11 24 22 19 17 15 15 18 20 24 29 35 43 45 45 41 40 39 38 38 36 36 35 35 32 30
1 4 3 4 6 4 1 6 1 3 1 8 2 4 12 7 9 8 14 29 24 19 15 12 12 13 15 17 21 27 36 44 46 43 41 39 38 37 37 36 35 36 34 33
8 6 11 7 9 9 9 8 6 7 4 4 3 8 7 9 17 27 30 32 29 23 16 15 12 13 14 17 20 23 28 37 44 44 42 41 39 37 38 37 34 35 34 32
6 6 1 3 2 9 6 8 2 4 2 2 5 9 9 8 12 19 30 22 25 22 15 12 13 10 11 13 16 19 24 30 38 43 42 41 39 39 38 38 37 33 35 33
5 3 1 2 3 2 4 6 3 1 3 4 6 6 9 5 7 10 7 14 15 10 11 9 8 9 10 11 13 16 21 26 31 39 42 41 40 38 37 37 37 35 36 37
5 4 1 3 6 10 3 4 2 4 4 5 2 8 7 8 7 9 9 7 4 2 3 7 6 5 6 8 11 13 18 23 28 36 40 40 39 37 37 38 37 36 35 36
6 4 5 9 1 1 1 4 6 4 5 3 2 12 3 6 5 5 10 8 6 1 5 7 7 7 7 5 8 12 15 20 24 32 38 39 38 39 39 40 38 37 38 38
8 4 1 6 2 3 5 6 6 4 3 8 7 13 1 5 6 8 11 8 7 8 10 13 9 8 10 10 11 13 15 19 22 29 36 39 40 41 40 41 39 38 39 40
14 5 8 12 6 5 5 5 11 13 4 21 10 30 20 3 4 8 14 21 30 32 29 23 23 19 18 17 15 17 19 23 25 28 34 39 42 42 42 40 41 40 40 41
9 10 15 21 16 5 8 5 10 17 26 16 30 22 33 17 12 22 31 34 34 38 38 36 34 35 29 21 19 24 25 28 29 30 34 39 41 42 43 42 43 42 42 42
4 13 11 18 18 19 13 8 13 22 25 18 29 26 30 21 24 18 27 28 36 39 38 39 41 40 32 31 31 32 33 32 32 33 35 38 41 42 43 43 44 43 44 44
5 2 5 17 17 7 9 26 26 19 16 18 20 33 18 20 17 28 27 31 38 42 42 42 44 45 41 39 36 35 32 32 32 33 35 37 40 42 43 44 44 45 44 44
6 14 10 10 8 17 16 11 22 27 29 25 20 25 29 31 42 41 33 35 39 40 40 40 39 40 34 28 27 26 28 29 29 31 34 36 38 41 42 43 43 44 44 44
15 14 6 8 15 17 4 10 14 11 25 22 25 30 40 36 23 42 36 36 40 39 35 30 27 23 19 17 17 19 21 22 25 26 28 31 35 38 40 42 42 42 43 43
21 19 11 6 9 13 13 27 13 7 12 23 20 25 27 12 9 20 11 11 10 10 10 9 9 10 17 19 19 17 16 17 19 20 21 23 27 31 34 36 37 38 39 40
7 9 22 23 18 9 8 6 11 11 10 5 24 33 28 11 17 16 10 10 13 11 13 15 17 17 14 12 12 11 11 10 10 12 13 14 17 20 24 29 32 33 35 34
13 9 12 10 16 24 2 4 12 6 6 6 9 14 17 20 20 23 20 15 16 19 13 8 6 5 3 3 3 4 4 4 4 4 5 7 8 11 17 21 24 27 24 23
7 9 3 6 1 2 17 22 29 27 18 19 17 18 17 14 12 10 10 7 6 6 6 5 5 6 8 9 11 9 11 11 8 8 7 6 7 9 12 16 18 20 21 20
6 12 5 4 6 16 28 34 31 41 33 29 20 15 15 14 10 7 7 7 10 12 14 16 16 17 17 16 16 14 15 16 15 14 13 10 7 7 7 10 14 15 16 19
7 3 6 12 14 14 27 28 34 37 32 29 23 17 16 14 11 11 14 16 17 18 17 14 14 16 18 17 16 15 14 12 12 11 11 12 13 13 13 12 12 12 14 16
8 16 9 13 7 8 11 16 19 30 33 26 20 15 10 12 15 17 19 16 16 17 16 13 12 13 14 11 10 10 10 11 8 6 6 7 7 7 7 8 10 12 14 15

GFSCGP_850_spd_054.txt.gz
Wind_Speed
2 5 10 13 10 0 3 2 5 2 0 3 11 18 18 24 21 23 26 26 26 30 29 27 28 31 34 36 37 37 36 35 35 36 34 34 34 34 35 36 34 31 32 33
4 10 8 5 6 4 4 5 9 3 1 5 10 21 19 24 29 25 28 30 32 33 32 35 34 32 34 36 38 39 39 37 37 37 36 34 34 34 34 35 33 32 31 33
11 2 7 8 7 8 7 10 7 6 1 7 9 15 11 7 18 23 30 33 33 36 33 26 34 36 35 37 39 39 39 39 38 38 38 38 35 34 34 37 34 34 33 33
7 5 5 7 8 10 9 10 4 3 3 5 2 8 18 13 15 14 25 26 30 29 26 29 31 36 36 36 36 39 41 41 40 40 41 39 38 37 37 38 36 34 32 32
5 10 9 7 5 13 2 4 4 1 4 5 7 6 9 2 9 15 21 24 25 23 23 25 26 26 25 31 36 37 39 42 43 43 43 40 39 38 38 38 37 35 36 35
0 1 3 2 3 4 12 6 4 2 2 8 6 8 7 7 5 3 7 12 12 11 10 10 12 17 20 23 28 31 35 40 44 46 45 44 42 41 39 38 39 39 38 38
3 5 3 4 7 4 5 9 3 4 4 9 4 7 11 9 12 7 14 23 10 15 14 14 11 10 12 14 19 24 30 35 40 45 46 46 43 41 40 39 40 41 41 42
12 10 13 10 13 9 12 9 6 6 5 5 2 10 6 9 12 18 23 28 24 24 19 13 11 11 13 15 17 20 23 26 32 38 43 43 42 42 39 40 40 40 40 38
8 8 2 1 2 11 7 10 8 6 2 4 9 18 17 14 16 19 26 15 19 21 21 14 9 10 10 11 12 14 18 21 27 29 35 42 43 43 41 40 39 38 38 36
4 6 1 3 2 1 7 7 4 5 6 8 11 12 14 5 6 7 3 8 11 12 11 16 14 8 7 8 10 11 13 16 20 22 27 36 41 41 40 39 39 40 38 36
9 4 2 3 10 14 6 8 3 3 4 5 5 9 5 8 7 6 5 7 4 5 0 7 8 5 6 6 8 8 8 11 15 18 24 30 37 39 39 39 38 41 37 39
5 2 7 9 1 2 4 11 17 6 6 4 3 13 6 5 3 4 7 6 5 3 5 2 5 6 5 8 10 10 9 11 14 17 20 26 32 37 39 40 40 39 40 40
8 3 3 3 3 2 7 9 14 15 2 10 10 12 2 4 9 15 15 8 4 1 10 15 13 13 16 14 12 17 17 13 14 18 23 24 29 37 40 41 40 40 40 42
13 8 10 14 9 3 8 12 18 17 9 20 17 28 26 12 7 8 8 12 17 19 29 27 30 31 28 28 21 20 22 20 19 20 25 28 30 35 39 41 40 39 40 41
6 13 20 25 22 7 7 8 16 20 25 18 26 25 34 20 19 26 28 33 38 37 41 39 44 44 40 36 33 29 22 26 26 26 28 31 31 34 38 41 40 39 38 40
5 5 9 18 19 18 18 19 20 24 26 22 31 28 34 33 30 20 23 24 27 34 42 45 46 45 41 40 37 33 28 27 29 30 32 33 34 34 37 39 40 40 39 41
7 5 5 13 17 17 13 27 29 25 24 25 22 33 24 25 20 25 31 25 31 34 41 44 43 43 41 36 36 34 33 32 34 34 32 31 33 33 34 36 39 40 40 41
10 7 4 7 10 17 13 18 21 28 28 27 24 27 31 32 33 42 29 28 40 44 44 44 45 39 37 35 33 32 29 27 28 28 28 27 30 31 32 35 38 39 39 40
14 14 10 8 16 15 10 12 16 15 27 24 26 30 38 42 32 41 45 38 43 42 37 33 32 29 25 21 19 19 19 21 22 22 22 23 25 28 30 33 35 37 38 39
20 20 12 11 13 20 18 19 21 5 14 21 19 23 27 33 14 21 28 26 19 21 18 17 15 14 12 12 17 21 20 18 18 17 17 18 20 22 24 26 29 32 33 34
5 8 20 21 18 10 5 12 6 7 5 18 15 28 30 18 23 32 18 18 17 16 16 16 16 19 21 19 17 16 15 14 14 13 13 13 14 14 16 18 22 24 26 28
8 5 9 10 12 20 4 1 10 5 22 20 20 17 21 25 29 28 29 22 19 19 19 18 18 15 12 11 10 8 8 8 8 8 8 8 8 9 10 12 15 17 19 21
13 12 10 6 2 5 9 8 18 28 18 29 25 28 25 28 28 21 22 18 15 15 14 11 10 10 9 7 6 5 5 4 3 3 4 4 4 5 5 6 9 11 13 15
16 7 7 2 4 7 13 27 27 34 32 35 36 35 37 35 32 27 20 17 12 12 12 11 11 12 13 13 14 11 9 10 11 12 13 14 12 11 11 10 8 7 7 8
8 5 2 10 15 25 34 35 30 35 34 32 35 43 42 30 31 26 21 15 13 15 17 18 17 15 15 15 15 16 16 16 15 14 14 14 12 12 13 12 11 10 7 7
17 19 13 15 23 19 29 23 15 19 28 38 35 42 42 31 29 24 21 19 21 23 20 19 18 19 17 15 14 13 12 13 13 13 11 10 9 8 7 6 6 6 6 6

GFSCGP_850_spd_060.txt.gz
Wind_Speed
4 3 6 9 9 6 4 7 6 4 3 1 7 12 11 19 19 19 23 26 27 30 26 25 28 31 30 33 33 35 37 37 36 36 37 38 38 36 35 35 31 30 32 35
3 5 8 3 5 3 1 6 7 6 6 1 8 13 10 14 18 27 28 29 30 29 27 27 28 29 32 32 35 37 39 39 38 38 39 39 37 37 36 37 36 35 35 37
5 1 5 5 2 2 4 6 7 5 3 6 4 10 7 10 24 27 30 33 32 31 26 23 26 31 32 32 34 37 40 40 40 38 38 38 38 38 39 41 40 39 41 41
6 4 4 4 5 6 5 4 6 4 4 3 3 6 4 10 8 10 24 22 22 21 21 22 24 21 33 32 29 32 36 39 39 38 40 41 41 41 41 40 39 38 41 45
4 6 5 4 5 6 2 3 3 3 3 5 4 2 8 7 7 7 14 20 17 10 12 13 14 18 22 23 28 28 31 36 38 39 40 40 41 41 41 40 38 38 38 39
2 1 2 3 4 3 7 4 3 2 2 5 10 9 4 6 6 3 3 4 3 3 6 9 14 17 18 23 24 26 27 30 34 38 39 40 41 41 41 41 41 40 38 37
6 5 3 3 5 5 2 4 1 2 0 7 3 5 11 8 10 5 6 10 7 4 6 8 11 12 13 16 18 19 22 26 29 33 36 38 39 40 41 40 42 41 41 40
8 4 10 7 7 8 9 7 5 6 4 3 6 7 6 9 7 8 9 14 10 11 10 13 10 12 12 12 13 14 16 19 23 25 29 31 34 38 40 39 42 42 42 39
5 6 2 4 2 6 5 7 3 4 2 3 5 7 7 6 7 9 13 15 14 9 7 10 10 12 14 12 11 11 11 12 15 18 20 25 28 31 34 35 38 41 41 39
2 5 3 3 3 4 3 1 3 2 2 4 7 7 8 2 8 10 4 3 3 7 8 6 7 11 9 6 5 5 6 7 9 12 16 19 22 24 25 28 32 36 37 38
4 4 1 3 6 8 3 4 3 3 5 5 5 7 3 2 6 8 6 6 3 4 8 9 6 2 2 2 3 7 11 13 15 16 16 17 19 21 23 26 28 31 33 35
2 2 5 7 3 3 2 6 7 4 3 3 2 15 2 7 7 10 4 6 14 9 3 9 10 9 9 9 10 19 21 16 19 24 27 25 24 23 24 25 27 29 32 34
3 2 2 3 1 3 3 4 5 6 2 7 6 11 6 3 8 4 1 3 5 5 5 15 17 22 27 31 28 29 27 27 28 28 31 28 28 29 26 25 27 29 31 32
9 4 6 6 5 4 3 3 4 6 3 16 13 21 21 9 8 10 20 13 10 11 12 19 29 33 39 35 32 33 30 31 36 31 29 32 31 34 30 28 28 29 30 31
6 7 9 11 13 11 9 8 13 14 14 8 19 16 30 16 13 17 22 24 26 28 28 28 33 38 39 40 35 32 34 38 40 33 31 29 33 35 32 32 31 30 31 31
6 3 8 9 12 12 15 15 18 20 23 21 28 26 29 34 29 28 30 23 28 27 28 28 29 32 37 38 38 36 37 39 39 36 37 31 29 32 33 32 31 30 31 31
5 4 4 11 4 6 9 20 16 20 21 21 20 24 11 13 15 24 24 29 34 34 37 37 36 36 34 34 34 34 36 35 35 36 34 31 31 32 32 32 31 31 30 29
3 3 3 4 3 10 8 2 11 15 16 13 15 16 24 26 37 38 27 31 36 36 36 34 34 34 34 35 37 38 38 36 34 32 29 29 30 30 30 30 30 28 27 27
13 5 3 4 5 9 16 15 3 6 14 7 12 17 26 20 20 26 15 10 20 23 23 25 28 30 29 31 32 31 26 23 21 20 21 22 22 23 24 24 23 23 23 23
14 15 9 7 4 6 18 14 14 5 11 8 6 7 9 19 7 10 21 32 32 29 29 29 28 30 29 29 29 27 25 23 25 24 22 20 20 19 18 18 18 18 17 17
4 3 14 14 12 7 9 16 13 5 8 2 10 14 16 5 9 27 32 33 31 32 29 29 29 31 31 31 31 29 27 26 24 21 19 17 16 15 14 14 14 13 12 12
7 5 4 4 7 13 4 4 7 2 5 16 18 20 21 26 32 32 32 35 37 36 34 32 32 34 34 31 30 28 24 21 18 17 15 14 13 12 11 10 8 7 7 7
4 7 4 8 5 3 2 7 7 7 5 16 20 25 29 29 31 34 37 40 42 39 37 37 34 33 33 32 26 23 19 18 16 13 11 9 8 8 7 6 5 6 7 8
4 4 2 3 8 14 17 14 17 17 23 18 25 30 32 29 30 36 40 44 43 42 42 37 35 31 30 28 25 20 18 15 11 9 8 7 6 6 7 9 10 9 9 8
5 3 2 5 10 9 19 21 20 28 27 24 28 30 30 27 34 37 43 45 45 44 38 36 33 29 27 25 19 17 13 11 11 9 9 10 12 13 13 14 15 13 15 15
9 9 6 9 17 11 19 27 30 35 31 34 34 41 43 36 36 38 39 37 35 35 33 31 29 27 24 22 17 17 14 11 12 13 14 14 15 16 16 15 17 16 13 12

GFSCGP_850_spd_063.txt.gz
Wind_Speed
3 4 6 10 8 6 4 3 0 2 2 3 6 7 12 25 23 24 30 31 29 28 24 22 26 28 29 28 31 34 37 36 36 36 37 42 41 38 36 36 34 33 37 36
5 4 8 6 6 5 2 2 3 1 1 2 4 12 10 18 22 28 33 34 32 30 28 26 27 28 31 30 30 33 38 39 38 38 36 40 42 40 39 36 36 35 36 37
6 3 8 5 2 4 2 4 3 2 3 2 2 9 6 6 10 18 23 28 30 32 30 26 25 29 30 33 31 30 34 38 39 38 37 37 39 39 40 41 40 40 41 40
5 4 5 3 3 4 2 1 5 3 4 3 4 6 5 7 11 7 17 22 25 24 21 19 23 27 29 31 30 30 29 32 35 37 39 40 41 42 41 42 41 40 40 42
7 6 5 3 4 6 5 0 3 3 2 2 2 1 7 5 6 10 15 10 6 6 9 12 12 13 21 22 27 28 28 29 33 37 40 40 40 41 40 39 39 40 40 41
3 2 3 6 3 1 7 5 6 5 3 3 8 8 5 4 6 2 4 6 5 3 2 3 6 12 14 15 19 23 27 30 31 34 37 39 39 39 38 39 39 39 39 38
2 2 1 4 6 7 4 6 1 3 2 6 3 2 6 8 9 3 5 5 2 2 2 5 9 11 12 13 15 19 23 24 25 28 31 33 34 35 36 37 39 39 39 41
6 4 9 6 7 8 7 7 5 7 4 5 3 6 5 10 14 3 2 2 1 6 9 10 10 9 9 10 13 15 17 18 19 21 23 25 28 30 32 34 34 37 38 38
6 5 2 3 4 8 5 5 5 4 2 3 5 6 8 7 9 15 13 5 8 7 8 8 7 8 6 7 7 7 10 10 11 13 16 18 21 24 26 27 29 31 33 35
4 3 3 2 2 4 6 5 3 2 1 4 4 5 6 7 12 9 6 8 8 10 11 9 6 4 5 4 2 2 4 6 7 8 11 13 16 18 21 23 26 27 29 30
6 4 2 1 5 8 2 3 3 4 5 5 2 6 6 7 4 8 9 10 11 9 10 14 14 13 14 13 11 12 16 17 12 11 14 17 22 25 25 27 27 28 29 30
2 4 4 7 2 2 3 7 6 4 3 4 4 13 3 8 7 12 10 11 8 5 4 9 13 15 17 20 24 26 23 23 19 19 22 24 26 30 32 31 30 30 31 30
4 1 3 4 3 3 3 4 5 4 3 7 4 12 2 12 11 12 14 18 13 8 9 15 20 22 26 28 30 29 30 27 24 24 27 30 31 32 35 33 31 31 31 31
8 2 5 7 4 3 4 3 2 6 5 9 13 17 14 14 13 11 19 24 9 12 18 21 21 25 27 31 31 33 36 31 28 29 30 34 34 31 32 33 33 33 34 33
5 6 5 6 6 3 2 6 7 4 3 4 5 9 12 10 15 24 23 31 30 22 19 22 26 28 31 34 35 35 33 33 31 31 35 39 34 29 31 35 37 36 35 33
2 5 6 3 10 6 6 14 14 15 12 14 14 21 13 25 28 23 24 15 27 33 31 29 25 24 26 28 29 31 32 33 33 37 39 38 36 34 32 33 34 33 33 33
4 4 4 4 5 4 5 14 14 15 14 14 16 20 18 19 14 8 16 22 19 14 16 17 16 16 19 21 25 31 35 34 35 36 37 37 37 38 35 32 32 32 31 31
6 5 2 3 3 5 7 4 8 13 11 10 13 18 21 20 17 11 6 10 16 21 24 25 25 26 26 27 29 32 34 37 37 32 29 29 30 31 31 32 32 31 30 29
5 4 2 3 4 5 9 3 6 4 9 11 13 14 15 18 17 4 7 23 25 23 22 25 26 27 29 29 30 32 34 35 34 32 29 26 26 28 28 29 28 27 26 25
6 5 5 3 4 8 10 5 2 5 9 4 11 6 9 17 4 4 23 27 26 25 25 26 26 27 28 29 29 29 31 32 32 33 33 32 30 28 25 24 24 22 21 21
6 6 15 12 6 7 12 9 6 4 9 6 11 10 12 2 8 25 28 29 29 31 33 31 29 30 31 31 33 34 32 32 31 30 31 29 27 24 22 20 18 17 17 17
8 8 5 8 5 11 6 5 9 4 5 4 9 12 14 19 26 28 30 32 34 36 38 38 37 38 35 35 35 34 33 30 29 27 25 24 23 20 18 16 15 14 13 12
2 6 5 9 7 6 3 3 1 4 3 10 15 14 16 22 27 31 35 34 35 36 38 40 38 37 33 32 35 35 31 28 25 24 22 21 19 16 13 11 10 9 9 8
3 1 3 4 7 2 6 10 10 9 4 11 17 22 21 24 29 31 31 36 40 39 40 38 37 35 33 29 30 32 30 26 23 18 16 15 13 11 8 5 5 6 8 10
6 4 5 3 6 5 12 15 20 18 21 27 31 27 29 29 32 31 30 31 36 37 37 36 37 34 32 29 27 28 26 22 21 17 15 12 9 8 10 13 14 15 15 13
8 7 4 4 4 6 18 32 34 31 28 28 29 31 33 31 28 29 35 37 33 32 35 36 34 31 30 28 25 22 21 19 18 17 13 11 14 16 17 18 19 16 15 16

GFSCGP_850_spd_066.txt.gz
Wind_Speed
3 4 7 10 7 3 6 4 3 1 0 3 6 7 12 23 18 23 25 29 28 29 27 24 24 28 32 32 32 30 30 31 32 35 37 39 41 43 38 40 39 37 35 35
5 4 7 4 4 4 2 3 2 1 1 1 4 11 11 18 17 22 23 25 28 31 30 27 25 26 29 33 34 34 33 31 32 34 35 37 36 40 39 40 40 42 41 41
6 3 8 5 4 6 3 5 4 4 1 1 3 9 6 5 6 10 17 17 17 18 19 21 24 27 29 30 32 34 33 32 31 32 35 37 38 39 41 41 40 40 40 40
3 1 6 4 4 5 4 3 3 4 3 3 2 5 5 7 10 8 18 14 14 15 16 15 14 19 24 26 29 33 35 33 30 32 35 37 39 40 39 40 42 42 41 40
6 6 5 3 4 5 6 3 4 2 3 3 4 1 7 4 7 11 16 11 2 6 5 6 8 8 10 18 21 28 35 34 32 31 33 34 36 37 36 36 38 40 41 42
3 1 4 5 3 1 7 5 7 5 3 2 8 6 5 4 6 2 3 7 7 6 6 4 3 3 7 10 13 18 29 32 33 31 31 32 33 35 35 35 36 37 37 37
1 0 1 4 6 5 4 6 2 3 2 5 2 2 8 9 7 4 7 2 3 3 2 2 5 7 8 9 9 11 17 23 25 27 28 29 30 31 33 33 33 34 35 36
6 3 7 5 7 9 7 7 6 7 4 4 2 6 5 4 12 8 7 4 4 6 7 6 6 6 5 5 6 6 8 11 16 20 21 21 23 25 26 26 26 29 31 32
6 4 1 2 2 5 5 4 5 6 3 3 4 6 10 8 4 3 9 12 11 10 11 10 6 5 6 4 4 4 5 7 6 7 9 12 14 16 19 20 22 25 27 29
7 3 1 0 2 3 4 6 3 3 2 4 4 4 5 6 8 7 11 14 12 13 17 18 16 17 18 18 17 14 12 13 13 8 8 9 12 15 19 23 25 27 29 30
5 4 1 2 6 8 3 3 2 4 5 5 1 5 7 5 5 10 9 11 11 10 16 16 14 17 16 18 19 17 17 18 19 14 14 16 15 18 22 27 31 33 33 33
6 5 4 7 2 2 1 5 5 5 4 4 3 6 1 9 9 17 14 18 14 5 6 14 18 17 17 18 15 18 19 22 24 22 19 20 22 23 27 29 31 34 36 35
7 2 3 5 4 0 4 4 4 4 3 8 5 5 3 13 10 10 13 14 13 7 14 18 14 17 21 23 24 25 24 25 24 23 23 23 25 26 31 33 31 32 33 34
7 3 5 8 4 4 5 3 2 6 4 7 13 6 5 5 6 17 24 23 19 18 10 17 21 24 26 27 27 28 26 24 22 22 23 25 26 30 33 32 31 31 32 35
3 5 3 3 5 4 2 3 5 6 5 8 5 7 2 5 11 24 22 23 17 12 14 15 18 23 26 28 28 25 22 23 26 28 29 29 31 32 34 34 33 33 35 37
1 2 3 2 2 4 5 11 9 7 4 8 5 19 7 13 10 14 18 17 13 12 12 11 11 13 15 18 22 24 24 28 31 34 35 36 35 34 35 35 35 36 36 36
5 5 3 4 3 6 5 18 15 8 7 5 8 19 4 4 5 8 5 5 8 10 10 12 13 15 17 19 21 25 29 31 33 35 37 37 36 36 34 34 34 35 34 33
7 6 2 2 4 6 5 3 8 15 11 10 12 13 6 4 3 1 8 11 13 12 13 14 16 17 18 21 24 27 27 30 32 35 38 40 38 35 33 34 34 35 34 32
5 4 3 4 2 5 7 5 6 6 4 4 6 3 5 8 1 8 7 14 14 14 15 18 20 21 21 22 24 26 27 29 31 33 36 38 40 42 39 36 36 35 34 32
1 2 4 3 4 7 3 2 11 6 7 6 7 4 5 7 2 3 14 16 17 18 19 21 23 24 25 26 29 29 30 31 33 33 35 38 39 41 40 37 34 31 30 28
4 3 10 5 4 8 7 8 2 4 6 10 5 1 4 2 6 14 19 22 24 25 26 27 28 29 30 31 32 33 33 34 34 35 36 35 37 36 35 33 29 27 26 25
7 8 5 5 3 10 7 6 9 6 13 7 1 4 10 9 17 23 24 25 26 26 28 30 32 33 32 32 34 35 36 34 36 36 34 34 34 34 32 30 27 23 23 21
2 6 5 8 7 3 4 9 6 9 7 3 1 5 9 17 21 23 29 28 29 28 27 29 31 32 31 31 33 34 34 35 35 34 33 31 30 30 28 26 24 19 17 17
3 3 3 4 5 5 12 11 7 5 3 1 11 18 20 22 23 25 30 32 30 29 32 31 30 31 32 31 31 33 33 33 33 32 30 28 27 26 25 22 21 16 13 12
5 7 5 3 5 2 7 13 5 6 13 16 20 20 21 23 27 29 32 32 33 36 37 33 32 32 33 31 31 30 30 31 32 29 27 25 24 23 21 19 14 11 10 9
9 6 5 5 6 3 8 19 25 15 16 19 22 28 29 26 28 26 28 31 33 35 34 33 34 35 35 33 32 30 30 29 28 28 25 24 22 19 17 13 12 11 11 13

GFSCGP_850_spd_069.txt.gz
Wind_Speed
3 4 7 10 6 3 6 4 4 0 1 2 5 7 12 23 17 24 25 25 27 29 29 26 26 24 27 31 32 31 34 35 37 38 38 38 38 39 41 40 36 32 33 33
5 4 6 6 4 4 4 3 1 1 1 1 5 11 11 18 15 24 26 24 19 19 23 23 23 25 25 26 28 31 31 32 33 36 37 38 37 39 39 39 38 38 35 36
6 2 10 6 4 5 2 4 3 3 2 3 5 8 6 5 6 11 13 17 21 19 17 11 11 20 24 26 26 27 30 33 33 32 36 38 38 39 40 42 41 43 37 39
3 3 7 5 4 5 4 5 5 4 3 3 2 5 6 5 10 9 18 15 14 10 6 6 7 7 13 18 22 25 27 31 33 33 34 34 35 38 35 36 35 36 37 40
6 7 7 4 5 5 4 4 5 3 4 3 4 1 7 4 7 8 11 7 10 11 10 9 6 2 1 6 14 18 21 27 32 33 33 32 33 33 33 33 34 33 33 37
2 1 2 5 3 2 8 6 7 5 3 1 5 5 5 3 2 2 7 7 8 8 8 7 7 6 2 3 5 8 14 19 24 27 29 29 29 29 31 32 33 32 31 31
1 1 1 3 6 4 4 6 2 3 2 5 1 2 8 6 5 3 8 5 7 7 6 5 5 6 5 4 4 4 3 5 10 16 21 23 25 26 28 29 29 30 31 32
6 3 7 4 6 8 5 6 5 7 4 3 2 5 5 5 7 1 4 6 8 11 10 8 9 10 10 11 12 10 8 5 4 7 11 16 19 21 21 21 21 24 26 27
5 4 1 1 3 6 5 3 5 7 3 3 3 6 10 5 6 9 12 12 15 17 19 22 19 19 25 25 22 19 17 16 14 9 7 6 8 11 13 15 17 20 22 24
8 4 1 1 3 3 4 7 3 3 2 3 4 4 5 3 6 4 8 13 16 21 21 22 18 17 18 17 17 16 15 15 15 14 11 11 13 14 15 17 19 21 24 27
6 4 1 3 6 8 3 3 4 4 4 5 1 5 6 5 8 9 10 15 8 11 16 16 15 14 12 14 11 14 12 14 14 14 13 13 14 17 19 22 23 25 28 30
6 5 4 5 1 1 2 6 6 5 4 2 3 5 4 9 13 17 11 14 12 6 9 15 11 11 13 13 12 12 13 16 16 16 16 17 17 18 21 25 26 29 33 33
8 3 3 3 3 2 4 4 4 5 3 7 5 5 2 6 7 7 9 8 8 5 8 4 7 12 15 16 17 18 18 18 16 15 16 16 17 19 21 24 28 31 35 35
8 4 7 11 4 6 6 6 6 6 3 5 8 5 5 9 5 5 10 12 8 4 5 6 10 14 15 14 14 13 12 13 14 15 18 19 20 21 24 27 30 33 34 36
3 4 3 3 5 4 3 5 8 10 13 8 8 10 7 8 5 7 11 9 5 5 8 11 11 11 12 14 16 17 18 18 21 22 24 26 28 29 29 29 29 31 32 32
1 3 3 1 2 2 2 7 7 3 1 5 3 8 8 19 12 12 11 6 6 4 5 8 10 13 15 18 20 22 24 25 27 28 29 30 31 32 33 34 34 34 33 33
4 5 3 3 5 5 5 12 9 5 6 6 8 5 5 3 1 1 3 2 5 6 8 10 12 14 16 18 21 23 26 27 28 29 29 30 32 33 34 36 36 36 36 37
8 7 3 3 5 5 3 1 8 16 10 10 9 2 7 6 6 7 9 6 4 6 8 10 13 15 16 18 21 23 25 27 30 31 34 36 37 39 39 40 40 38 37 37
3 6 3 5 5 6 4 5 7 8 7 12 12 6 6 4 6 11 6 6 7 8 10 13 16 19 22 24 27 30 31 32 33 35 35 36 39 41 42 43 45 46 43 38
3 3 2 3 4 8 4 1 10 6 4 5 9 10 9 11 3 3 3 7 11 13 15 17 20 23 25 27 29 30 31 32 34 36 38 38 39 41 42 42 42 43 43 41
4 3 7 3 3 7 6 8 6 6 7 12 13 11 8 4 4 5 6 11 13 16 18 20 22 24 24 26 28 29 30 31 32 35 37 39 39 40 41 42 41 39 38 36
9 7 5 3 3 9 10 3 8 4 16 14 9 6 2 1 3 9 11 13 15 18 20 20 23 25 25 26 30 31 31 32 34 35 36 38 40 40 39 39 38 37 35 34
2 6 5 8 6 1 16 2 7 15 17 9 8 5 3 8 13 17 20 20 21 23 23 23 27 30 29 27 29 32 31 32 34 35 36 37 38 38 36 34 33 34 33 31
3 4 3 4 4 5 9 10 15 9 11 9 1 6 11 14 18 23 25 25 27 27 25 28 29 30 32 29 30 32 34 33 34 36 36 36 37 35 33 31 30 29 29 29
5 10 6 4 1 6 7 10 12 4 3 8 11 14 15 18 25 26 30 31 28 27 29 32 33 34 36 34 34 33 33 34 36 37 36 35 33 31 30 30 30 28 25 21
10 6 5 5 11 6 11 20 7 7 8 11 14 18 19 21 26 28 31 30 31 34 34 34 35 38 41 40 41 38 35 36 37 36 36 34 31 28 27 25 21 15 10 8

GFSCGP_850_spd_072.txt.gz
Wind_Speed
2 5 7 9 5 4 6 5 3 1 1 3 5 7 12 23 14 20 25 22 22 23 23 24 25 24 25 29 32 31 31 32 33 33 34 35 34 33 31 32 32 32 30 28
5 5 5 7 6 5 5 4 2 1 2 2 4 10 11 16 15 21 24 25 20 16 14 14 21 27 27 26 26 31 31 31 31 33 33 34 34 34 33 32 33 34 34 33
7 2 11 6 4 6 3 6 4 3 1 3 5 8 6 4 5 9 8 11 13 13 13 8 6 14 22 24 24 25 26 29 30 30 34 35 36 36 34 34 33 34 35 36
4 3 8 7 4 5 5 6 5 6 4 3 3 5 6 5 9 6 11 9 8 7 7 5 1 5 10 16 23 23 23 25 29 32 33 33 33 33 27 27 27 29 32 35
6 7 7 5 5 6 3 4 5 4 4 3 3 2 7 4 5 5 9 13 12 12 11 13 10 6 2 2 9 15 20 22 24 27 31 31 33 31 30 29 28 29 29 30
3 2 3 4 4 2 9 7 8 5 3 1 3 4 5 3 2 3 5 9 9 9 8 9 9 9 8 6 4 0 6 12 15 17 20 23 25 26 27 28 28 28 28 27
2 1 1 4 7 5 4 6 2 2 2 5 2 2 8 4 5 3 5 7 8 9 9 10 9 10 11 11 11 10 9 6 2 3 7 11 15 19 21 22 23 24 25 26
6 3 8 5 5 8 6 6 5 7 4 2 2 5 5 2 8 0 4 8 11 15 17 19 21 22 23 23 24 23 21 17 13 8 4 4 8 12 14 15 16 17 18 19
5 3 1 2 3 5 5 4 5 7 3 3 3 6 4 5 6 9 13 17 21 24 26 26 22 22 22 21 21 20 19 18 16 13 9 6 5 7 9 10 12 13 14 15
7 4 2 1 2 4 3 8 3 3 3 3 3 4 5 1 4 4 9 16 18 20 20 18 17 17 16 15 15 13 12 11 11 10 8 7 8 10 12 14 14 15 17 19
6 4 1 3 5 8 3 3 4 5 4 5 2 5 6 8 6 7 9 9 12 14 15 15 15 13 11 10 9 9 9 10 10 10 10 10 11 12 15 17 18 21 23 25
5 5 4 6 2 1 1 6 6 5 4 1 3 5 3 8 8 11 10 11 11 7 10 10 9 9 10 10 10 11 11 12 13 12 11 11 12 14 16 19 21 23 26 28
7 2 3 4 3 3 4 4 4 5 3 7 6 5 3 6 8 7 8 6 5 2 3 5 5 8 9 10 10 11 11 12 13 14 14 14 15 17 18 20 22 25 28 29
10 3 8 11 4 7 6 6 6 6 3 5 6 7 7 8 7 3 3 3 4 6 5 4 5 8 9 10 10 10 12 13 13 14 16 17 18 20 21 23 24 25 26 28
5 6 3 3 3 5 4 8 10 9 13 8 7 10 17 16 9 5 4 8 9 5 2 4 5 7 9 10 11 12 14 16 17 18 19 21 21 22 24 25 26 27 27 28
2 3 3 2 3 3 3 6 8 6 4 2 3 5 5 7 9 8 10 10 7 4 4 4 5 7 9 12 14 16 18 19 21 22 23 25 26 27 28 29 31 32 34 33
4 5 3 4 4 4 5 11 9 5 4 8 11 8 8 4 7 8 11 10 9 6 4 5 7 9 11 14 17 19 22 24 27 28 30 31 33 35 36 37 39 41 40 40
6 4 2 3 5 7 4 3 6 8 6 8 4 5 9 10 8 6 8 8 7 5 2 3 6 9 14 19 22 25 27 29 31 33 35 36 38 39 40 41 42 43 44 45
7 5 3 4 2 3 3 5 7 8 9 13 9 7 11 13 12 9 9 7 4 2 3 6 10 15 18 22 25 27 28 29 31 33 34 35 36 38 40 41 42 43 45 46
6 5 5 3 5 8 5 3 8 6 4 4 18 12 14 16 4 4 11 4 0 4 7 11 14 16 18 20 23 25 26 28 29 31 32 34 35 38 40 41 42 43 43 44
4 3 6 4 2 6 6 6 9 6 6 7 13 20 22 5 5 13 11 3 5 8 11 14 16 18 20 23 25 26 26 26 28 30 31 32 34 36 39 41 42 44 44 44
8 5 3 3 2 7 10 4 9 5 7 14 19 17 15 12 13 8 5 4 7 11 14 17 20 22 22 24 27 29 29 29 31 33 33 34 35 38 40 42 43 42 41 41
3 5 5 7 5 1 12 3 7 12 20 16 16 13 12 10 6 3 5 9 13 15 19 22 25 26 25 25 27 29 30 32 33 34 34 35 37 39 39 42 42 42 38 38
3 2 4 4 3 1 7 9 12 16 17 16 13 8 4 3 5 9 13 16 19 21 23 22 24 27 30 27 28 30 32 34 37 38 38 37 39 40 40 39 40 39 38 37
4 8 5 2 2 7 9 17 20 19 16 12 8 5 5 9 13 17 19 21 22 22 22 25 28 32 34 35 37 36 37 38 41 42 43 42 42 42 41 37 35 35 33 31
9 6 5 5 17 8 20 25 20 16 12 9 6 8 11 15 18 20 23 24 25 26 28 31 33 35 38 40 42 44 42 41 42 44 44 43 43 43 42 38 35 27 27 21

GFSCGP_850_spd_075.txt.gz
Wind_Speed
4 5 7 10 5 4 7 5 5 1 1 2 4 7 11 19 14 20 20 18 18 18 18 17 20 22 24 27 29 29 28 27 29 30 31 32 32 30 29 27 25 23 23 24
5 4 5 10 6 7 5 6 3 2 2 3 1 10 10 12 12 13 15 19 16 13 10 11 16 22 29 27 26 28 28 29 27 28 29 30 30 29 28 27 27 27 26 26
7 2 12 6 5 6 2 6 5 4 2 3 3 7 6 2 3 6 4 7 7 7 7 6 9 10 19 27 27 26 26 27 28 28 28 29 30 30 29 27 26 26 28 29
4 3 7 8 5 5 5 4 6 7 4 2 3 4 5 3 7 6 10 10 9 7 6 4 2 3 5 14 21 22 24 24 26 28 29 29 29 28 25 24 22 22 23 25
5 8 7 5 5 6 3 5 6 4 5 3 3 2 7 3 2 3 7 8 9 9 10 12 11 10 7 2 5 12 18 19 19 22 24 26 28 27 26 26 25 24 24 23
3 2 2 4 4 2 10 7 8 5 3 1 1 4 5 3 3 2 4 6 8 9 10 12 13 12 11 9 6 3 6 10 12 13 14 15 18 19 21 22 22 22 22 23
3 1 1 4 8 6 4 6 3 2 2 4 2 3 8 3 2 3 2 6 10 13 15 16 15 16 16 16 14 12 11 8 6 5 5 6 7 10 12 14 16 18 19 19
7 3 7 3 5 8 6 6 5 7 4 2 2 5 5 2 8 3 4 11 17 20 23 25 25 25 26 25 25 22 21 18 15 12 8 4 0 3 5 8 10 10 11 12
5 4 2 2 1 3 5 5 4 8 2 3 3 6 5 3 5 9 13 21 25 23 25 25 24 24 23 21 21 20 19 19 17 15 12 8 6 4 4 6 8 9 10 12
7 5 2 1 2 4 4 8 4 3 3 3 3 5 5 5 5 5 10 19 21 22 22 21 19 18 16 15 14 12 12 11 11 9 8 7 6 7 8 9 11 13 15 17
6 4 0 3 5 8 3 3 5 5 4 5 3 6 6 8 8 10 14 18 19 20 20 17 15 13 12 11 9 9 9 9 8 8 7 7 7 9 11 12 14 16 18 21
5 5 4 5 1 1 1 6 6 5 5 1 3 5 1 6 11 16 15 15 15 16 15 14 14 12 10 10 9 9 9 9 10 10 9 10 10 11 12 13 15 18 19 21
8 2 3 3 2 3 5 5 4 5 4 7 6 5 2 6 7 11 17 15 14 14 14 13 11 9 9 8 8 8 8 9 10 10 11 12 13 15 16 18 19 20 21 22
15 4 8 12 5 7 6 6 4 4 3 6 6 6 5 7 7 9 11 14 16 15 13 10 7 6 6 6 6 7 8 10 11 11 12 14 15 16 17 18 19 21 24 26
6 7 5 1 3 5 5 11 11 10 14 8 8 11 18 17 12 17 12 12 15 14 11 8 6 5 5 4 5 7 9 10 12 14 15 17 18 20 22 24 26 29 30 30
0 3 4 2 2 2 4 9 18 19 5 1 6 7 6 21 23 16 15 18 16 13 10 9 7 6 4 5 7 9 11 13 16 18 20 22 24 26 27 28 29 30 32 33
7 6 3 4 3 5 4 15 13 7 6 12 10 7 9 7 22 23 20 20 18 14 12 9 7 5 3 5 7 10 13 16 18 20 22 24 26 28 30 31 33 34 36 37
8 6 3 3 3 5 6 1 10 16 7 7 5 7 15 17 22 22 21 21 18 16 12 8 5 2 5 9 12 14 17 19 21 23 25 27 30 31 32 33 34 35 36 38
1 6 4 5 8 4 3 5 8 10 12 12 9 6 12 24 19 11 18 18 17 14 9 6 2 3 8 11 14 16 18 21 24 27 28 29 30 32 33 35 37 38 40 42
1 6 7 3 5 13 4 3 9 6 5 10 21 16 18 20 4 4 22 18 15 10 7 3 1 5 9 14 17 19 21 24 26 28 29 29 31 34 36 37 39 40 41 44
5 3 9 4 3 6 4 6 10 7 5 8 22 24 26 7 8 16 22 16 11 7 3 1 5 8 12 16 19 20 21 24 26 27 28 29 30 33 34 37 39 41 43 44
7 7 4 3 3 6 11 6 9 4 8 12 17 26 28 16 19 26 17 12 7 3 3 8 12 14 15 19 21 23 23 27 29 30 31 32 33 34 36 38 40 41 43 45
2 3 6 6 4 2 16 3 9 15 22 20 23 24 24 24 21 17 12 7 3 6 9 13 15 17 17 19 23 25 26 29 32 34 36 38 39 39 39 40 41 44 44 44
3 2 4 5 3 4 6 10 17 19 19 21 20 23 22 22 17 12 6 4 6 11 14 16 17 19 20 21 23 26 29 32 36 39 40 40 40 39 38 39 40 40 42 43
3 6 5 2 2 3 9 12 17 18 19 23 21 20 18 14 11 7 6 7 11 12 14 17 20 23 25 27 29 30 32 35 38 40 40 41 42 42 42 41 41 40 40 39
7 6 5 5 17 7 15 20 22 24 26 25 24 19 13 9 7 7 9 11 13 14 17 19 23 27 29 30 31 30 32 35 37 39 40 40 42 43 43 43 43 39 37 35

GFSCGP_850_spd_078.txt.gz
Wind_Speed
4 9 14 16 11 4 10 7 7 2 1 3 7 11 11 9 9 12 11 12 10 13 13 14 17 19 23 27 28 29 29 29 30 30 30 30 30 29 27 25 22 20 19 21
7 13 8 11 7 8 9 9 5 3 2 2 2 11 11 9 7 9 10 10 10 12 12 15 18 21 23 24 28 30 30 29 30 30 30 31 30 29 28 28 26 25 23 23
14 3 14 8 8 10 3 9 6 4 4 2 3 7 4 2 0 2 4 7 6 6 5 7 11 16 19 26 31 28 28 29 29 29 28 29 31 29 27 26 24 24 23 23
4 4 12 12 7 7 5 4 8 11 7 3 2 3 3 2 3 3 2 3 3 3 2 2 3 7 9 13 23 28 26 26 27 28 29 28 27 26 24 24 22 21 19 19
6 11 11 8 8 6 3 6 7 4 4 2 3 4 3 1 5 6 4 3 5 6 8 8 8 6 5 4 8 16 19 21 22 22 24 25 25 24 22 22 21 21 22 21
3 2 2 3 6 1 14 10 7 4 2 3 2 3 4 4 4 5 4 4 6 8 10 11 11 10 10 9 7 8 11 15 16 15 16 18 19 20 21 20 20 21 22 21
3 2 1 5 11 5 3 14 4 3 4 4 2 3 6 3 3 1 2 5 9 12 13 15 16 15 15 14 13 12 10 9 8 9 10 12 13 13 13 14 15 16 17 18
9 6 10 6 5 10 15 7 6 7 5 4 1 7 3 1 2 4 6 10 13 18 20 22 24 24 24 23 22 21 19 18 15 12 10 6 4 2 3 4 6 8 10 11
10 4 2 1 2 5 7 6 4 7 1 2 4 4 8 2 5 8 12 14 16 19 21 24 24 25 24 23 22 21 20 19 17 15 12 9 6 4 2 3 5 7 10 11
7 6 2 2 2 4 4 11 3 1 5 5 4 5 5 8 11 11 15 18 15 18 21 22 22 21 21 19 17 14 13 13 12 10 8 7 5 4 4 5 7 9 10 12
6 3 2 2 6 11 4 5 2 3 2 5 4 5 3 12 15 17 19 18 18 18 21 22 21 18 16 15 13 12 11 10 9 8 7 6 5 6 7 8 9 11 12 13
2 5 5 8 1 2 2 5 9 6 6 0 1 3 1 8 19 23 20 17 17 20 21 20 19 17 15 13 12 10 9 8 8 8 6 6 6 6 7 9 11 12 14 16
8 4 5 2 2 1 6 4 5 3 3 7 6 4 2 10 18 19 19 16 20 20 20 19 17 15 13 11 10 8 8 8 7 6 6 7 7 8 10 12 14 17 19 22
13 2 6 12 13 8 9 10 9 11 5 6 8 6 9 12 16 20 20 20 19 20 20 19 17 14 12 10 9 8 8 7 6 7 8 9 10 12 15 18 21 24 26 28
6 10 6 3 2 7 8 13 16 16 21 12 18 14 19 21 21 28 23 21 22 23 21 18 16 13 11 10 9 7 6 6 6 7 9 11 13 15 18 20 21 23 25 27
2 5 9 4 3 3 4 12 20 23 21 15 7 13 8 28 20 20 23 26 25 24 22 19 16 14 12 10 7 4 3 5 7 9 11 14 16 18 21 23 26 28 28 30
9 7 5 7 5 5 4 20 20 17 17 19 15 15 9 16 23 28 27 28 26 25 23 19 16 14 11 8 5 2 3 5 8 11 14 17 20 22 26 28 29 30 32 33
10 7 2 4 3 7 7 2 18 21 15 18 13 10 20 28 40 27 25 30 28 26 23 20 17 13 9 6 2 2 6 9 12 15 19 21 24 26 28 29 30 32 34 35
4 9 4 6 9 4 5 6 9 13 17 16 21 10 13 16 19 16 26 27 28 25 23 19 15 11 8 5 0 4 9 13 16 19 22 24 28 29 30 32 33 34 37 38
1 6 7 4 8 13 9 7 13 7 14 15 21 16 18 24 11 8 29 26 25 23 20 17 13 9 4 2 5 9 14 17 20 23 24 26 27 30 32 34 36 37 39 42
6 3 12 8 5 7 5 6 14 11 7 18 33 30 31 13 9 22 30 27 24 22 19 15 10 6 4 7 10 14 17 20 22 24 25 26 28 31 34 37 38 40 42 44
12 11 7 3 8 15 12 9 10 2 6 14 20 23 24 17 21 34 32 29 25 21 17 13 8 7 9 11 13 15 18 22 23 26 27 29 31 33 35 37 38 39 40 42
5 4 7 8 4 1 18 2 13 11 17 15 24 28 30 25 31 35 32 27 21 16 12 9 7 8 11 12 15 17 20 23 26 28 29 30 32 33 35 37 40 43 44 44
2 2 3 3 2 0 13 7 11 14 17 19 21 28 28 31 33 32 28 23 18 13 10 9 9 9 11 13 15 19 22 24 26 28 29 31 33 34 34 36 38 41 43 44
0 9 6 2 1 2 10 14 17 19 20 21 24 27 28 30 30 27 22 18 14 11 9 10 11 12 13 15 17 19 22 25 28 31 34 35 37 38 39 39 40 41 42 42
8 6 5 4 18 8 16 26 22 21 24 23 25 27 25 24 26 23 19 14 11 10 11 11 11 12 15 17 18 20 24 28 32 36 38 40 41 43 43 44 45 43 44 43

GFSCGP_850_spd_081.txt.gz
Wind_Speed
19 11 17 21 17 13 13 17 12 7 2 6 13 11 11 7 6 9 10 10 9 9 7 11 14 17 21 22 23 23 22 22 22 24 26 27 26 25 23 22 20 19 19 18
9 18 18 14 8 6 11 15 11 4 2 4 5 12 11 12 12 11 11 11 9 8 7 9 15 18 20 22 24 25 25 23 25 23 25 26 26 26 25 24 24 23 24 22
16 15 12 8 9 12 10 14 11 3 7 2 4 9 11 5 6 6 8 8 8 6 6 6 11 14 19 23 25 25 25 24 23 22 22 22 25 26 25 25 24 22 23 22
14 6 12 14 17 15 9 3 11 11 11 5 3 3 8 9 10 7 7 6 6 4 4 5 6 9 14 18 22 27 25 24 23 21 21 25 24 23 21 20 19 18 16 16
6 10 13 16 16 8 5 8 10 8 4 1 6 5 4 7 8 8 8 7 5 4 5 5 5 5 7 9 11 17 24 22 20 22 20 23 22 21 19 14 14 14 15 16
5 2 6 4 6 2 16 13 10 6 2 5 6 7 7 6 11 10 7 7 5 6 6 7 8 7 6 6 7 11 16 19 20 19 17 14 15 16 15 14 15 13 13 15
5 7 3 8 10 10 12 16 5 5 5 4 2 4 7 5 5 10 10 8 8 8 8 9 10 11 11 10 10 9 10 12 13 14 14 15 12 11 11 13 14 13 13 14
12 7 10 9 10 9 15 16 6 7 6 6 1 8 4 7 7 6 10 10 10 10 11 12 13 15 16 16 16 15 14 13 11 9 8 6 6 4 4 3 4 5 6 8
14 6 4 2 1 9 12 9 4 6 2 2 6 5 7 7 7 11 13 14 13 12 13 15 17 19 22 22 22 20 19 19 17 15 14 12 10 7 5 3 1 2 5 7
9 6 4 3 2 2 6 11 4 3 6 5 6 5 5 10 14 13 15 18 18 15 14 15 18 21 22 21 21 19 18 17 16 14 13 11 9 7 5 4 4 5 7 9
7 3 5 5 8 12 4 6 5 3 2 4 4 5 1 11 17 18 21 22 21 20 18 16 18 19 20 19 18 17 15 14 14 12 11 9 8 6 5 4 5 6 8 10
2 5 5 7 2 2 4 8 12 6 4 0 2 2 1 4 17 21 23 23 21 19 18 19 19 18 18 17 16 14 14 12 12 11 9 8 7 6 6 6 7 9 11 14
8 3 5 2 2 1 6 8 13 8 2 5 5 4 1 5 15 20 24 24 22 21 20 19 18 16 17 17 16 14 13 11 10 9 7 6 5 5 7 9 12 14 17 19
13 3 7 11 8 10 11 17 13 13 4 7 9 7 8 12 15 22 24 24 23 22 21 19 17 18 18 16 15 14 12 10 8 6 5 4 5 6 9 12 15 17 20 22
6 8 8 10 2 7 9 14 13 14 22 13 20 14 11 17 19 28 27 26 25 24 23 21 21 20 18 17 15 13 11 8 6 4 3 5 7 9 12 14 17 20 22 24
3 2 5 3 5 1 4 12 19 20 22 20 16 11 4 22 21 24 25 26 27 25 23 23 22 21 19 17 15 12 9 6 4 2 4 6 9 13 16 20 23 25 26 26
10 5 3 8 6 4 4 16 19 19 21 21 21 21 6 13 22 30 32 32 30 28 26 26 25 22 20 17 14 11 7 4 1 4 8 11 14 18 22 24 26 27 28 30
12 7 3 3 6 7 12 8 18 21 16 20 20 13 17 21 34 35 33 35 31 32 30 29 27 24 21 17 13 9 5 1 3 7 11 15 19 23 24 26 27 30 32 34
12 10 4 5 8 7 7 6 9 12 21 17 22 18 14 18 17 18 26 29 32 34 31 30 26 23 20 16 12 7 4 3 6 10 15 20 23 24 26 28 30 32 35 37
4 10 8 4 8 11 20 8 13 6 13 18 22 15 13 22 12 9 32 34 35 34 34 32 27 23 19 14 9 6 4 7 10 15 19 22 23 25 27 30 32 34 36 39
4 2 14 13 5 8 4 8 19 11 11 13 31 31 31 16 23 21 37 34 36 36 32 28 25 22 17 12 7 5 7 11 15 18 19 20 22 25 27 30 32 35 38 40
15 11 7 5 7 18 10 7 14 3 3 9 19 21 28 22 17 27 38 39 37 36 32 27 24 19 14 10 8 9 12 15 16 17 19 20 22 25 29 33 35 37 39 42
6 5 8 11 8 2 21 2 13 4 6 9 15 19 27 23 27 32 38 39 36 34 31 26 20 15 12 10 10 13 14 14 16 17 19 22 25 28 32 36 38 41 41 43
3 1 1 2 1 2 14 7 14 5 7 10 16 22 29 30 33 36 38 37 34 30 26 21 17 13 11 11 12 13 14 15 16 19 22 26 31 34 37 39 41 43 44 45
1 4 3 5 2 2 9 11 11 11 10 12 19 24 28 29 33 37 36 33 30 26 22 18 15 13 11 10 11 12 13 15 19 23 27 31 35 39 41 42 43 45 46 44
7 5 4 3 7 2 1 17 13 13 14 18 21 25 25 28 34 34 33 30 27 24 20 17 14 12 11 9 10 12 15 18 23 27 31 35 38 40 42 46 48 46 47 46

GFSCGP_850_spd_084.txt.gz
Wind_Speed
20 11 16 16 11 7 10 6 8 6 3 4 7 5 8 15 10 8 10 15 16 14 13 13 15 18 21 21 21 21 20 20 20 22 23 22 21 19 19 18 17 15 14 14
10 18 12 10 9 9 5 13 6 6 6 3 6 9 7 8 11 15 14 14 15 18 15 16 17 20 24 25 26 25 25 24 24 21 21 23 22 22 21 20 19 18 17 18
11 10 11 7 5 6 6 10 6 6 4 2 1 5 8 7 13 12 15 12 9 14 10 12 14 16 19 23 26 28 27 26 24 23 20 18 20 20 20 20 19 18 17 17
9 5 9 9 9 8 5 3 9 12 7 4 6 4 5 7 6 7 11 11 9 12 16 15 12 14 18 22 25 27 27 26 25 23 21 19 19 18 15 15 14 13 12 12
5 6 8 9 9 7 3 8 8 4 4 3 3 2 4 8 7 7 13 12 11 10 9 11 12 11 12 14 18 23 26 26 24 22 22 19 15 15 13 12 8 8 7 8
3 2 1 3 5 6 8 10 8 4 3 1 5 6 4 6 8 8 14 14 13 11 10 8 7 7 6 7 11 14 22 25 24 24 21 14 13 13 13 11 10 11 11 10
3 2 2 2 9 4 6 8 3 2 1 5 7 3 7 3 2 10 15 16 14 12 11 11 10 9 8 8 8 12 17 22 24 21 22 15 10 9 9 9 9 10 9 10
6 3 6 4 4 8 8 7 5 6 4 4 3 6 5 3 13 16 21 19 18 17 15 13 13 13 13 13 13 13 13 14 15 16 16 16 11 10 8 6 5 3 1 2
9 2 3 4 3 7 5 5 3 7 2 4 5 5 2 5 4 11 20 20 18 18 17 17 17 17 17 18 18 18 18 19 17 16 15 13 12 11 10 8 6 4 3 3
7 5 2 1 2 3 3 7 3 1 5 3 4 2 5 7 11 10 13 21 21 19 20 20 20 20 20 21 23 22 21 21 20 19 17 16 14 12 10 8 6 5 5 5
1 5 2 3 5 8 3 3 2 5 4 5 3 6 2 10 13 13 17 24 26 23 22 22 23 23 22 22 22 23 21 20 19 18 16 15 13 11 10 7 6 5 6 7
1 6 4 2 1 3 3 4 5 4 3 2 3 5 3 3 14 21 22 25 25 24 24 23 23 23 22 21 21 21 20 19 18 16 14 13 11 9 7 6 4 4 6 10
7 3 4 3 2 2 3 4 3 4 3 5 6 5 4 2 14 22 26 28 27 27 25 24 23 23 22 21 20 19 18 17 16 15 12 11 9 6 4 4 5 8 10 13
10 4 7 8 5 8 7 11 8 7 3 4 6 4 4 7 10 19 25 29 30 29 28 26 24 23 23 22 22 20 20 17 15 13 11 8 5 4 4 6 9 13 16 18
6 7 6 3 4 6 6 9 9 8 15 8 11 8 7 11 12 23 29 31 31 30 30 29 29 27 26 24 23 21 19 17 14 11 8 5 3 4 7 10 13 16 17 19
1 3 6 1 4 4 4 9 16 19 14 8 6 8 7 22 22 27 30 31 30 33 34 33 30 29 27 26 25 22 19 16 13 9 5 3 2 5 9 13 15 17 19 21
7 5 3 3 6 6 4 13 16 12 11 19 16 21 6 7 19 27 30 36 39 41 40 38 34 31 29 27 24 22 19 15 12 8 4 1 5 10 14 16 18 20 22 24
8 6 3 2 3 3 9 11 14 20 14 18 13 5 14 15 33 38 41 44 40 42 43 40 36 33 30 28 25 22 18 15 10 6 1 4 10 14 16 17 19 22 24 26
4 5 4 7 3 8 9 7 10 9 18 11 19 20 12 15 23 23 36 40 44 45 43 41 39 36 32 28 25 21 18 13 8 3 3 9 13 15 16 18 20 22 26 29
4 8 3 4 6 11 23 6 10 8 14 14 22 10 10 20 8 10 37 38 39 41 44 42 40 37 33 29 25 21 16 11 6 3 7 11 14 15 16 18 22 26 29 33
4 1 11 6 3 8 6 7 21 9 9 12 28 27 28 12 28 28 33 36 42 44 45 44 40 37 33 29 24 19 13 9 5 6 9 11 13 14 17 21 25 30 33 36
9 8 4 2 2 15 8 6 16 7 4 3 5 24 32 29 21 21 35 43 46 47 45 42 41 37 32 26 21 16 11 6 6 8 9 9 11 15 20 24 28 32 35 38
5 5 6 10 7 2 15 3 6 2 5 6 10 14 23 28 21 29 39 44 45 44 43 41 39 35 30 24 17 13 10 8 8 8 8 9 12 17 22 27 30 33 36 39
1 1 3 3 2 2 9 6 8 11 7 9 11 13 21 28 29 33 38 41 42 42 43 40 37 32 26 19 16 13 10 8 8 8 8 12 16 20 24 27 30 33 36 38
1 2 3 4 2 4 7 19 10 10 9 8 10 15 20 25 29 33 38 41 43 43 40 36 30 26 22 19 16 12 10 9 9 9 11 15 19 23 26 27 30 32 35 37
6 4 3 3 1 3 3 8 9 7 5 8 14 16 19 25 30 33 38 41 43 41 36 33 29 24 20 16 13 12 10 10 10 11 14 18 22 24 27 29 31 31 35 38

GFSCGP_850_spd_090.txt.gz
Wind_Speed
10 6 17 28 13 11 5 4 5 2 5 5 9 5 9 18 18 19 24 27 30 31 28 27 28 28 28 29 29 28 26 24 23 23 22 23 24 23 22 22 18 17 15 13
6 18 22 20 3 13 5 7 4 2 1 4 5 9 5 9 15 26 29 28 30 29 29 30 29 32 30 29 30 29 27 26 25 25 23 22 22 21 20 18 18 16 15 14
17 5 20 10 5 10 10 5 6 6 3 3 6 6 4 7 17 19 23 27 29 31 31 32 32 32 32 32 31 30 28 25 24 22 20 19 21 21 19 19 17 15 16 15
6 11 23 12 15 10 13 8 7 10 6 5 4 5 7 7 9 10 24 24 28 31 32 30 31 32 32 32 32 31 30 27 24 22 21 21 20 20 19 17 15 14 14 13
5 11 22 20 26 16 9 7 10 7 4 6 3 2 7 3 8 10 23 27 25 29 30 30 32 32 32 33 33 32 32 32 30 27 22 19 20 18 16 15 13 12 10 9
6 13 12 12 19 15 5 6 7 4 4 3 7 7 6 6 9 8 12 30 27 26 31 32 31 30 30 31 33 34 33 32 30 27 23 23 20 19 17 14 13 12 11 10
6 10 6 17 14 5 9 9 2 1 2 8 1 3 9 5 6 7 21 34 30 29 29 29 29 28 27 27 28 31 34 35 33 27 26 25 22 20 18 16 15 14 12 11
9 8 13 9 12 8 11 11 6 7 6 4 4 7 6 4 7 12 18 36 29 29 28 26 24 23 22 22 22 25 29 32 32 29 27 25 23 21 19 17 17 16 13 11
15 8 4 4 4 10 9 10 5 7 3 4 5 6 7 2 1 5 18 32 31 28 25 24 23 21 19 19 19 21 26 28 29 29 30 26 22 21 19 19 18 16 13 10
6 4 2 4 2 3 8 8 3 2 5 4 4 4 5 6 9 7 12 27 31 26 24 23 22 20 18 20 21 23 25 27 29 29 29 33 27 18 19 18 17 16 14 12
3 5 3 4 5 7 2 3 3 5 4 6 2 6 8 14 16 20 20 25 30 29 27 25 22 21 20 21 24 24 25 27 28 28 29 28 22 21 21 20 18 16 14 10
1 5 5 5 3 1 2 7 6 5 5 1 3 5 2 5 8 15 20 29 30 28 27 25 24 24 24 24 23 24 25 27 26 26 27 27 27 25 22 20 17 14 10 7
6 1 3 3 3 1 4 4 4 5 3 7 6 5 1 4 6 21 27 31 31 29 27 26 26 27 27 26 26 27 28 29 30 30 30 29 27 25 22 18 15 11 8 5
17 3 7 14 10 6 5 4 4 6 4 5 6 4 5 6 7 12 25 32 32 32 32 32 32 30 28 28 29 30 30 30 31 30 30 29 27 24 21 17 12 9 6 3
6 6 5 14 9 14 7 17 13 12 16 12 14 10 11 10 10 20 27 32 35 37 38 37 35 34 33 33 32 32 32 32 32 31 29 27 25 23 19 14 11 7 5 3
3 4 4 1 2 10 11 12 10 14 3 9 5 7 7 2 15 20 29 34 37 41 41 39 37 36 38 38 37 36 35 34 33 31 30 28 25 21 16 13 9 7 4 3
8 5 3 4 2 4 2 11 16 19 7 15 9 15 6 4 10 22 27 36 42 44 45 45 44 43 43 42 41 40 38 36 34 32 29 26 23 19 15 11 9 6 4 4
6 7 3 2 2 1 7 4 13 19 15 13 4 5 11 13 31 31 33 36 41 42 43 45 46 46 46 44 41 40 41 39 36 33 30 26 22 18 14 10 8 8 7 6
4 4 3 5 3 5 6 7 8 9 12 12 18 18 13 13 11 14 29 35 36 37 40 45 47 49 48 47 46 44 42 38 37 35 30 26 21 17 13 11 10 9 7 6
0 2 4 2 6 12 3 6 15 7 11 10 18 13 10 13 5 11 27 31 36 39 40 42 46 49 50 50 47 46 44 42 39 35 30 25 21 16 13 12 11 9 9 8
9 2 9 5 4 7 7 6 16 6 9 14 24 22 25 9 22 29 24 27 34 39 41 42 44 49 51 50 49 48 46 44 38 34 30 25 20 17 15 13 12 10 10 10
8 8 4 3 5 14 7 2 10 8 3 6 5 14 23 29 29 29 28 21 23 33 39 41 41 46 49 51 51 49 46 41 38 34 28 23 20 17 15 14 12 11 11 11
3 7 8 13 9 3 12 1 6 2 1 3 3 3 8 17 23 27 27 24 23 28 35 40 42 44 46 51 51 50 46 43 38 33 28 23 20 18 16 14 13 13 12 12
3 2 4 3 2 4 9 6 4 3 1 0 2 4 6 10 12 17 20 22 24 28 34 38 42 44 46 51 49 46 44 41 36 31 26 23 19 17 14 15 14 14 14 15
2 5 4 4 3 1 8 3 7 4 5 6 7 9 11 12 15 16 18 21 23 28 32 37 41 43 47 50 47 45 43 39 33 28 23 18 14 17 19 17 15 16 16 16
6 4 4 3 4 5 2 11 4 3 5 5 4 5 8 11 12 13 15 19 22 27 32 36 39 40 46 48 46 44 40 34 29 23 17 15 19 22 19 16 16 17 17 17

GFSCGP_850_spd_093.txt.gz
Wind_Speed
8 5 14 19 19 8 1 4 6 4 4 5 8 8 8 17 20 24 31 34 33 32 30 32 33 35 33 31 29 28 28 24 23 23 24 24 25 24 23 20 19 18 16 13
6 18 13 13 15 8 2 2 5 2 1 2 5 13 4 10 17 30 33 34 34 33 32 31 32 32 33 32 33 32 31 29 26 25 24 24 21 25 24 24 24 23 19 17
9 3 17 16 14 11 9 5 6 7 4 3 3 7 5 6 15 19 29 32 35 35 35 34 34 36 35 36 36 35 32 31 29 26 24 25 22 22 24 24 23 20 16 15
4 10 21 19 16 14 16 7 9 3 6 8 4 6 7 8 9 11 29 30 33 33 34 34 35 36 37 36 34 33 31 31 29 26 26 27 27 23 23 20 18 17 17 18
3 15 21 22 24 19 6 3 1 3 4 4 4 1 6 2 15 9 22 32 32 32 34 35 35 36 34 36 37 36 34 33 31 28 27 25 24 18 16 19 18 17 17 17
3 3 10 12 16 21 5 9 5 3 4 6 10 8 6 7 8 12 22 37 36 32 34 34 33 35 36 36 36 37 37 36 35 33 30 27 24 20 20 18 15 17 16 14
2 3 3 14 12 13 6 8 2 1 3 12 2 5 14 5 8 9 19 38 41 34 31 35 37 37 37 36 35 35 36 37 36 35 34 30 26 23 21 19 18 17 16 14
8 5 12 12 13 12 18 12 5 8 9 13 1 8 7 7 9 12 14 20 36 34 33 36 37 36 35 34 34 35 36 37 36 35 33 31 28 26 24 22 20 18 17 15
6 4 13 14 8 16 15 13 8 3 3 2 4 7 10 4 6 8 13 17 30 41 38 36 35 35 34 33 33 34 35 36 36 35 34 32 29 28 26 24 20 19 19 17
7 5 3 4 15 14 6 10 7 2 4 4 4 5 7 6 10 7 9 25 31 40 38 35 34 32 31 30 28 27 29 30 32 32 33 32 30 28 26 22 21 21 19 16
3 4 3 7 10 19 9 11 8 4 4 5 2 6 9 12 13 13 20 30 34 41 38 34 30 28 27 26 25 24 24 24 26 28 32 34 32 28 27 24 22 21 19 18
7 2 4 5 2 5 9 16 12 11 9 1 3 6 2 7 5 7 10 24 27 33 31 28 27 26 25 25 25 24 24 24 26 29 34 34 35 31 23 23 22 22 20 17
8 3 4 2 1 4 5 6 6 3 3 11 6 6 1 5 5 10 17 21 25 29 28 26 26 25 25 25 27 27 26 28 29 31 33 33 31 28 27 26 25 23 19 15
12 4 7 12 10 7 6 6 6 9 8 5 7 4 8 6 8 8 16 25 31 30 28 28 27 29 28 26 25 27 30 31 31 32 33 31 30 30 29 28 25 21 17 14
12 7 4 6 6 13 8 7 7 8 14 8 7 7 8 9 8 10 16 22 28 31 33 33 33 31 28 27 28 28 29 31 32 32 32 33 32 31 30 27 24 20 17 14
2 1 6 4 2 9 15 15 11 16 15 12 5 10 7 2 5 9 19 26 33 37 38 37 34 32 33 33 32 32 33 33 33 34 35 35 34 32 29 26 23 19 16 13
5 6 4 8 3 6 2 17 16 15 13 17 11 18 4 6 9 20 24 29 37 40 39 38 37 37 37 37 37 37 36 35 36 36 36 35 33 31 28 24 21 18 15 13
6 5 3 4 3 2 9 7 17 21 19 20 4 6 10 15 23 24 25 27 30 33 34 37 39 40 40 39 39 37 37 38 39 38 37 36 34 31 27 23 20 18 16 14
3 6 3 4 3 7 10 5 7 8 16 16 16 21 17 14 9 17 24 27 27 26 28 33 37 41 42 42 41 41 42 42 41 40 38 37 34 31 27 23 20 19 17 14
5 4 5 3 6 12 3 9 11 5 13 8 18 15 9 12 4 14 25 21 22 26 30 32 36 39 43 43 45 45 45 45 44 42 40 37 34 29 26 23 21 19 16 14
4 3 5 4 5 7 8 5 13 9 7 5 23 26 20 9 25 25 21 26 28 28 29 32 34 37 40 45 47 48 48 49 45 42 40 38 34 30 26 23 21 19 17 16
13 8 4 3 3 11 6 5 8 2 3 2 3 14 20 26 21 23 17 10 14 18 22 27 34 36 39 42 47 50 51 49 45 45 42 38 34 30 27 24 22 20 17 16
4 8 8 10 6 6 12 6 5 2 2 2 3 1 7 13 13 15 14 13 13 15 18 23 27 33 37 39 43 51 52 50 49 47 43 39 34 31 27 25 22 19 16 15
2 2 4 4 3 3 7 12 3 2 2 3 2 1 3 5 5 7 9 10 13 16 18 22 27 32 36 37 40 47 51 51 50 48 44 39 34 30 27 23 19 15 15 18
2 7 5 3 3 2 1 7 10 5 2 2 3 5 6 7 9 11 13 14 15 18 19 21 26 31 34 36 40 46 50 50 50 46 42 38 33 29 25 20 14 13 19 21
4 4 4 3 6 3 3 4 3 3 4 1 2 1 4 6 7 9 11 13 15 16 17 20 24 29 32 33 37 42 45 48 48 46 41 36 31 25 20 16 12 18 23 21

GFSCGP_850_spd_096.txt.gz
Wind_Speed
7 6 17 15 17 2 9 5 12 2 5 4 7 9 12 11 16 16 31 34 35 36 33 36 36 35 32 31 29 29 27 24 24 24 23 21 21 20 19 18 17 17 15 12
4 13 9 13 13 8 10 12 17 5 3 3 4 12 10 7 12 29 30 34 36 34 35 34 36 38 36 33 33 32 30 28 26 26 25 24 24 22 21 20 20 19 18 17
4 1 14 13 13 12 8 15 9 3 1 2 4 9 8 6 15 18 30 32 33 36 37 34 34 39 37 37 36 34 32 31 30 29 27 27 26 24 20 22 24 22 21 20
4 5 16 14 18 16 12 7 2 6 4 9 1 10 10 7 11 11 28 32 35 37 37 34 34 37 39 37 34 35 32 32 31 33 33 32 29 28 25 19 21 20 20 18
4 10 18 18 16 14 3 10 8 4 3 5 9 3 5 3 11 11 20 35 39 38 37 37 36 37 37 36 34 34 35 35 35 35 35 33 32 27 21 17 20 20 21 20
2 3 10 9 13 14 8 9 9 6 3 4 12 7 6 11 6 7 20 35 41 40 38 36 35 35 38 37 36 36 37 36 35 34 35 34 32 25 23 18 17 20 20 19
2 3 2 11 15 8 7 12 3 2 4 10 5 6 19 6 9 11 20 37 39 40 36 32 32 37 37 38 37 36 37 38 36 35 35 34 32 26 25 24 21 20 19 18
7 6 9 7 6 6 10 6 6 7 5 2 5 11 10 9 16 17 20 22 28 40 41 38 35 38 39 37 37 36 37 37 36 36 36 36 34 29 29 25 24 21 18 18
6 5 4 7 5 11 5 7 2 4 2 2 5 8 9 6 8 11 21 19 26 30 37 45 41 40 39 38 37 36 36 35 35 36 36 37 37 34 32 27 26 23 21 20
5 4 5 5 3 2 7 10 3 1 5 5 5 6 11 8 9 10 10 25 31 29 33 42 43 40 39 37 35 35 35 35 34 36 37 36 36 35 32 30 27 25 22 21
2 4 2 8 10 10 4 5 1 2 3 5 2 6 8 14 10 12 16 35 37 31 32 36 38 35 34 34 35 36 36 34 35 37 37 35 34 34 32 29 28 24 23 22
6 4 4 8 3 10 7 7 8 6 9 4 3 6 2 8 7 10 14 17 31 31 28 31 34 33 33 34 33 32 32 33 32 32 32 32 33 34 32 31 27 25 25 23
9 4 3 3 6 3 11 10 19 4 2 12 5 6 2 4 6 12 13 14 17 23 22 28 32 33 31 30 29 31 31 29 27 27 29 31 33 35 32 30 27 26 26 25
21 5 7 9 2 8 8 20 9 16 5 4 12 4 12 15 6 8 11 13 16 20 22 28 29 29 28 28 28 28 26 25 24 25 28 31 34 34 34 29 27 28 27 25
9 6 4 4 3 4 8 15 20 18 22 8 19 13 6 11 6 9 10 12 17 21 25 29 30 31 30 29 28 27 26 26 27 29 30 32 33 32 32 30 30 29 27 24
1 2 3 2 3 4 6 10 21 21 18 17 17 18 5 10 17 6 8 13 18 23 28 30 32 31 31 28 27 27 29 30 31 32 32 32 33 32 31 33 32 31 27 23
12 4 3 5 3 7 5 19 18 15 9 18 19 19 2 7 10 23 31 18 21 19 26 32 33 32 31 31 30 30 29 30 32 32 33 35 34 35 36 34 33 29 25 23
7 9 3 2 2 6 8 8 22 19 20 20 17 6 7 16 27 28 28 27 29 26 26 28 29 33 32 31 30 30 29 30 31 32 34 36 37 37 37 35 31 29 26 23
11 5 3 5 4 6 9 6 8 10 21 14 15 9 20 19 13 22 28 30 28 22 21 21 26 29 32 33 33 32 32 33 33 36 37 38 39 38 37 35 31 28 25 23
5 5 5 3 6 10 4 9 13 8 14 10 17 14 14 10 5 14 37 36 32 26 21 21 23 25 29 33 34 35 37 38 39 39 40 39 39 39 37 33 31 27 25 23
3 1 12 6 4 7 8 2 14 7 3 2 12 23 15 8 14 6 10 13 20 23 22 21 21 24 26 30 35 39 40 42 40 41 40 41 40 38 35 33 30 27 26 23
7 8 5 3 1 11 9 5 10 5 1 1 4 6 12 19 15 9 15 9 9 9 11 13 17 22 25 28 32 40 43 42 43 42 43 43 42 40 37 34 31 29 26 23
2 6 7 11 7 5 17 2 6 5 3 2 3 3 3 4 5 6 6 9 9 8 8 10 14 17 21 25 29 36 41 43 44 45 46 46 45 41 37 34 32 29 26 22
2 2 4 4 4 4 8 11 6 4 4 2 1 1 3 4 5 5 5 5 5 7 8 10 13 17 21 23 26 30 35 40 44 47 49 47 45 42 38 35 31 27 23 20
3 6 6 3 4 2 4 8 8 3 3 0 2 3 5 6 6 8 9 9 11 13 13 14 14 15 18 21 24 28 31 35 43 46 48 47 44 41 38 34 29 25 22 16
3 4 4 4 6 5 4 5 5 5 2 1 2 4 4 5 5 6 7 8 9 10 12 13 13 14 17 19 22 25 28 31 37 45 48 48 45 41 36 32 28 23 16 13

GFSCGP_850_spd_099.txt.gz
Wind_Speed
5 5 11 17 11 2 9 3 9 4 4 2 6 10 13 16 15 19 22 29 31 33 29 32 32 32 31 31 29 28 27 26 24 24 23 22 22 18 18 18 16 15 14 12
4 10 6 10 9 6 11 8 4 3 3 4 12 22 14 10 12 26 29 29 34 31 32 33 34 35 36 34 33 32 30 28 26 25 24 23 21 20 17 17 18 17 16 15
9 3 13 12 12 12 5 12 8 3 3 3 3 15 17 8 20 20 24 30 29 34 35 35 35 37 37 39 38 36 33 31 29 27 25 26 24 23 22 20 20 20 19 18
2 10 16 14 14 15 7 4 6 7 4 4 4 6 11 9 13 11 30 28 33 34 37 35 36 37 38 39 37 39 36 35 32 30 31 31 28 27 25 22 19 18 21 20
7 10 15 14 13 15 4 12 6 5 6 2 5 4 7 7 10 11 22 34 35 34 37 38 37 37 35 34 37 39 39 37 34 34 34 34 34 30 25 23 20 18 22 23
3 2 9 7 6 13 15 13 11 6 2 5 8 10 7 10 14 8 17 36 40 39 37 38 35 35 35 34 35 37 39 38 37 36 36 36 36 32 29 26 24 22 20 21
4 4 1 8 10 10 4 13 3 2 3 6 3 7 20 9 7 9 15 31 38 41 40 38 38 37 37 38 39 39 40 40 39 37 37 37 37 34 31 29 27 23 20 20
8 7 8 4 6 7 9 1 5 7 5 2 1 10 6 15 32 32 29 29 26 33 40 36 38 37 38 40 41 42 43 42 40 39 38 36 35 34 33 31 29 27 21 19
10 4 1 2 5 12 4 4 1 4 2 2 6 8 9 11 10 12 24 24 31 30 32 40 38 40 39 38 40 42 41 41 40 40 39 38 37 36 35 34 32 28 24 21
7 5 3 5 8 5 3 6 2 2 5 4 5 5 11 3 7 10 11 28 31 28 33 34 41 43 45 42 40 40 39 38 38 38 39 39 38 37 36 35 34 30 27 24
6 5 1 7 8 10 5 4 2 2 3 4 1 6 7 13 14 9 15 27 27 33 30 32 31 35 39 40 39 40 40 39 39 38 37 37 37 36 36 36 34 32 27 27
5 6 5 3 4 8 5 8 8 4 6 2 2 9 3 7 6 4 11 13 15 19 26 29 27 25 29 37 38 39 39 38 37 35 36 37 36 36 32 34 34 33 30 28
8 3 4 2 4 2 7 7 10 1 2 6 4 11 2 3 5 6 10 10 14 19 20 19 25 25 28 34 36 36 35 33 33 35 36 36 36 34 32 32 34 33 28 28
9 4 6 10 5 9 7 15 15 15 4 8 13 24 12 10 6 8 9 15 14 12 16 18 21 25 29 31 32 32 31 32 33 33 32 32 33 31 31 34 34 31 32 26
3 4 3 3 6 5 6 10 19 19 27 10 29 20 18 16 12 7 13 13 15 13 13 17 20 24 28 30 31 32 33 32 31 29 28 28 28 29 35 33 32 29 27 26
1 2 4 2 4 6 4 13 20 24 23 23 21 25 3 8 18 21 9 12 15 19 16 13 18 22 28 29 29 29 28 28 26 25 25 24 27 29 35 38 34 30 31 32
8 6 4 4 2 5 6 16 20 20 20 24 16 33 6 5 13 20 21 14 19 21 23 21 23 25 25 28 28 28 27 26 27 26 26 27 30 34 37 36 33 33 34 35
12 6 3 3 2 3 5 3 17 23 16 23 25 24 8 19 30 32 33 33 30 31 23 24 22 22 25 27 27 25 25 27 27 28 30 31 33 35 36 36 35 36 37 35
3 7 2 5 3 9 15 4 7 10 20 20 20 21 19 26 23 35 43 47 42 36 27 17 18 20 21 24 25 27 28 28 29 31 32 35 36 37 38 38 38 38 37 35
6 7 7 3 6 10 3 3 14 9 16 9 21 21 18 14 5 12 35 29 23 24 26 22 21 20 20 20 24 27 29 31 32 32 32 35 37 38 38 39 40 39 35 32
6 2 11 4 5 8 8 2 11 6 5 3 10 27 14 8 19 15 6 6 11 8 11 16 17 18 17 18 21 27 31 33 30 31 32 34 36 38 38 39 39 37 35 32
7 8 5 3 2 12 10 4 12 5 3 4 3 3 8 14 13 12 11 8 8 8 5 4 6 8 12 15 19 25 31 30 31 31 32 34 36 38 40 40 39 37 34 32
2 7 6 12 7 2 17 4 14 2 5 3 3 1 2 2 3 2 4 4 2 4 3 4 4 5 7 11 15 20 22 27 31 33 35 36 38 40 41 41 39 38 35 33
2 2 4 4 4 5 12 16 10 9 5 2 1 2 4 5 5 6 6 7 7 7 7 7 8 8 8 10 12 15 18 21 27 33 36 38 41 43 42 41 39 37 36 34
3 7 6 3 5 2 9 13 11 9 7 5 3 2 5 5 6 8 8 10 10 9 8 8 7 6 7 10 12 15 15 18 23 29 35 39 42 43 43 41 40 37 33 29
4 5 5 5 4 4 3 10 12 10 7 6 6 8 7 7 8 9 9 9 9 10 11 10 9 8 6 7 10 13 15 18 21 25 32 39 43 45 45 43 40 36 32 28

GFSCGP_850_spd_102.txt.gz
Wind_Speed
12 8 20 21 17 11 15 15 19 9 5 8 20 22 21 26 15 16 18 19 21 23 21 26 31 33 33 32 32 31 30 29 28 28 26 25 24 22 22 21 19 16 14 13
7 20 19 15 16 14 10 14 14 6 3 6 12 18 21 29 30 22 22 21 24 20 23 26 32 36 37 36 35 34 33 31 30 29 28 26 25 24 22 21 19 18 18 17
18 12 13 15 13 10 11 18 15 5 5 1 3 14 24 27 35 35 28 27 21 25 27 28 33 37 38 39 39 37 35 33 31 30 29 28 26 25 24 21 20 20 20 19
11 12 17 14 18 17 8 4 7 10 5 4 7 8 16 17 23 28 28 26 28 26 30 28 34 39 42 43 40 39 37 36 35 33 33 32 32 31 28 24 20 19 21 21
10 17 19 21 19 18 3 9 8 4 4 2 5 5 10 11 17 18 32 33 32 35 34 35 38 39 40 41 41 42 41 40 39 37 38 36 35 32 28 27 25 25 22 22
4 4 10 10 13 18 16 12 13 7 3 5 12 10 16 15 17 15 24 30 35 40 40 39 37 38 39 40 39 41 43 44 43 42 41 41 39 36 34 32 28 28 24 23
5 8 2 11 12 17 8 11 3 2 4 8 2 13 21 11 17 19 21 28 34 40 43 44 40 40 40 41 41 41 42 44 46 47 45 43 42 39 38 34 33 31 30 27
12 7 10 5 8 8 7 8 6 9 7 6 2 10 5 13 24 25 20 20 22 28 36 44 45 42 41 42 43 43 43 43 46 48 47 45 43 42 40 37 37 36 33 28
15 6 2 4 7 16 5 5 3 4 2 1 6 7 10 16 14 14 22 26 25 24 28 32 40 44 43 44 45 44 44 45 46 46 45 45 44 44 43 39 39 37 35 31
13 7 0 4 7 5 13 13 5 2 5 7 9 7 9 11 13 16 15 23 27 30 33 29 29 37 44 45 46 45 44 45 46 45 45 46 46 45 42 40 39 38 35 34
15 6 3 6 5 9 7 6 2 1 3 5 5 7 4 8 10 9 8 11 18 20 22 27 25 32 35 41 43 44 43 43 45 46 47 47 46 45 42 42 39 37 36 37
4 6 7 3 1 6 4 9 9 7 6 5 5 12 5 3 3 4 11 13 13 16 16 18 19 28 28 31 36 41 43 43 44 45 45 45 43 41 41 40 39 38 38 40
10 6 7 4 3 3 9 10 12 5 1 8 6 10 1 6 3 1 5 11 19 22 19 18 18 21 26 31 30 33 40 44 44 43 42 42 40 39 39 39 37 37 38 41
9 5 8 12 9 12 7 17 17 15 5 17 16 29 18 9 7 2 4 14 24 21 18 21 19 18 23 26 28 30 32 36 37 38 38 40 39 40 40 37 39 35 39 43
6 5 6 4 11 11 16 21 19 21 30 14 29 26 27 21 20 26 17 15 20 19 23 22 21 17 17 22 25 27 29 32 33 35 36 37 38 38 37 38 35 36 39 45
3 5 8 3 10 8 7 19 25 29 29 25 28 24 19 13 8 12 16 14 18 18 22 25 26 25 22 20 24 27 29 29 30 31 33 35 35 35 35 36 36 38 40 43
11 6 6 7 9 7 5 20 23 22 23 25 20 32 12 10 12 20 22 21 21 24 27 26 31 31 29 25 23 27 29 28 29 30 31 31 30 31 30 31 35 39 44 36
15 6 2 4 4 7 1 2 19 24 18 24 20 24 18 19 22 23 27 32 38 29 30 31 35 35 32 26 24 26 29 26 25 25 25 24 26 26 30 32 38 42 39 40
11 7 4 6 10 5 8 6 9 13 16 21 23 26 30 34 23 32 38 34 35 38 40 41 31 27 28 23 22 26 26 25 25 25 24 25 26 29 32 35 39 42 42 37
8 8 5 4 6 9 1 1 4 11 8 16 25 21 22 16 8 15 16 19 20 20 20 20 18 20 19 19 21 27 26 25 27 24 24 25 28 29 31 33 35 38 37 37
9 7 11 4 5 4 6 5 13 6 4 4 8 17 15 11 15 10 7 8 12 17 17 15 11 13 14 13 14 21 26 24 23 23 24 25 26 30 32 34 36 37 39 37
10 8 6 3 6 12 11 7 9 3 3 2 1 1 3 7 10 9 9 11 12 11 9 9 7 4 5 7 10 13 17 17 22 24 24 25 27 30 34 36 38 40 39 40
5 6 6 10 6 3 22 6 14 2 2 2 3 2 3 4 6 7 7 8 8 5 5 5 4 3 3 3 5 8 8 11 17 24 25 25 27 31 35 38 40 41 41 42
3 3 4 4 5 4 16 13 9 7 5 5 4 3 4 5 5 6 6 8 8 8 8 8 7 5 4 5 6 7 9 10 13 17 23 26 28 30 33 36 38 40 43 43
1 10 6 2 1 2 6 12 12 9 7 5 3 3 4 4 5 6 7 7 8 8 9 9 9 9 9 9 8 8 9 11 12 16 20 25 29 31 33 37 39 41 41 41
2 2 6 4 7 4 5 15 13 12 10 9 8 8 7 7 8 8 9 8 8 7 7 7 7 7 8 9 10 9 10 11 12 15 17 22 27 33 36 39 42 42 39 37

GFSCGP_850_spd_105.txt.gz
Wind_Speed
15 11 21 21 16 13 11 15 20 11 2 10 17 18 21 30 31 25 18 16 18 19 17 21 24 26 26 26 27 30 29 28 27 29 27 24 24 22 23 22 20 20 18 16
8 20 22 17 20 18 7 17 19 5 6 6 14 21 19 27 30 30 29 24 20 17 19 21 24 27 28 28 30 32 33 31 31 30 29 26 25 24 24 24 23 21 19 16
24 16 23 19 18 21 20 17 16 8 7 5 7 20 21 24 32 32 32 32 27 20 21 23 26 30 32 33 33 34 36 36 35 33 30 28 25 24 23 25 23 24 22 19
22 21 27 20 21 19 21 9 14 9 8 5 6 8 17 18 22 23 33 34 35 29 25 24 27 30 36 38 36 34 35 37 37 35 36 36 36 35 32 28 27 25 22 20
13 21 22 24 23 19 4 9 6 3 2 1 7 5 8 13 18 19 22 34 38 35 30 28 31 36 38 39 42 42 40 40 40 40 41 40 39 37 32 29 28 27 22 21
10 6 17 18 15 15 16 10 11 6 1 7 15 10 10 13 19 15 19 24 34 37 36 34 32 33 36 39 41 44 45 45 45 44 44 44 43 39 35 33 30 31 25 25
9 11 4 10 19 16 13 12 3 6 5 6 2 11 16 16 15 12 14 19 23 32 35 36 36 36 40 41 43 45 46 48 48 48 47 47 46 43 41 37 35 33 32 32
14 6 15 10 17 10 15 18 7 8 10 8 3 10 4 8 17 16 21 19 15 17 25 31 33 38 44 42 43 46 48 48 49 49 50 49 49 47 45 41 37 38 35 35
15 6 4 12 9 16 4 9 2 2 1 2 7 9 8 12 11 17 17 14 20 18 19 21 26 33 43 45 44 46 48 49 49 49 48 50 52 50 48 45 42 39 38 37
15 7 1 2 7 1 14 10 2 2 5 7 8 11 7 6 8 8 5 11 10 11 17 17 21 24 32 38 42 45 46 50 50 49 49 49 51 51 48 46 44 42 40 40
19 9 2 8 8 9 8 7 6 3 6 4 4 5 4 6 4 1 3 4 4 5 7 10 15 20 23 28 34 42 45 47 49 50 49 49 49 48 48 48 47 44 43 40
7 7 7 3 2 10 12 11 14 6 7 5 5 8 5 7 5 8 5 6 9 14 10 10 10 14 18 23 25 29 37 40 46 49 48 48 49 49 50 49 48 44 45 41
10 7 7 4 2 0 9 17 17 10 2 13 6 8 5 7 4 3 2 3 8 15 15 16 18 13 10 17 22 27 28 33 39 42 45 46 48 50 50 48 47 46 45 41
12 10 14 16 19 10 9 16 18 17 6 13 17 17 9 7 5 5 5 7 15 16 16 17 18 18 16 15 17 22 26 29 33 37 42 45 47 47 45 44 42 41 40 40
6 5 7 2 12 18 18 22 20 22 29 14 24 24 16 14 13 16 17 21 20 20 17 17 17 20 22 22 19 18 21 24 27 30 33 36 41 39 40 40 38 36 37 36
4 4 7 2 10 14 16 20 23 27 29 22 26 24 10 17 13 8 12 17 23 21 17 20 21 25 25 27 24 20 18 20 22 24 27 30 35 35 37 37 36 35 36 36
13 7 3 5 10 8 2 24 26 25 24 28 20 31 9 8 8 14 15 18 19 19 20 23 29 26 29 30 26 21 18 19 19 22 25 27 29 31 33 35 36 37 36 38
13 8 3 4 4 5 2 5 21 26 20 24 21 13 11 16 22 18 21 24 24 25 24 24 28 32 32 32 27 20 19 19 19 22 23 25 28 30 32 34 34 33 36 36
12 6 4 6 11 1 8 5 16 16 18 18 23 19 28 30 21 26 23 24 29 26 23 25 30 33 29 27 24 20 20 20 20 21 22 23 24 25 26 27 29 29 30 35
11 11 5 4 7 11 4 9 9 14 6 15 27 19 16 14 8 8 4 7 7 9 13 12 15 15 16 16 16 16 17 19 19 19 20 21 21 21 22 22 25 26 30 33
12 9 8 6 3 3 3 9 17 7 3 3 17 15 12 9 11 4 8 11 12 11 11 10 9 8 8 10 10 12 12 13 14 15 17 19 20 20 20 22 25 28 27 26
13 12 5 3 5 7 15 13 11 3 7 11 9 6 5 6 8 6 5 3 3 3 5 5 5 6 6 6 5 6 6 8 11 14 17 18 19 21 20 21 25 28 30 34
7 8 6 9 5 2 23 3 10 7 12 8 10 7 5 6 7 6 7 8 9 10 10 10 10 10 9 9 8 6 5 6 8 11 14 17 18 20 22 23 26 29 32 35
2 2 4 5 4 3 18 9 14 9 11 12 12 13 12 12 10 7 7 8 8 9 10 10 8 8 9 10 10 10 9 8 8 9 11 13 17 20 22 25 28 31 35 37
1 7 5 1 2 5 7 14 14 14 14 14 13 13 13 12 12 10 8 7 8 8 8 8 9 10 11 11 10 10 10 12 13 11 10 12 15 18 21 25 28 32 34 35
7 4 4 1 2 0 5 21 17 16 16 13 13 15 14 12 12 11 9 7 6 6 6 6 6 7 8 9 10 12 13 12 13 13 12 13 14 16 19 23 26 30 32 32

GFSCGP_850_spd_108.txt.gz
Wind_Speed
17 7 17 17 12 10 11 8 15 6 8 8 12 16 12 22 18 17 18 16 15 15 18 20 23 24 26 29 29 29 29 31 30 31 30 27 26 24 23 22 21 20 20 18
8 18 17 13 14 12 11 8 11 8 5 2 8 14 14 16 16 23 26 25 22 19 18 21 24 26 32 33 32 31 33 32 34 34 33 32 29 28 26 25 25 24 24 20
16 14 18 16 15 15 15 10 6 7 4 2 5 9 13 13 24 26 29 31 29 24 23 25 28 29 35 37 37 37 37 35 36 35 35 34 31 29 30 30 29 30 27 24
16 16 22 17 18 14 17 9 6 5 4 4 6 6 8 9 17 19 28 31 33 35 32 26 31 33 35 39 39 39 40 39 39 38 38 38 38 38 37 33 31 29 26 26
15 24 24 24 21 17 4 13 11 5 2 2 3 3 4 9 14 15 21 35 38 39 37 39 32 36 35 34 40 43 41 41 42 43 42 41 40 39 36 34 34 33 29 27
15 13 17 18 16 12 8 7 7 4 0 6 10 7 5 9 13 8 16 23 26 33 41 40 41 37 36 34 37 42 43 44 44 45 44 44 44 42 40 39 37 35 31 29
7 14 15 29 18 8 9 9 3 6 5 11 8 10 13 11 10 6 9 18 18 20 32 40 40 37 38 39 37 40 44 46 47 47 47 47 47 45 44 42 39 37 34 33
10 11 17 12 18 9 21 18 4 8 5 5 1 7 5 19 29 23 22 20 19 14 14 34 37 37 39 41 39 39 42 45 48 49 50 48 47 47 46 45 43 42 41 38
13 5 9 14 16 14 9 12 5 4 1 2 5 5 7 9 8 11 14 15 14 15 17 13 28 29 32 38 41 40 42 43 47 49 49 49 49 49 50 48 45 44 44 42
9 5 4 1 9 7 10 7 4 2 5 4 5 5 5 5 9 6 3 7 11 7 9 12 17 21 26 28 32 36 40 43 45 47 48 48 49 49 49 48 48 47 47 46
13 5 4 5 6 14 6 12 6 5 3 4 2 4 5 5 4 7 7 6 4 3 3 7 10 14 18 22 28 31 34 39 43 45 46 49 49 50 48 48 48 48 47 48
12 6 8 11 5 2 8 12 8 6 5 2 4 5 2 9 7 11 13 12 9 9 8 8 9 1 12 13 19 27 30 31 33 39 43 44 46 48 48 48 47 46 46 45
11 6 7 5 3 2 7 12 18 7 2 7 5 5 4 7 5 8 13 7 4 4 8 9 10 11 9 7 7 12 20 26 28 30 36 39 42 45 46 47 47 45 47 48
20 6 11 18 23 11 12 18 18 17 4 5 13 3 3 8 8 10 12 8 4 10 11 7 8 10 12 13 13 12 12 14 19 23 28 35 36 37 40 40 39 40 45 47
8 5 8 1 15 14 22 22 19 18 24 10 23 19 13 7 8 8 6 6 14 17 16 12 12 12 14 17 17 19 16 15 14 17 21 25 30 35 36 35 35 37 38 39
5 3 5 4 14 19 19 20 20 21 27 24 18 10 7 16 3 3 3 13 19 19 17 14 14 17 20 18 20 20 20 18 16 15 16 18 21 25 28 29 32 33 34 34
14 6 8 4 8 10 8 23 26 25 19 29 18 21 4 4 3 3 4 12 16 18 16 17 19 16 21 21 23 24 20 18 16 15 15 15 17 18 18 20 23 26 29 31
13 8 2 5 8 5 6 19 26 31 24 26 21 7 5 5 7 9 12 16 18 23 25 23 21 21 21 23 24 22 18 17 15 14 15 15 15 17 19 21 23 25 27 31
10 6 4 5 8 3 2 6 27 21 22 19 26 20 17 19 16 18 21 17 18 16 14 16 16 16 15 16 16 15 13 13 14 13 13 14 15 16 18 19 21 22 23 24
12 4 4 4 5 10 3 10 19 7 14 15 22 15 16 18 6 4 10 6 4 4 5 5 8 10 11 12 10 9 8 8 9 9 10 12 13 14 15 16 15 14 17 18
6 3 8 8 4 6 5 7 25 10 7 11 29 26 17 6 8 13 9 6 8 6 5 4 3 4 5 6 7 6 6 6 6 7 9 10 11 13 13 14 13 14 18 20
9 9 6 3 3 7 11 5 12 4 2 6 20 14 14 17 14 11 6 5 3 4 4 4 5 6 8 8 8 8 6 6 5 5 7 8 10 12 13 13 14 15 16 22
4 6 8 7 5 2 32 12 8 12 12 9 17 13 16 18 16 14 13 10 10 10 10 11 9 8 8 9 9 9 8 8 9 9 9 8 9 11 12 13 14 16 17 20
5 2 4 5 2 4 19 10 11 12 12 12 13 17 17 22 19 18 16 14 12 12 11 11 9 8 9 9 10 11 12 12 13 12 12 11 10 10 12 13 14 16 18 20
2 3 5 2 4 2 10 13 15 14 14 15 15 16 17 19 18 17 17 15 13 12 12 10 8 8 8 8 8 8 8 10 11 13 13 13 13 12 12 13 14 15 16 18
9 6 3 2 12 8 5 12 15 17 18 16 17 18 16 16 18 18 18 15 12 11 9 7 6 5 5 5 5 6 7 8 9 10 10 10 10 11 11 11 12 14 14 17

GFSCGP_850_spd_111.txt.gz
Wind_Speed
10 6 16 15 8 3 3 5 9 4 9 9 10 8 11 23 11 19 20 19 16 21 26 22 19 19 25 33 34 33 33 35 36 37 33 33 31 29 27 26 24 23 22 21
5 14 14 8 8 8 9 5 6 6 2 7 6 15 12 13 18 26 24 22 22 22 21 31 27 26 28 33 37 35 34 35 39 41 37 36 32 29 27 27 27 26 25 24
16 9 14 12 9 12 12 9 5 5 1 1 2 8 7 7 22 29 31 32 34 36 31 30 34 33 30 32 39 38 36 37 37 40 39 39 36 34 32 32 31 30 28 26
15 14 20 14 18 11 14 9 9 3 4 5 4 7 10 10 18 19 29 35 40 37 37 36 36 37 37 34 36 39 37 38 38 38 42 43 43 41 39 36 34 32 31 29
6 16 19 21 24 15 6 9 9 4 2 2 4 4 6 8 9 9 22 36 38 42 37 41 39 40 38 36 35 39 39 40 40 41 42 43 45 43 40 38 36 35 34 33
15 4 17 17 15 14 7 6 5 4 2 8 8 8 5 7 7 11 23 29 35 37 40 44 43 43 40 38 36 38 41 42 43 43 43 45 45 44 42 41 40 38 37 36
18 21 3 15 17 4 7 10 3 7 5 10 13 9 16 7 9 12 14 23 15 15 28 38 40 45 44 42 39 38 41 43 45 46 46 47 47 46 45 44 43 42 41 39
11 11 22 13 18 13 21 17 5 9 6 8 3 8 5 18 34 27 28 28 23 18 14 21 30 39 47 45 41 40 40 40 43 47 47 47 47 48 47 47 46 45 44 43
6 5 15 10 6 15 9 13 10 4 3 3 5 6 8 7 12 12 18 17 16 14 16 18 16 30 40 43 41 41 39 38 42 43 45 47 48 48 48 47 48 47 47 45
8 3 6 7 11 3 13 18 9 3 3 4 5 5 5 6 14 7 6 16 17 10 10 10 11 13 28 35 35 36 38 39 39 40 43 46 48 49 48 48 48 48 48 46
12 7 3 1 8 16 5 14 5 7 4 5 2 6 7 12 8 9 8 7 7 5 5 8 12 15 17 20 25 28 33 37 39 41 43 45 46 47 47 47 47 48 47 46
15 5 6 15 1 5 9 13 17 10 10 4 2 5 6 9 9 16 14 13 14 11 10 7 5 5 14 17 21 25 27 32 35 37 39 43 43 44 45 46 45 44 45 45
12 6 9 5 4 3 16 6 19 3 4 9 5 5 1 3 7 15 22 16 14 9 5 4 5 7 7 5 1 7 16 25 31 32 35 38 41 42 44 44 44 45 43 44
18 6 3 10 16 7 25 24 26 23 9 13 17 10 6 8 8 11 18 18 12 7 3 3 2 3 3 5 6 7 7 8 13 22 29 33 35 38 40 42 43 42 42 42
14 9 13 16 18 19 15 22 19 21 25 15 20 13 10 10 10 19 23 18 11 7 4 3 3 4 6 8 8 10 10 11 11 12 15 20 24 30 34 35 36 35 35 38
12 5 19 19 12 19 19 21 20 19 23 15 19 16 8 15 8 13 17 16 15 8 4 4 4 6 9 11 13 14 14 13 13 11 11 12 15 18 23 26 27 27 31 33
13 9 11 12 15 16 14 25 27 26 22 28 23 25 8 8 13 20 17 13 9 6 4 7 11 14 15 16 17 16 17 16 15 12 12 11 10 10 13 17 22 25 28 29
19 18 4 5 9 11 6 21 25 30 31 29 25 10 18 13 21 16 10 9 10 14 16 16 13 13 16 17 17 18 17 15 14 13 12 11 11 11 12 13 15 17 19 22
23 7 5 6 13 3 3 10 27 21 30 27 28 16 12 17 11 9 12 11 14 14 15 11 11 11 11 11 11 10 11 12 12 12 11 10 10 10 11 12 13 15 17 19
17 14 6 4 6 11 4 7 25 4 16 24 29 20 15 12 5 8 14 12 10 9 7 7 7 8 9 7 5 4 5 5 6 7 8 8 9 10 10 11 12 12 10 10
6 3 13 9 3 6 6 7 33 12 11 10 35 31 25 18 24 15 18 16 14 11 9 9 7 5 2 1 2 2 2 1 0 2 5 6 7 8 9 10 10 9 10 11
6 8 3 4 2 11 9 22 22 3 2 3 10 26 30 24 19 24 23 17 12 10 9 9 7 7 7 7 8 7 7 8 8 6 5 4 6 8 10 11 10 10 10 12
3 6 7 9 6 1 20 9 10 2 3 4 16 24 28 30 30 27 21 15 13 13 14 14 12 11 10 9 7 5 6 6 6 5 5 5 6 8 9 10 9 10 10 11
2 4 3 4 4 3 4 9 10 7 10 12 19 25 30 31 28 23 20 20 19 18 17 15 13 11 9 7 4 2 2 2 3 4 4 5 5 6 7 8 9 10 11 12
4 8 2 1 5 3 6 6 8 12 12 15 18 18 21 26 25 25 23 20 19 17 15 13 10 8 6 5 3 4 4 6 7 7 8 8 7 7 7 7 7 8 9 10
9 6 3 3 8 8 6 7 3 11 14 13 15 18 18 20 25 24 23 20 18 15 13 10 8 6 4 3 1 2 3 4 6 7 7 7 8 7 7 7 7 7 8 10

GFSCGP_850_spd_114.txt.gz
Wind_Speed
7 5 16 17 6 5 6 5 9 4 10 5 15 20 10 25 12 16 25 25 26 31 21 24 25 24 31 32 32 33 34 38 39 37 34 35 34 31 29 27 25 24 24 23
4 16 15 6 3 4 4 2 4 4 4 7 8 17 15 11 15 26 26 30 31 28 29 28 31 29 30 32 35 36 37 36 39 42 40 39 36 33 30 29 28 28 26 25
15 4 12 10 5 10 9 8 3 5 2 3 2 9 9 8 26 29 32 35 35 32 28 27 30 34 33 35 35 36 38 38 37 41 42 42 38 37 35 34 32 32 30 29
13 8 15 8 15 13 15 8 6 6 2 5 5 8 8 9 15 13 30 35 40 39 39 39 38 36 40 40 34 35 36 40 39 39 44 46 46 43 40 37 33 33 32 31
8 12 15 17 16 12 8 8 13 7 4 3 4 4 6 5 9 14 24 34 41 45 47 48 45 42 44 42 38 35 35 40 40 41 43 46 49 47 43 41 38 36 35 35
7 2 17 11 13 17 9 5 4 3 3 12 11 8 8 11 9 9 20 32 36 38 41 42 39 41 44 45 43 39 38 38 40 41 42 46 47 48 48 46 44 41 39 39
8 16 3 9 11 8 10 9 4 7 7 17 10 9 22 7 8 13 17 31 32 31 31 32 34 38 42 45 46 44 42 39 38 40 42 44 46 46 47 48 47 45 43 43
13 8 16 7 11 6 19 16 5 7 6 9 3 9 7 12 32 36 33 31 25 19 19 21 24 30 37 45 47 48 47 42 40 38 40 41 43 46 46 47 47 47 47 44
7 10 1 10 8 9 8 16 12 3 3 2 6 8 6 8 10 22 28 28 31 29 25 22 21 17 26 33 41 48 48 44 42 38 36 38 40 44 46 47 48 48 47 47
5 2 3 7 12 14 15 7 11 4 5 6 5 6 10 3 13 15 7 18 23 19 15 16 17 20 20 24 28 36 44 44 40 37 36 38 40 41 43 46 47 47 46 45
3 5 1 3 11 20 6 13 9 6 3 5 3 7 7 18 18 19 10 16 14 17 14 12 14 16 15 16 21 26 36 40 41 40 40 41 41 42 43 45 46 46 46 46
15 5 10 14 6 2 14 12 19 10 19 3 1 11 3 8 9 11 14 14 11 11 10 8 8 13 14 13 14 19 25 30 34 37 39 40 41 42 44 45 44 43 45 45
14 8 9 3 3 4 7 15 19 19 2 18 12 10 4 5 0 8 14 14 15 13 12 10 9 9 7 8 12 16 19 23 26 29 32 35 37 38 41 43 43 43 44 44
15 6 10 13 5 5 13 18 18 23 13 22 19 19 8 6 6 7 14 17 16 11 6 6 4 3 4 3 3 4 4 6 11 18 25 31 34 36 37 38 39 39 40 40
6 12 14 14 8 3 11 19 25 24 34 17 26 21 16 12 13 20 26 23 18 14 10 8 6 6 6 6 6 8 8 9 10 12 14 16 20 26 31 34 35 35 35 35
6 7 8 16 13 12 12 16 16 26 29 25 27 18 20 22 11 20 24 24 22 18 12 10 9 8 8 9 11 13 14 15 16 16 15 16 16 17 20 23 26 29 29 28
4 2 7 19 11 14 14 28 24 24 27 30 27 38 6 10 8 17 27 34 35 23 14 11 11 10 13 16 18 18 19 20 20 19 18 17 16 16 16 16 18 21 23 24
5 6 2 8 9 17 23 15 29 31 31 29 29 17 19 20 26 26 27 29 26 21 17 16 14 15 16 17 19 18 19 19 19 19 18 16 14 14 13 13 13 15 18 21
17 8 4 5 12 4 7 9 26 22 32 29 29 31 21 16 13 18 29 28 25 19 15 12 10 11 11 12 12 13 13 13 13 14 14 14 13 12 12 13 14 14 15 17
18 18 8 9 12 9 13 7 26 11 20 32 34 26 25 15 8 16 29 24 19 16 11 10 9 8 8 8 8 9 8 7 7 8 9 10 10 12 12 12 12 12 12 11
7 12 19 16 12 8 5 7 33 15 14 15 39 35 27 17 34 23 26 22 18 14 11 12 11 9 8 6 6 5 5 5 4 4 5 6 7 9 11 11 11 11 10 10
9 6 10 9 7 14 11 24 22 11 3 5 9 31 37 49 31 28 29 23 19 18 18 16 13 11 11 10 10 8 7 7 5 4 3 2 4 6 9 10 9 9 9 8
5 8 4 11 7 2 21 9 4 1 2 3 9 14 35 34 33 30 30 27 24 21 19 16 14 15 14 12 10 8 6 5 3 2 2 3 4 6 7 8 9 9 9 9
5 5 3 3 2 6 11 10 11 7 2 3 7 10 22 33 31 32 31 26 24 21 20 19 17 15 13 11 8 5 4 3 4 5 6 7 8 8 9 9 9 10 10 10
1 8 5 1 5 1 16 21 16 7 4 4 6 9 19 30 30 32 28 25 23 23 22 19 16 13 11 8 6 6 5 6 7 8 9 9 9 9 9 9 8 8 9 8
9 5 4 3 10 9 5 19 12 4 8 7 12 15 20 26 31 30 28 25 24 23 20 18 15 12 11 10 8 7 6 6 7 7 7 7 7 7 7 7 7 7 6 6

GFSCGP_850_spd_117.txt.gz
Wind_Speed
7 4 13 15 4 0 4 4 7 2 6 4 8 17 18 24 23 19 22 26 34 35 27 28 29 27 27 30 34 36 38 39 38 41 38 37 36 32 30 30 26 25 25 24
4 17 9 7 3 1 1 1 2 4 6 5 8 14 11 16 17 28 32 32 30 34 33 32 30 32 32 28 31 35 36 39 38 42 43 40 38 36 31 31 30 28 27 27
15 2 16 8 5 7 5 7 2 3 6 3 3 10 14 8 26 32 34 35 37 34 35 35 34 36 35 35 33 32 34 37 38 39 43 43 41 39 37 36 35 32 30 30
11 7 10 8 14 11 13 8 5 5 3 4 1 7 9 5 15 13 32 38 42 42 39 37 36 35 34 33 35 33 35 36 38 39 43 45 46 45 42 39 36 34 33 32
7 11 11 12 7 9 5 6 10 6 7 5 5 6 7 6 12 11 22 33 41 45 44 44 45 43 42 37 38 35 36 39 39 40 44 44 46 46 44 43 41 38 36 35
5 3 11 9 6 14 8 4 4 4 2 11 21 9 8 10 7 8 17 34 40 40 42 46 44 41 45 44 44 44 43 43 40 40 42 46 45 45 46 47 44 42 40 39
5 7 3 0 6 4 9 5 3 5 5 10 7 8 21 7 8 11 18 29 36 38 38 37 37 39 38 40 43 46 43 46 44 42 42 42 45 45 46 46 46 45 43 43
10 5 13 6 7 2 15 13 4 6 5 6 3 8 8 11 27 31 36 37 33 31 29 28 32 30 31 32 34 38 42 44 47 45 41 40 41 44 44 44 44 43 44 44
6 7 1 6 7 10 4 15 5 3 2 2 5 9 6 8 9 16 29 37 42 42 37 30 25 25 24 26 30 35 40 43 47 48 43 42 38 39 41 41 43 43 43 43
3 1 2 3 7 11 8 7 5 6 5 6 6 6 8 1 10 12 18 29 36 33 30 30 30 28 28 25 22 26 32 39 43 45 47 43 39 37 37 39 41 40 40 42
3 3 3 3 8 13 7 7 6 2 4 4 4 8 8 16 14 15 18 20 24 26 20 19 19 21 22 23 23 23 28 31 34 38 42 46 41 38 38 40 40 39 39 39
10 2 4 8 4 7 14 18 14 6 6 3 1 13 5 6 8 14 25 27 20 16 11 13 14 16 16 17 15 18 22 23 25 27 33 39 41 40 40 40 39 38 38 37
10 6 5 3 3 3 9 12 14 21 5 16 3 19 4 5 8 14 14 12 11 10 9 9 7 5 10 13 11 10 11 14 19 24 29 32 35 36 37 37 36 35 35 34
21 4 11 18 6 4 8 15 18 14 8 25 18 36 13 8 5 10 14 17 15 16 14 11 9 7 6 4 3 2 5 9 13 17 22 26 28 30 32 33 34 34 33 33
5 7 7 14 9 3 2 9 18 22 27 10 30 27 28 14 9 21 23 17 16 16 12 12 10 9 8 6 5 5 6 7 8 10 13 16 19 23 26 29 31 32 32 31
5 3 3 14 12 19 18 13 13 25 27 24 32 28 18 15 26 26 29 20 22 22 18 15 12 11 9 7 8 11 12 14 15 16 15 16 17 18 19 20 21 23 25 27
5 4 4 7 5 7 11 32 23 17 17 22 22 36 9 13 12 25 32 28 31 29 25 19 14 14 11 10 14 17 18 19 20 20 19 18 18 17 16 16 16 17 17 17
5 4 2 4 3 7 10 3 23 29 28 22 25 29 27 30 34 31 36 39 36 37 32 22 19 15 14 15 18 20 20 19 20 20 19 18 17 16 15 14 13 12 13 14
12 5 3 3 5 10 15 22 7 10 28 27 30 35 37 30 17 33 45 39 41 35 28 25 20 17 18 17 18 17 17 16 16 16 15 14 13 13 12 12 12 11 11 12
15 15 7 2 5 10 30 4 15 6 20 29 26 33 30 16 13 27 28 38 35 29 26 26 23 20 18 17 16 16 15 15 13 12 12 12 12 12 11 10 10 10 9 9
5 7 18 16 6 10 6 9 14 12 12 4 33 47 34 18 37 33 25 29 34 30 30 26 22 19 18 16 15 14 12 10 9 8 7 6 6 6 5 6 7 7 7 6
11 8 8 11 10 18 5 7 20 15 13 10 14 32 29 45 39 30 28 26 30 33 30 25 21 18 15 13 11 10 8 6 5 3 2 1 0 1 2 3 5 6 6 5
7 7 7 11 8 0 4 4 14 17 12 8 14 12 17 31 35 36 34 33 33 30 27 23 20 18 16 14 13 11 10 9 7 4 3 2 2 3 4 4 5 6 7 7
2 8 4 1 2 7 11 10 11 20 21 15 12 16 16 21 29 33 33 35 32 28 24 22 20 19 17 16 14 12 10 9 8 5 4 3 2 2 2 3 4 5 5 6
4 7 5 6 5 12 3 19 24 21 18 10 8 8 10 15 22 29 33 31 28 26 24 21 19 18 19 17 15 13 12 9 7 5 3 2 3 4 4 4 4 4 5 5
9 5 2 1 11 9 13 23 29 26 23 14 8 2 6 17 24 29 30 27 26 24 23 22 22 21 20 18 16 14 12 11 9 6 5 4 4 3 4 4 5 5 4 4

GFSCGP_850_spd_120.txt.gz
Wind_Speed
8 4 15 13 4 3 4 2 4 2 5 2 6 14 14 22 18 18 24 22 29 32 28 29 28 26 27 30 31 34 35 36 35 34 34 34 34 32 30 28 27 26 26 25
4 14 5 8 6 4 3 2 3 5 4 3 8 15 14 14 18 26 29 34 41 39 33 31 34 32 29 29 29 32 35 36 38 39 40 39 37 37 34 31 30 29 28 27
7 6 12 7 5 6 4 10 3 3 6 3 5 10 10 8 19 31 34 38 39 37 36 35 33 37 35 34 34 33 32 36 37 38 40 41 40 42 41 39 36 33 31 30
10 4 9 5 9 9 9 7 4 4 4 4 2 7 8 4 9 10 27 33 41 40 39 37 37 37 40 38 37 36 35 34 36 37 39 42 43 45 44 41 38 36 32 33
6 6 7 8 4 7 4 6 8 5 5 3 8 5 7 2 7 9 17 32 35 33 33 42 43 41 42 38 37 35 37 36 37 37 38 39 42 42 42 42 40 38 37 35
5 3 8 9 4 10 7 4 3 3 2 5 15 10 6 6 6 6 16 30 31 30 32 34 37 39 44 43 43 41 41 39 40 40 39 41 41 41 43 43 42 40 39 38
5 4 2 5 6 3 5 7 2 3 5 9 2 8 17 10 6 7 12 25 30 36 32 29 29 33 35 36 41 42 47 47 44 45 44 44 42 41 42 43 42 41 39 38
7 6 9 4 4 5 10 7 4 5 4 6 3 7 7 13 25 30 36 36 36 36 34 32 27 24 25 28 31 35 43 47 48 48 48 46 45 43 41 41 43 41 40 39
8 5 3 4 3 6 3 12 7 1 1 1 4 9 9 8 10 16 27 31 34 35 35 34 32 31 26 24 25 29 35 40 41 42 43 45 46 45 42 38 39 40 39 38
6 3 2 4 6 9 4 2 3 5 4 5 5 6 11 6 8 13 14 29 30 24 28 30 29 27 27 29 28 29 27 32 35 37 40 42 44 44 43 41 39 37 34 36
5 2 1 6 7 10 6 5 3 1 3 2 3 7 8 14 14 9 11 25 30 33 33 28 21 20 18 20 24 26 28 27 29 32 35 38 40 41 42 43 40 38 38 36
3 3 3 7 3 2 7 8 10 5 4 2 2 18 5 9 8 8 17 29 31 23 22 21 18 18 18 17 17 18 20 26 25 25 27 29 31 34 36 38 39 36 34 33
8 3 3 3 5 3 5 7 8 9 5 14 2 18 3 0 8 21 16 24 25 19 15 12 11 11 13 15 12 11 11 11 13 16 19 22 23 25 26 29 31 32 31 30
22 4 7 12 5 5 5 11 14 11 5 14 21 39 14 8 10 19 33 34 25 18 14 10 6 2 3 3 3 4 4 5 8 11 14 17 20 23 25 27 29 30 29 29
7 4 4 4 2 2 4 6 14 18 21 11 31 24 18 14 16 23 33 40 43 31 18 16 12 7 4 3 3 3 2 2 4 6 8 11 14 19 23 26 28 28 29 28
4 1 2 3 5 6 9 17 10 16 19 24 23 30 3 22 29 29 34 35 38 38 25 21 16 13 9 9 8 8 8 9 11 13 14 14 15 16 17 18 19 21 23 24
8 6 3 4 4 3 7 17 18 18 19 16 22 38 19 21 19 25 35 36 37 41 31 30 24 18 16 15 14 14 14 15 15 16 17 18 18 18 17 16 16 15 15 15
7 6 3 3 3 2 7 6 12 18 18 21 26 36 34 35 39 41 43 39 38 39 43 31 31 27 23 21 19 18 18 17 17 19 19 17 16 15 15 14 13 12 11 10
5 5 1 3 4 8 17 5 6 7 15 19 26 31 42 39 32 50 56 46 50 49 48 42 36 34 27 25 21 19 20 17 16 16 15 15 15 14 13 12 10 9 8 8
4 1 4 3 4 7 25 9 22 6 18 11 19 25 30 19 14 26 39 40 51 52 45 45 37 32 30 27 23 20 19 17 15 13 12 11 10 10 9 9 7 7 7 8
5 3 12 11 3 10 5 9 13 8 27 7 18 28 27 14 26 48 25 22 26 37 42 39 28 31 30 26 22 19 17 16 14 11 8 7 6 5 4 4 4 4 3 3
7 8 5 5 5 13 4 6 19 9 23 24 21 21 23 32 38 43 40 36 22 27 31 29 30 31 27 23 20 18 17 15 11 8 7 6 5 4 4 3 2 2 3 3
3 6 5 9 8 1 5 2 5 14 19 22 31 36 32 35 38 33 33 30 29 25 26 28 29 27 24 21 19 18 15 14 13 12 10 8 7 5 4 3 2 2 2 2
2 8 4 2 2 5 8 4 12 24 25 29 32 34 34 29 34 34 28 29 29 28 28 28 26 24 21 20 19 19 18 17 15 13 11 8 6 4 3 2 2 1 0 1
1 6 2 7 0 21 9 11 28 39 33 33 31 30 32 25 27 23 20 22 26 27 27 25 23 21 20 20 21 21 20 18 14 13 11 9 7 6 4 3 2 2 1 2
4 1 3 3 7 6 16 24 35 31 35 37 33 36 25 18 18 17 17 18 23 24 23 23 22 22 22 21 20 20 18 16 14 12 11 10 9 8 6 5 4 3 4 5

GFSCGP_850_spd_123.txt.gz
Wind_Speed
13 6 17 13 4 5 6 3 3 2 3 2 4 8 14 22 21 20 28 29 29 29 30 27 27 25 25 28 30 29 30 31 31 34 33 32 34 31 29 28 25 23 24 25
5 17 8 8 7 5 5 3 2 4 2 1 6 11 15 13 19 26 30 32 33 34 37 35 34 29 28 30 32 34 33 32 33 35 36 37 35 35 33 31 30 28 27 26
12 3 16 8 4 7 4 9 3 5 6 3 6 8 11 8 18 28 33 35 37 38 38 37 35 34 34 31 34 37 36 35 34 35 35 38 39 40 38 38 37 34 31 28
6 2 11 7 6 7 8 5 4 3 1 6 2 7 9 5 9 9 24 26 28 31 34 37 38 33 34 34 30 35 36 37 36 36 38 39 40 42 40 38 36 37 35 33
3 7 7 5 5 6 3 6 7 4 2 3 5 4 8 2 6 8 18 27 27 28 30 31 30 30 36 36 36 34 35 38 39 41 40 40 40 39 40 40 38 36 37 37
3 2 6 8 4 7 7 5 3 2 2 5 7 9 5 5 5 4 17 27 27 22 20 22 21 24 28 30 35 39 39 39 37 40 43 44 40 38 40 39 39 37 36 37
5 4 3 8 6 2 4 6 1 3 4 7 2 5 13 9 6 7 12 22 24 21 27 30 31 28 26 25 29 32 37 41 40 41 43 45 44 43 42 40 38 38 37 37
9 6 9 4 6 7 8 7 4 5 4 4 2 8 6 14 23 24 28 30 32 31 30 31 28 26 28 27 22 26 30 32 37 40 42 45 46 47 47 44 42 39 36 35
4 3 3 2 4 6 4 8 6 2 2 1 4 9 10 8 11 16 28 29 29 28 26 28 28 26 25 25 27 24 25 28 32 35 38 42 45 48 50 47 45 42 36 34
7 4 1 3 5 4 2 4 3 4 4 5 5 6 12 7 14 13 9 20 19 18 26 30 31 26 24 20 23 28 26 24 25 28 33 34 37 39 43 46 47 44 39 36
5 4 3 6 5 9 2 3 2 2 3 4 2 7 7 12 12 9 9 8 17 18 21 26 28 24 20 19 18 21 28 30 29 26 26 28 29 30 32 36 40 41 41 39
2 3 4 2 3 4 6 9 6 3 3 3 2 10 6 9 3 6 12 19 12 22 25 30 30 26 19 16 16 16 18 20 21 22 22 21 21 22 25 28 30 32 35 36
9 4 4 2 3 3 6 7 6 4 3 9 3 9 3 8 9 18 25 37 38 38 38 32 35 23 18 15 14 11 10 11 12 12 15 16 17 18 20 21 22 23 25 27
17 4 6 8 5 6 6 7 14 14 5 6 17 30 13 15 16 27 37 41 44 40 44 42 37 20 12 8 5 6 6 6 6 6 8 10 12 15 17 19 20 22 23 25
5 5 3 1 5 3 4 6 12 16 20 9 24 17 3 5 7 13 26 36 43 44 41 40 34 25 16 11 7 6 3 2 2 3 5 7 9 12 15 18 19 21 22 23
0 5 4 2 2 4 6 8 9 11 11 16 15 31 7 9 16 22 29 35 36 43 42 41 37 33 26 19 16 13 10 8 9 10 11 13 14 15 15 15 16 18 21 24
7 5 3 2 1 3 7 15 12 8 12 16 18 35 15 9 18 28 35 35 34 39 47 49 42 36 33 27 22 19 16 15 15 15 16 17 18 18 18 17 17 17 17 18
8 5 3 2 2 3 6 1 8 15 14 18 24 24 22 24 37 50 33 39 45 45 52 52 47 40 35 34 31 26 22 20 19 19 18 18 18 18 17 17 17 16 16 15
4 5 3 5 4 7 9 5 7 9 15 17 19 16 20 31 35 35 34 40 41 46 49 52 52 50 42 37 34 30 27 25 22 19 19 17 15 15 14 14 14 13 12 11
3 4 4 3 5 7 5 6 21 5 18 8 11 14 18 18 11 9 29 37 42 39 35 40 46 47 41 37 34 33 31 27 23 20 17 15 13 13 12 11 12 12 11 11
4 1 6 3 3 9 7 12 10 6 8 14 17 15 18 7 17 38 47 51 49 44 38 38 38 36 36 33 35 36 31 26 21 18 15 13 12 11 10 10 10 9 9 8
6 7 4 3 2 11 3 2 6 6 6 12 19 24 29 30 40 43 44 46 46 42 35 35 31 26 28 30 31 31 28 24 21 18 14 14 13 13 12 12 11 11 10 9
2 5 6 9 8 5 7 8 5 9 12 13 19 26 30 40 44 45 49 49 45 37 30 26 23 21 24 26 28 26 23 21 19 18 17 16 16 15 14 13 13 12 11 10
1 4 3 2 2 4 8 8 5 17 20 23 24 31 35 39 42 45 48 46 42 32 26 21 20 21 22 21 21 22 20 19 18 19 19 18 16 15 15 14 13 11 11 10
1 4 1 6 2 10 12 8 19 28 24 28 33 32 32 36 41 38 41 38 36 31 23 19 19 19 19 18 19 18 18 18 19 18 17 16 15 14 13 13 11 9 9 8
6 3 2 3 6 6 13 17 35 28 30 33 38 43 32 28 36 36 34 32 29 25 21 16 16 16 15 16 17 18 19 19 17 16 15 15 14 14 13 12 13 13 10 9

GFSCGP_850_spd_129.txt.gz
Wind_Speed
12 6 16 31 21 21 19 18 19 17 10 5 18 18 18 22 22 21 23 25 26 26 21 19 20 22 23 22 22 24 26 26 27 31 33 36 34 32 28 28 30 28 28 27
9 19 31 16 21 19 21 22 20 13 2 8 16 20 16 24 26 26 27 28 28 28 26 25 25 24 27 28 31 29 29 29 30 33 35 35 38 38 33 31 33 32 31 31
20 21 23 20 22 17 22 24 20 18 9 14 16 23 21 26 30 32 29 30 29 29 28 26 25 26 29 32 35 35 33 31 32 34 36 34 35 34 35 38 39 37 35 36
16 26 12 23 19 19 22 22 15 8 7 12 2 12 16 16 15 11 18 21 21 21 22 24 24 24 25 29 30 32 36 37 36 38 38 40 43 41 39 39 38 39 37 38
7 4 21 19 27 17 17 15 11 15 16 13 19 6 13 15 21 14 15 20 19 17 16 15 16 16 18 21 25 31 32 34 36 37 41 41 42 43 40 42 40 39 39 38
1 1 3 11 19 22 12 11 10 10 7 6 23 16 17 16 20 13 4 9 8 7 4 6 7 10 15 17 19 23 26 30 33 37 40 44 43 44 44 44 43 41 40 40
6 10 3 2 5 2 16 16 4 5 5 11 4 11 19 14 15 10 10 17 11 9 8 9 10 11 16 17 17 21 24 26 29 34 39 44 44 44 45 44 43 41 42 42
7 6 16 14 7 6 9 14 6 7 7 13 5 10 6 4 7 8 11 13 12 9 6 6 10 17 21 20 20 18 20 24 26 28 34 38 43 45 46 45 44 42 42 44
7 4 9 21 15 13 6 7 4 1 2 2 7 12 15 13 13 13 15 11 7 3 7 8 12 16 20 22 23 22 18 20 25 27 28 32 36 40 43 43 40 41 42 41
11 3 6 8 9 13 12 10 4 2 4 7 9 12 10 8 9 10 9 9 9 8 9 12 18 18 20 24 26 24 23 19 19 24 27 28 31 34 37 39 39 38 40 40
10 8 4 6 8 15 7 11 8 5 6 6 7 6 5 5 7 11 6 7 9 12 16 19 21 20 25 28 29 27 25 23 20 19 23 29 29 29 30 32 34 35 36 36
15 7 5 5 5 7 13 12 12 7 6 6 4 7 4 2 7 8 5 9 15 18 18 20 21 24 25 25 27 26 27 27 21 19 20 22 27 28 28 29 29 30 31 34
11 5 5 2 3 1 5 10 12 13 2 12 6 5 1 5 7 6 11 14 21 21 22 23 26 27 28 29 29 27 26 25 23 20 17 19 22 25 27 27 27 28 28 29
18 4 9 11 4 10 6 16 19 16 4 13 14 20 7 9 7 15 18 21 22 28 29 28 32 31 31 33 33 31 26 25 25 19 16 16 16 18 20 22 23 23 25 27
13 12 12 11 3 10 14 18 18 17 20 12 24 23 18 17 11 12 18 20 27 23 25 27 29 32 40 38 38 34 31 26 25 25 20 15 13 14 16 18 19 21 24 25
12 3 11 3 4 6 8 15 19 22 21 21 27 23 16 23 16 9 13 19 18 23 19 24 31 38 41 42 39 35 34 30 28 26 28 24 20 17 17 18 18 19 21 22
11 6 5 6 5 2 3 18 19 19 19 22 20 28 13 16 16 16 20 19 14 16 22 26 28 33 41 45 44 37 34 34 32 29 29 30 28 25 22 21 21 21 22 24
11 7 2 4 5 6 4 3 11 18 17 17 20 24 18 10 12 13 11 9 13 20 26 32 35 39 41 44 45 40 33 34 33 33 31 33 33 30 28 25 24 23 23 24
12 7 4 5 7 8 9 4 5 8 13 10 14 12 12 14 11 4 11 16 19 22 26 31 38 42 46 45 45 43 35 31 34 31 32 33 36 33 30 27 25 25 23 23
5 6 5 3 6 7 5 8 8 3 10 12 11 10 12 15 4 3 26 33 32 27 29 37 43 45 45 44 42 41 36 33 30 30 31 33 35 32 29 27 26 25 22 22
6 4 9 6 5 3 4 5 2 6 1 9 9 9 10 6 8 24 32 34 32 34 36 35 40 44 46 45 40 38 35 31 29 28 28 29 30 28 27 25 24 22 20 20
7 8 5 3 3 8 12 2 4 4 5 9 11 11 14 16 22 23 25 32 39 41 43 43 44 46 45 43 39 37 33 31 29 26 26 26 26 26 25 23 20 18 17 16
4 1 4 3 1 6 13 16 10 8 7 11 14 15 18 22 24 26 28 29 34 39 44 45 46 48 45 39 37 36 32 29 28 25 24 23 23 23 22 20 17 16 16 15
2 4 3 5 4 8 10 10 10 11 10 13 15 19 21 25 27 30 29 29 32 40 44 45 45 44 44 39 34 32 31 28 25 23 21 19 18 17 18 18 17 17 17 16
2 2 4 4 3 6 7 6 13 16 15 18 21 22 25 26 28 29 31 31 31 35 38 40 40 40 40 37 34 30 28 26 22 20 17 17 16 17 18 18 18 18 18 17
5 3 1 2 3 2 1 11 19 15 19 21 24 28 25 24 27 28 29 30 32 32 35 34 34 34 35 33 31 27 24 23 20 17 16 18 18 18 19 19 19 18 16 15

GFSCGP_850_spd_132.txt.gz
Wind_Speed
11 6 18 17 13 13 14 14 11 9 3 2 6 11 10 22 23 20 19 23 24 24 21 20 21 23 26 25 28 28 28 24 25 29 29 33 36 34 32 31 30 30 31 31
7 19 21 8 15 16 17 17 18 10 7 2 7 14 13 20 22 24 25 27 28 27 28 29 27 27 29 30 29 30 31 28 31 31 30 32 35 36 35 35 33 32 33 33
15 14 17 14 16 16 18 17 14 13 7 2 5 15 13 15 32 38 38 36 31 30 30 29 24 25 30 31 32 30 34 33 34 34 33 33 32 34 37 39 39 38 36 35
14 21 13 18 19 17 17 10 9 10 3 6 3 10 8 8 14 14 12 17 25 28 24 24 26 26 23 23 28 29 28 31 36 36 36 38 39 39 40 39 36 38 38 38
7 9 21 16 25 10 16 5 8 12 10 4 12 5 8 3 10 10 17 18 18 17 13 3 3 7 9 16 19 18 24 29 29 32 37 41 44 45 42 41 41 38 38 37
7 1 4 11 10 10 2 7 7 5 4 8 23 8 21 12 12 12 13 8 2 9 5 3 3 5 4 7 13 15 21 28 32 32 34 39 46 47 46 44 43 43 41 40
8 5 2 2 2 3 7 8 4 6 6 11 10 10 18 10 9 4 6 8 3 8 6 6 4 9 10 10 9 9 15 22 24 29 33 36 42 46 47 46 44 44 44 43
12 10 16 9 5 7 12 13 5 5 5 6 7 9 8 2 5 7 2 2 5 7 9 6 12 14 12 13 15 15 13 13 20 24 28 34 35 42 47 47 45 44 42 43
10 9 3 14 7 10 2 10 5 1 1 2 5 6 5 8 6 3 1 7 15 14 7 8 12 16 14 21 20 22 19 17 15 19 25 29 34 36 39 42 43 41 42 40
9 5 6 7 8 10 6 9 4 2 5 3 4 5 4 6 9 8 11 16 9 6 8 12 16 20 21 23 24 25 24 21 20 18 20 26 30 34 36 37 39 40 41 39
9 4 4 4 7 8 6 4 7 6 3 1 1 4 4 7 15 10 10 8 11 11 11 14 15 18 19 22 24 24 26 25 23 22 19 21 26 30 33 35 37 37 36 38
10 3 4 9 2 4 5 4 8 3 4 2 3 5 6 10 10 15 10 11 11 13 12 12 17 19 21 29 30 30 28 28 27 24 23 21 22 25 29 32 35 34 34 33
12 4 4 4 2 3 5 9 11 6 2 6 4 4 4 10 9 11 8 10 9 14 14 12 18 25 27 31 33 33 30 28 30 28 24 24 22 22 24 26 28 29 31 31
21 4 5 8 4 7 6 10 8 5 3 2 8 6 1 7 8 4 10 11 11 10 14 19 25 27 30 31 34 36 36 30 26 32 28 25 23 22 20 20 23 23 22 25
9 6 5 5 7 6 9 13 14 13 10 6 16 19 14 7 4 6 9 10 13 16 17 23 26 29 32 34 35 37 37 37 31 28 30 28 26 23 22 19 19 19 20 23
6 1 6 2 1 6 6 16 18 22 22 14 18 18 5 14 5 15 18 16 16 19 23 24 28 33 35 38 40 40 39 39 38 34 31 31 29 28 26 25 23 22 22 22
8 5 5 6 6 6 5 11 13 14 18 15 17 20 5 5 12 17 16 15 15 17 23 29 32 35 38 39 41 42 42 40 39 36 33 30 31 29 28 28 27 25 25 24
9 8 2 3 6 8 5 6 16 16 11 8 11 14 11 7 9 14 14 15 19 23 26 31 35 38 39 40 42 42 41 39 36 35 34 33 33 30 28 30 30 28 26 26
7 4 3 4 4 5 3 3 6 7 2 10 7 10 13 10 6 10 13 22 22 23 29 32 35 38 41 43 44 45 43 41 37 35 33 34 32 31 30 30 30 30 28 27
1 3 4 2 3 6 1 2 6 6 3 10 11 11 13 16 2 3 23 29 29 30 32 35 38 40 43 45 45 46 45 43 40 35 35 33 31 29 29 29 28 28 28 26
5 4 6 4 3 3 3 10 8 5 2 8 9 9 11 4 6 23 29 30 31 33 36 37 41 44 44 45 45 44 44 44 41 38 34 30 29 26 24 26 26 25 24 23
6 7 3 3 3 6 10 3 3 4 11 8 8 8 9 12 18 21 27 32 36 38 40 42 45 46 45 44 44 44 43 42 42 40 35 30 26 26 22 23 22 21 20 19
3 3 5 2 2 7 16 20 12 9 7 8 7 9 12 16 19 24 28 31 30 38 41 41 43 45 44 41 40 43 41 39 41 39 36 30 25 23 20 19 19 19 18 17
2 4 4 5 5 9 13 13 10 8 6 7 9 13 14 17 22 28 30 29 33 35 40 41 42 43 44 40 38 37 38 36 36 37 35 29 25 21 19 19 19 18 18 18
1 3 5 5 8 12 10 7 6 6 7 10 13 16 17 20 21 23 27 31 34 37 38 37 36 38 39 38 36 34 33 33 33 32 30 27 24 21 21 20 20 20 19 18
5 2 3 3 7 5 8 2 6 9 12 14 17 19 18 18 19 21 26 27 31 34 34 34 32 32 33 34 33 32 30 30 30 30 26 23 22 20 21 21 20 19 18 17